WK24 / HB-JMF 7700 Squawk Report (11th of January, 2018)

Aircraft A343 Reg No. HB-JMF Age 14 years old
Model A340 Jet engines 4 First flight 25-10-03
Registered 14-03-17 Rollout 10-03 Delivered 28-11-03
Construction No. 561 Line No. N/A Series 313X
ADSHEX 4B1901 Airline name Edelweiss Air Owner N/A
Airfield based Zurich-Kloten~Zurich~HB First tracked 2011-04-02 04:05:01

Flight history for HB-JMF

Route Flight No Date Playback
Zurich (ZRH) - Phuket Intl (HKT) WK50 2018-01-20 21:27:00
Cape Town Intl (CPT) - Zurich (ZRH) WK85 2018-01-20 05:28:00
Zurich (ZRH) - Cape Town Intl (CPT) WK84 2018-01-19 09:12:00
Phuket Intl (HKT) - Zurich (ZRH) WK51 2018-01-18 15:53:00
Zurich (ZRH) - Phuket Intl (HKT) WK50 2018-01-18 05:12:00
Juan Santamaria Intl (SJO) - Zurich (ZRH) WK37 2018-01-17 14:46:00
Cancun Intl (CUN) - Zurich (ZRH) WK25 2018-01-16 12:03:00
Zurich (ZRH) - Juan Santamaria Intl (SJO) WK36 2018-01-17 03:02:00
Cancun Intl (CUN) - Zurich (ZRH) WK25 2018-01-16 10:30:00
Zurich (ZRH) - Cancun Intl (CUN) WK24 2018-01-15 23:28:00
Phuket Intl (HKT) - Zurich (ZRH) WK51 2018-01-14 15:39:00
Zurich (ZRH) - Phuket Intl (HKT) WK50 2018-01-14 04:02:00
Juan Santamaria Intl (SJO) - Zurich (ZRH) WK37 2018-01-13 13:22:00
Zurich (ZRH) - Juan Santamaria Intl (SJO) WK36 2018-01-13 00:48:00
Zurich (ZRH) - Cancun Intl (CUN) WK24 2018-01-11 19:36:00
Phuket Intl (HKT) - Zurich (ZRH) WK51 2018-01-11 14:20:00
Zurich (ZRH) - Phuket Intl (HKT) WK50 2018-01-11 04:25:00
Cape Town Intl (CPT) - Zurich (ZRH) WK85 2018-01-09 17:32:00
Zurich (ZRH) - Cape Town Intl (CPT) WK84 2018-01-09 06:41:00
Phuket Intl (HKT) - Zurich (ZRH) WK51 2018-01-08 13:54:00
Time Lat Lon Altitude Heading Speed Vertical Rate
2018-01-11 19:35:25 GMT 47.46051 8.55624 0 5.6 3.5 -768
2018-01-11 19:35:25 GMT 47.46051 8.55624 0 5.6 3.5 -768
2018-01-11 19:35:45 GMT 47.46064 8.55627 0 5 0 0
2018-01-11 19:35:38 GMT 47.46064 8.55627 0 5 0 0
2018-01-11 19:35:35 GMT 47.46061 8.55625 0 5 2 0
2018-01-11 19:35:28 GMT 47.46057 8.55626 0 5 2 0
2018-01-11 19:35:28 GMT 47.46056 8.55626 0 5 2 0
2018-01-11 19:35:24 GMT 47.46053 8.55626 0 5 4 0
2018-01-11 19:35:19 GMT 47.46046 8.55624 0 5 4 0
2018-01-11 19:35:19 GMT 47.46046 8.55624 0 5 4 0
2018-01-11 19:35:08 GMT 47.46025 8.55619 0 11 7 0
2018-01-11 19:34:59 GMT 47.45995 8.55612 0 11 10 0
2018-01-11 19:34:55 GMT 47.45977 8.55608 0 337 10 0
2018-01-11 19:34:49 GMT 47.45958 8.55632 0 278 9 0
2018-01-11 19:34:45 GMT 47.45955 8.55653 0 275 12 0
2018-01-11 19:34:43 GMT 47.45954 8.55672 0 275 15 0
2018-01-11 19:34:37 GMT 47.45951 8.55727 0 275 15 0
2018-01-11 19:34:27 GMT 47.45944 8.55821 0 275 13 0
2018-01-11 19:34:25 GMT 47.45943 8.55842 0 281 13 0
2018-01-11 19:34:18 GMT 47.45937 8.55895 0 264 13 0
2018-01-11 19:34:13 GMT 47.45940 8.55935 0 227 13 0
2018-01-11 19:34:09 GMT 47.45959 8.55960 0 202 12 0
2018-01-11 19:34:07 GMT 47.45969 8.55969 0 188 13 0
2018-01-11 19:34:01 GMT 47.46003 8.55976 0 185 17 0
2018-01-11 19:33:58 GMT 47.46027 8.55979 0 185 20 0
2018-01-11 19:33:55 GMT 47.46050 8.55981 0 185 20 0
2018-01-11 19:33:52 GMT 47.46086 8.55986 0 185 20 0
2018-01-11 19:33:47 GMT 47.46127 8.55993 0 185 20 0
2018-01-11 19:33:45 GMT 47.46144 8.55996 0 185 20 0
2018-01-11 19:33:40 GMT 47.46194 8.56004 0 177 21 0
2018-01-11 19:33:37 GMT 47.46213 8.56004 0 174 21 0
2018-01-11 19:33:34 GMT 47.46244 8.55999 0 168 21 0
2018-01-11 19:33:27 GMT 47.46310 8.55978 0 165 25 0
2018-01-11 19:33:21 GMT 47.46380 8.55955 0 165 28 0
2018-01-11 19:33:17 GMT 47.46431 8.55937 0 160 29 0
2018-01-11 19:33:15 GMT 47.46459 8.55922 0 157 28 0
2018-01-11 19:33:10 GMT 47.46515 8.55887 0 149 29 0
2018-01-11 19:33:07 GMT 47.46550 8.55859 0 146 30 0
2018-01-11 19:33:05 GMT 47.46584 8.55826 0 143 32 0
2018-01-11 19:32:56 GMT 47.46676 8.55703 0 137 38 0
2018-01-11 19:32:53 GMT 47.46709 8.55657 0 137 40 0
2018-01-11 19:32:46 GMT 47.46818 8.55509 0 137 51 0
2018-01-11 19:32:43 GMT 47.46863 8.55449 0 137 60 0
2018-01-11 19:32:36 GMT 47.47025 8.55226 0 137 88 0
2018-01-11 19:32:34 GMT 47.47104 8.55117 0 137 96 0
2018-01-11 19:32:25 GMT 47.47378 8.54745 0 137 125 0
2018-01-11 19:32:22 GMT 47.47532 8.54532 0 137 140 0
2018-01-11 19:32:18 GMT 47.47760 8.54217 0 137 145 0
2018-01-11 19:32:15 GMT 47.47851 8.54094 0 137 150 0
2018-01-11 19:32:11 GMT 47.48054 8.53814 1,250 137 146 -320
2018-01-11 19:32:07 GMT 47.48273 8.53521 1,300 137 147 -896
2018-01-11 19:32:04 GMT 47.48375 8.53377 1,350 137 147 -896
2018-01-11 19:32:02 GMT 47.48529 8.53171 1,400 137 147 -768
2018-01-11 19:31:59 GMT 47.48636 8.53025 1,425 137 147 -768
2018-01-11 19:31:55 GMT 47.48845 8.52738 1,475 137 147 -768
2018-01-11 19:31:51 GMT 47.49045 8.52469 1,525 137 147 -768
2018-01-11 19:31:49 GMT 47.49171 8.52293 1,575 137 148 -768
2018-01-11 19:31:45 GMT 47.49380 8.52018 1,625 137 147 -768
2018-01-11 19:31:41 GMT 47.49573 8.51749 1,675 137 148 -768
2018-01-11 19:31:39 GMT 47.49706 8.51571 1,700 136 149 -832
2018-01-11 19:31:34 GMT 47.49907 8.51296 1,750 137 150 -896
2018-01-11 19:31:32 GMT 47.50083 8.51053 1,800 137 150 -832
2018-01-11 19:31:29 GMT 47.50182 8.50919 1,850 137 149 -768
2018-01-11 19:31:23 GMT 47.50488 8.50500 1,925 137 149 -768
2018-01-11 19:31:19 GMT 47.50731 8.50170 1,975 137 148 -832
2018-01-11 19:31:14 GMT 47.50987 8.49820 2,025 137 150 -832
2018-01-11 19:31:11 GMT 47.51111 8.49648 2,075 137 150 -896
2018-01-11 19:31:06 GMT 47.51340 8.49332 2,150 137 150 -896
2018-01-11 19:31:04 GMT 47.51477 8.49147 2,200 137 152 -832
2018-01-11 19:31:00 GMT 47.51678 8.48879 2,250 137 152 -832
2018-01-11 19:30:57 GMT 47.51830 8.48666 2,275 136 153 -832
2018-01-11 19:30:54 GMT 47.51994 8.48440 2,325 136 153 -832
2018-01-11 19:30:50 GMT 47.52201 8.48152 2,400 137 152 -832
2018-01-11 19:30:48 GMT 47.52276 8.48053 2,400 137 152 -832
2018-01-11 19:30:46 GMT 47.52392 8.47898 2,450 137 152 -832
2018-01-11 19:30:42 GMT 47.52576 8.47636 2,475 137 152 -832
2018-01-11 19:30:37 GMT 47.52932 8.47152 2,575 137 151 -768
2018-01-11 19:30:33 GMT 47.53043 8.46998 2,600 137 151 -704
2018-01-11 19:30:26 GMT 47.53463 8.46419 2,700 137 149 -704
2018-01-11 19:30:23 GMT 47.53570 8.46278 2,750 137 150 -768
2018-01-11 19:30:16 GMT 47.53990 8.45700 2,850 136 150 -960
2018-01-11 19:30:13 GMT 47.54087 8.45560 2,875 136 150 -960
2018-01-11 19:30:05 GMT 47.54539 8.44945 3,025 137 153 -832
2018-01-11 19:30:03 GMT 47.54594 8.44877 3,025 137 154 -832
2018-01-11 19:30:01 GMT 47.54738 8.44680 3,075 137 154 -832
2018-01-11 19:29:54 GMT 47.55144 8.44121 3,175 137 158 -960
2018-01-11 19:29:51 GMT 47.55237 8.43997 3,200 137 160 -960
2018-01-11 19:29:47 GMT 47.55437 8.43722 3,275 137 163 -768
2018-01-11 19:29:44 GMT 47.55651 8.43426 3,325 137 164 -768
2018-01-11 19:29:42 GMT 47.55791 8.43243 3,350 137 167 -832
2018-01-11 19:29:33 GMT 47.56247 8.42616 3,475 137 170 -1088
2018-01-11 19:29:31 GMT 47.56368 8.42454 3,525 136 172 -1088
2018-01-11 19:29:25 GMT 47.56722 8.41968 3,625 137 174 -896
2018-01-11 19:29:22 GMT 47.56956 8.41649 3,650 137 176 -960
2018-01-11 19:29:20 GMT 47.56982 8.41609 3,675 137 175 -960
2018-01-11 19:29:15 GMT 47.57373 8.41072 3,775 137 174 -960
2018-01-11 19:29:11 GMT 47.57592 8.40778 3,850 137 175 -1024
2018-01-11 19:29:05 GMT 47.57946 8.40292 3,950 136 175 -960
2018-01-11 19:29:02 GMT 47.58096 8.40083 4,000 136 175 -1024
2018-01-11 19:29:00 GMT 47.58220 8.39912 4,025 136 174 -1024
2018-01-11 19:28:55 GMT 47.58523 8.39482 4,125 136 174 -1024
2018-01-11 19:28:51 GMT 47.58769 8.39143 4,200 137 174 -896
2018-01-11 19:28:49 GMT 47.58826 8.39067 4,200 136 174 -896
2018-01-11 19:28:44 GMT 47.59140 8.38635 4,275 137 174 -832
2018-01-11 19:28:41 GMT 47.59314 8.38394 4,325 137 173 -832
2018-01-11 19:28:39 GMT 47.59470 8.38188 4,350 137 173 -768
2018-01-11 19:28:34 GMT 47.59771 8.37771 4,400 136 173 -448
2018-01-11 19:28:31 GMT 47.59938 8.37532 4,425 136 173 -768
2018-01-11 19:28:28 GMT 47.60078 8.37334 4,475 135 173 -704
2018-01-11 19:28:24 GMT 47.60320 8.36989 4,525 133 173 -704
2018-01-11 19:28:21 GMT 47.60509 8.36698 4,575 131 172 -704
2018-01-11 19:28:19 GMT 47.60692 8.36396 4,600 128 172 -704
2018-01-11 19:28:14 GMT 47.60875 8.36060 4,650 123 172 -832
2018-01-11 19:28:11 GMT 47.61008 8.35771 4,675 119 172 -832
2018-01-11 19:28:08 GMT 47.61122 8.35490 4,725 116 171 -768
2018-01-11 19:28:03 GMT 47.61296 8.34968 4,800 114 172 -704
2018-01-11 19:28:00 GMT 47.61374 8.34700 4,825 114 173 -704
2018-01-11 19:27:58 GMT 47.61479 8.34357 4,850 114 173 -704
2018-01-11 19:27:54 GMT 47.61619 8.33905 4,900 114 173 -704
2018-01-11 19:27:50 GMT 47.61731 8.33552 4,950 114 174 -704
2018-01-11 19:27:47 GMT 47.61833 8.33221 4,975 114 174 -640
2018-01-11 19:27:43 GMT 47.61974 8.32764 5,025 114 176 -512
2018-01-11 19:27:40 GMT 47.62061 8.32482 5,050 114 178 -448
2018-01-11 19:27:37 GMT 47.62203 8.32029 5,075 114 181 -448
2018-01-11 19:27:33 GMT 47.62322 8.31651 5,100 114 183 -448
2018-01-11 19:27:29 GMT 47.62450 8.31253 5,125 114 186 -448
2018-01-11 19:27:25 GMT 47.62597 8.30785 5,150 114 189 -64
2018-01-11 19:27:22 GMT 47.62706 8.30422 5,150 114 193 -192
2018-01-11 19:27:18 GMT 47.62843 8.29990 5,175 114 196 -384
2018-01-11 19:27:15 GMT 47.62953 8.29619 5,200 113 200 -576
2018-01-11 19:27:12 GMT 47.63113 8.29069 5,225 112 200 -576
2018-01-11 19:27:10 GMT 47.63182 8.28829 5,250 111 202 -512
2018-01-11 19:27:07 GMT 47.63290 8.28433 5,275 109 204 -512
2018-01-11 19:27:04 GMT 47.63374 8.28087 5,300 107 205 -448
2018-01-11 19:27:01 GMT 47.63453 8.27721 5,325 105 206 -448
2018-01-11 19:26:59 GMT 47.63512 8.27435 5,350 101 207 -576
2018-01-11 19:26:57 GMT 47.63555 8.27137 5,350 98 208 -704
2018-01-11 19:26:54 GMT 47.63588 8.26763 5,400 93 208 -768
2018-01-11 19:26:52 GMT 47.63602 8.26404 5,425 83 209 -704
2018-01-11 19:26:48 GMT 47.63574 8.25897 5,450 79 210 -640
2018-01-11 19:26:45 GMT 47.63502 8.25341 5,500 77 212 -704
2018-01-11 19:26:41 GMT 47.63443 8.24943 5,525 77 213 -768
2018-01-11 19:26:38 GMT 47.63388 8.24566 5,575 77 214 -768
2018-01-11 19:26:36 GMT 47.63323 8.24123 5,600 77 215 -768
2018-01-11 19:26:34 GMT 47.63287 8.23899 5,625 77 216 -832
2018-01-11 19:26:31 GMT 47.63209 8.23384 5,675 77 216 -832
2018-01-11 19:26:28 GMT 47.63164 8.23068 5,725 77 219 -832
2018-01-11 19:26:25 GMT 47.63090 8.22567 5,775 77 219 -832
2018-01-11 19:26:23 GMT 47.63057 8.22362 5,775 77 220 -576
2018-01-11 19:26:21 GMT 47.63008 8.22011 5,825 77 220 -448
2018-01-11 19:26:18 GMT 47.62950 8.21630 5,850 77 220 -320
2018-01-11 19:26:16 GMT 47.62890 8.21235 5,850 77 219 -128
2018-01-11 19:26:13 GMT 47.62834 8.20871 5,875 77 219 0
2018-01-11 19:26:10 GMT 47.62775 8.20459 5,875 77 219 -64
2018-01-11 19:26:08 GMT 47.62722 8.20101 5,875 77 220 0
2018-01-11 19:26:05 GMT 47.62652 8.19622 5,875 77 221 0
2018-01-11 19:26:03 GMT 47.62605 8.19340 5,875 77 222 0
2018-01-11 19:26:00 GMT 47.62555 8.18981 5,875 77 223 -64
2018-01-11 19:25:58 GMT 47.62503 8.18636 5,875 77 225 64
2018-01-11 19:25:56 GMT 47.62436 8.18193 5,850 77 226 64
2018-01-11 19:25:53 GMT 47.62376 8.17802 5,850 77 228 -64
2018-01-11 19:25:51 GMT 47.62308 8.17335 5,850 77 231 0
2018-01-11 19:25:47 GMT 47.62257 8.17010 5,875 77 232 64
2018-01-11 19:25:45 GMT 47.62196 8.16601 5,850 77 234 64
2018-01-11 19:25:42 GMT 47.62131 8.16186 5,850 77 238 128
2018-01-11 19:25:39 GMT 47.62056 8.15686 5,850 77 240 0
2018-01-11 19:25:36 GMT 47.61982 8.15185 5,850 77 245 -192
2018-01-11 19:25:34 GMT 47.61912 8.14742 5,850 77 246 -256
2018-01-11 19:25:32 GMT 47.61877 8.14499 5,875 77 250 -640
2018-01-11 19:25:29 GMT 47.61787 8.13918 5,900 77 251 -896
2018-01-11 19:25:26 GMT 47.61726 8.13510 5,925 77 252 -1152
2018-01-11 19:25:24 GMT 47.61685 8.13256 5,975 77 252 -1088
2018-01-11 19:25:22 GMT 47.61603 8.12727 6,000 77 253 -1024
2018-01-11 19:25:20 GMT 47.61566 8.12473 6,050 77 253 -1024
2018-01-11 19:25:17 GMT 47.61489 8.11981 6,100 77 253 -960
2018-01-11 19:25:15 GMT 47.61438 8.11636 6,125 77 254 -960
2018-01-11 19:25:13 GMT 47.61383 8.11292 6,175 77 255 -960
2018-01-11 19:25:11 GMT 47.61344 8.11037 6,200 77 254 -960
2018-01-11 19:25:07 GMT 47.61228 8.10270 6,250 77 255 -1024
2018-01-11 19:25:05 GMT 47.61150 8.09788 6,300 77 256 -1024
2018-01-11 19:25:03 GMT 47.61121 8.09608 6,325 77 256 -1024
2018-01-11 19:25:00 GMT 47.61031 8.09019 6,375 77 257 -960
2018-01-11 19:24:56 GMT 47.60949 8.08481 6,450 77 257 -960
2018-01-11 19:24:54 GMT 47.60880 8.08038 6,475 76 257 -960
2018-01-11 19:24:51 GMT 47.60767 8.07319 6,550 77 258 -960
2018-01-11 19:24:49 GMT 47.60753 8.07242 6,550 77 258 -960
2018-01-11 19:24:47 GMT 47.60674 8.06734 6,600 76 258 -960
2018-01-11 19:24:44 GMT 47.60609 8.06312 6,650 76 259 -896
2018-01-11 19:24:40 GMT 47.60509 8.05689 6,700 76 260 -768
2018-01-11 19:24:38 GMT 47.60463 8.05408 6,725 76 260 -768
2018-01-11 19:24:36 GMT 47.60385 8.04920 6,750 76 262 -896
2018-01-11 19:24:34 GMT 47.60306 8.04417 6,800 76 262 -1088
2018-01-11 19:24:31 GMT 47.60232 8.03974 6,850 76 262 -1216
2018-01-11 19:24:29 GMT 47.60184 8.03684 6,900 76 262 -1280
2018-01-11 19:24:26 GMT 47.60097 8.03156 6,950 76 264 -1344
2018-01-11 19:24:24 GMT 47.60041 8.02819 7,000 76 264 -1344
2018-01-11 19:24:20 GMT 47.59932 8.02160 7,075 76 265 -1472
2018-01-11 19:24:18 GMT 47.59841 8.01622 7,125 76 266 -1472
2018-01-11 19:24:14 GMT 47.59729 8.00946 7,250 76 268 -1536
2018-01-11 19:24:09 GMT 47.59580 8.00024 7,375 76 269 -1920
2018-01-11 19:24:07 GMT 47.59543 7.99833 7,425 76 269 -2048
2018-01-11 19:24:04 GMT 47.59464 7.99326 7,525 76 269 -2176
2018-01-11 19:24:02 GMT 47.59419 7.99077 7,575 76 269 -2240
2018-01-11 19:23:58 GMT 47.59305 7.98356 7,750 76 269 -2304
2018-01-11 19:23:56 GMT 47.59213 7.97793 7,850 76 269 -2240
2018-01-11 19:23:53 GMT 47.59131 7.97278 7,975 76 269 -2176
2018-01-11 19:23:51 GMT 47.59072 7.96931 8,050 76 269 -2176
2018-01-11 19:23:49 GMT 47.59007 7.96516 8,125 76 269 -2112
2018-01-11 19:23:47 GMT 47.58961 7.96241 8,200 76 269 -2112
2018-01-11 19:23:45 GMT 47.58905 7.95875 8,250 76 269 -2048
2018-01-11 19:23:43 GMT 47.58815 7.95328 8,375 76 269 -2112
2018-01-11 19:23:38 GMT 47.58705 7.94675 8,500 76 269 -2112
2018-01-11 19:23:36 GMT 47.58659 7.94387 8,550 76 269 -2112
2018-01-11 19:23:33 GMT 47.58563 7.93803 8,675 76 269 -1920
2018-01-11 19:23:31 GMT 47.58505 7.93438 8,750 76 269 -1856
2018-01-11 19:23:27 GMT 47.58398 7.92794 8,850 76 270 -1856
2018-01-11 19:23:24 GMT 47.58270 7.92039 9,000 76 270 -2112
2018-01-11 19:23:22 GMT 47.58225 7.91757 9,050 76 270 -2112
2018-01-11 19:23:18 GMT 47.58083 7.90885 9,225 76 271 -2176
2018-01-11 19:23:16 GMT 47.58051 7.90700 9,250 77 270 -2176
2018-01-11 19:23:13 GMT 47.57964 7.90137 9,375 79 271 -2048
2018-01-11 19:23:11 GMT 47.57909 7.89783 9,450 78 270 -2176
2018-01-11 19:23:08 GMT 47.57811 7.89051 9,600 79 271 -2048
2018-01-11 19:23:06 GMT 47.57774 7.88783 9,650 80 271 -1984
2018-01-11 19:23:03 GMT 47.57699 7.88128 9,775 81 272 -1792
2018-01-11 19:23:01 GMT 47.57680 7.87960 9,800 81 272 -1792
2018-01-11 19:22:56 GMT 47.57588 7.87047 9,950 81 273 -1600
2018-01-11 19:22:54 GMT 47.57560 7.86769 10,000 81 273 -1536
2018-01-11 19:22:52 GMT 47.57497 7.86134 10,075 81 275 -1408
2018-01-11 19:22:45 GMT 47.57373 7.84843 10,250 81 279 -1216
2018-01-11 19:22:42 GMT 47.57322 7.84346 10,300 82 281 -1280
2018-01-11 19:22:40 GMT 47.57299 7.84107 10,325 82 281 -1344
2018-01-11 19:22:36 GMT 47.57220 7.83248 10,425 82 283 -1792
2018-01-11 19:22:34 GMT 47.57178 7.82839 10,500 82 284 -1792
2018-01-11 19:22:32 GMT 47.57155 7.82558 10,550 82 285 -1792
2018-01-11 19:22:30 GMT 47.57112 7.82158 10,600 82 284 -1792
2018-01-11 19:22:25 GMT 47.57020 7.81156 10,775 82 287 -1728
2018-01-11 19:22:23 GMT 47.56982 7.80741 10,825 83 288 -1472
2018-01-11 19:22:21 GMT 47.56943 7.80235 10,900 85 290 -1280
2018-01-11 19:22:15 GMT 47.56875 7.79156 11,025 89 294 -1024
2018-01-11 19:22:13 GMT 47.56869 7.78821 11,050 91 296 -960
2018-01-11 19:22:11 GMT 47.56871 7.78402 11,075 92 297 -960
2018-01-11 19:22:09 GMT 47.56874 7.78093 11,100 95 300 -1024
2018-01-11 19:22:04 GMT 47.56964 7.77022 11,225 102 303 -1920
2018-01-11 19:22:02 GMT 47.57039 7.76500 11,300 107 304 -1984
2018-01-11 19:22:00 GMT 47.57103 7.76157 11,375 107 304 -1984
2018-01-11 19:21:57 GMT 47.57231 7.75566 11,475 107 304 -1984
2018-01-11 19:21:54 GMT 47.57405 7.74824 11,550 109 305 -1920
2018-01-11 19:21:54 GMT 47.57434 7.74719 11,575 109 305 -1920
2018-01-11 19:21:52 GMT 47.57457 7.74621 11,625 109 305 -1856
2018-01-11 19:21:50 GMT 47.57574 7.74128 11,700 109 307 -1664
2018-01-11 19:21:48 GMT 47.57671 7.73712 11,775 109 306 -1664
2018-01-11 19:21:46 GMT 47.57808 7.73128 11,850 109 307 -1728
2018-01-11 19:21:44 GMT 47.57854 7.72936 11,875 109 307 -1728
2018-01-11 19:21:42 GMT 47.57945 7.72559 11,925 109 308 -1664
2018-01-11 19:21:40 GMT 47.58053 7.72092 12,000 109 308 -1664
2018-01-11 19:21:34 GMT 47.58365 7.70761 12,200 109 310 -1664
2018-01-11 19:21:31 GMT 47.58467 7.70341 12,250 109 310 -1664
2018-01-11 19:21:29 GMT 47.58591 7.69819 12,325 109 311 -1664
2018-01-11 19:21:23 GMT 47.58891 7.68550 12,500 109 312 -1856
2018-01-11 19:21:21 GMT 47.58934 7.68363 12,525 109 312 -2048
2018-01-11 19:21:19 GMT 47.59040 7.67916 12,600 109 311 -2368
2018-01-11 19:21:16 GMT 47.59172 7.67361 12,725 109 311 -2368
2018-01-11 19:21:13 GMT 47.59338 7.66670 12,850 109 310 -2304
2018-01-11 19:21:11 GMT 47.59431 7.66282 12,925 109 310 -1984
2018-01-11 19:21:09 GMT 47.59543 7.65803 13,000 109 310 -1408
2018-01-11 19:21:02 GMT 47.59836 7.64592 13,150 109 311 -1280
2018-01-11 19:21:00 GMT 47.59932 7.64182 13,200 109 311 -1216
2018-01-11 19:20:58 GMT 47.60059 7.63669 13,250 109 311 -1472
2018-01-11 19:20:56 GMT 47.60106 7.63465 13,275 109 311 -1472
2018-01-11 19:20:52 GMT 47.60371 7.62353 13,425 109 310 -1920
2018-01-11 19:20:50 GMT 47.60440 7.62067 13,475 109 308 -2176
2018-01-11 19:20:47 GMT 47.60582 7.61469 13,575 109 307 -2432
2018-01-11 19:20:43 GMT 47.60772 7.60698 13,725 109 305 -2624
2018-01-11 19:20:40 GMT 47.60893 7.60184 13,850 109 303 -2496
2018-01-11 19:20:38 GMT 47.61012 7.59684 13,950 109 301 -1856
2018-01-11 19:20:36 GMT 47.61135 7.59183 14,050 109 301 -1984
2018-01-11 19:20:33 GMT 47.61255 7.58675 14,150 109 300 -1728
2018-01-11 19:20:31 GMT 47.61293 7.58514 14,175 109 300 -1728
2018-01-11 19:20:29 GMT 47.61415 7.58009 14,250 109 299 -1792
2018-01-11 19:20:26 GMT 47.61557 7.57418 14,325 109 298 -1792
2018-01-11 19:20:24 GMT 47.61621 7.57137 14,375 109 294 -1728
2018-01-11 19:20:21 GMT 47.61809 7.56354 14,500 109 296 -1856
2018-01-11 19:20:19 GMT 47.61900 7.55976 14,575 109 296 -1792
2018-01-11 19:20:19 GMT 47.61875 7.56078 14,550 109 296 -1856
2018-01-11 19:20:17 GMT 47.61982 7.55634 14,625 109 295 -1792
2018-01-11 19:20:14 GMT 47.62080 7.55225 14,700 109 294 -1792
2018-01-11 19:20:12 GMT 47.62196 7.54733 14,775 109 294 -1728
2018-01-11 19:20:10 GMT 47.62280 7.54362 14,825 109 294 -1472
2018-01-11 19:20:08 GMT 47.62418 7.53793 14,900 108 295 -768
2018-01-11 19:20:04 GMT 47.62605 7.52982 14,975 108 294 -576
2018-01-11 19:20:02 GMT 47.62628 7.52886 14,975 108 300 0
2018-01-11 19:20:00 GMT 47.62755 7.52331 15,000 108 299 0
2018-01-11 19:19:58 GMT 47.62820 7.52048 15,000 108 299 0
2018-01-11 19:19:54 GMT 47.62994 7.51266 15,000 107 302 -64
2018-01-11 19:19:51 GMT 47.63109 7.50753 15,000 107 304 0
2018-01-11 19:19:49 GMT 47.63260 7.50064 15,000 107 307 0
2018-01-11 19:19:47 GMT 47.63296 7.49886 15,000 107 310 -64
2018-01-11 19:19:44 GMT 47.63467 7.49106 15,000 107 311 -64
2018-01-11 19:19:41 GMT 47.63562 7.48663 15,000 107 313 -128
2018-01-11 19:19:39 GMT 47.63653 7.48246 15,000 107 314 -128
2018-01-11 19:19:37 GMT 47.63765 7.47746 15,000 107 317 -192
2018-01-11 19:19:33 GMT 47.63928 7.46988 15,000 107 319 -384
2018-01-11 19:19:31 GMT 47.64066 7.46342 15,025 107 320 -448
2018-01-11 19:19:29 GMT 47.64116 7.46123 15,050 107 321 -704
2018-01-11 19:19:27 GMT 47.64203 7.45725 15,075 107 322 -832
2018-01-11 19:19:25 GMT 47.64249 7.45505 15,075 107 322 -896
2018-01-11 19:19:23 GMT 47.64418 7.44729 15,125 107 324 -960
2018-01-11 19:19:21 GMT 47.64487 7.44406 15,150 107 324 -960
2018-01-11 19:19:19 GMT 47.64583 7.43946 15,200 107 325 -960
2018-01-11 19:19:17 GMT 47.64684 7.43486 15,225 107 325 -960
2018-01-11 19:19:17 GMT 47.64663 7.43591 15,225 107 325 -960
2018-01-11 19:19:15 GMT 47.64729 7.43281 15,250 107 326 -960
2018-01-11 19:19:12 GMT 47.64871 7.42635 15,300 107 326 -960
2018-01-11 19:19:10 GMT 47.64967 7.42174 15,325 107 327 -960
2018-01-11 19:19:06 GMT 47.65141 7.41385 15,400 107 329 -960
2018-01-11 19:19:03 GMT 47.65306 7.40630 15,450 107 329 -960
2018-01-11 19:19:00 GMT 47.65434 7.40025 15,500 107 331 -896
2018-01-11 19:18:58 GMT 47.65562 7.39435 15,525 107 332 -896
2018-01-11 19:18:56 GMT 47.65626 7.39140 15,550 107 333 -896
2018-01-11 19:18:54 GMT 47.65720 7.38711 15,600 107 333 -896
2018-01-11 19:18:50 GMT 47.65911 7.37816 15,650 107 335 -1152
2018-01-11 19:18:46 GMT 47.66130 7.36812 15,750 107 337 -1280
2018-01-11 19:18:39 GMT 47.66409 7.35521 15,875 107 339 -1280
2018-01-11 19:18:37 GMT 47.66524 7.34985 15,925 107 339 -1344
2018-01-11 19:18:34 GMT 47.66666 7.34333 16,000 107 339 -1344
2018-01-11 19:18:29 GMT 47.66917 7.33166 16,125 107 340 -1472
2018-01-11 19:18:27 GMT 47.67033 7.32626 16,175 107 340 -1600
2018-01-11 19:18:24 GMT 47.67114 7.32232 16,225 107 340 -1664
2018-01-11 19:18:22 GMT 47.67298 7.31365 16,325 107 340 -2048
2018-01-11 19:18:19 GMT 47.67419 7.30809 16,425 107 339 -2304
2018-01-11 19:18:17 GMT 47.67522 7.30344 16,450 107 339 -2304
2018-01-11 19:18:15 GMT 47.67615 7.29901 16,575 107 339 -2304
2018-01-11 19:18:13 GMT 47.67668 7.29664 16,625 107 339 -2304
2018-01-11 19:18:10 GMT 47.67866 7.28739 16,800 107 338 -2304
2018-01-11 19:18:08 GMT 47.67888 7.28634 16,800 107 338 -2304
2018-01-11 19:18:04 GMT 47.68113 7.27591 17,000 107 336 -2304
2018-01-11 19:18:02 GMT 47.68162 7.27370 17,025 107 335 -2368
2018-01-11 19:17:58 GMT 47.68373 7.26395 17,225 107 334 -2368
2018-01-11 19:17:56 GMT 47.68524 7.25681 17,350 107 333 -2368
2018-01-11 19:17:54 GMT 47.68569 7.25471 17,375 107 333 -2304
2018-01-11 19:17:52 GMT 47.68644 7.25133 17,450 107 332 -2304
2018-01-11 19:17:48 GMT 47.68840 7.24198 17,625 107 330 -2368
2018-01-11 19:17:46 GMT 47.68932 7.23772 17,700 107 328 -2240
2018-01-11 19:17:44 GMT 47.69078 7.23086 17,825 107 329 -2368
2018-01-11 19:17:43 GMT 47.69078 7.23086 17,825 107 329 -2368
2018-01-11 19:17:42 GMT 47.69132 7.22851 17,875 107 329 -2368
2018-01-11 19:17:39 GMT 47.69305 7.22034 18,025 107 328 -2240
2018-01-11 19:17:37 GMT 47.69323 7.21950 18,025 107 327 -2112
2018-01-11 19:17:35 GMT 47.69458 7.21316 18,150 107 326 -2112
2018-01-11 19:17:32 GMT 47.69556 7.20851 18,225 107 326 -2176
2018-01-11 19:17:27 GMT 47.69784 7.19802 18,400 107 324 -2240
2018-01-11 19:17:25 GMT 47.69929 7.19117 18,525 107 323 -2304
2018-01-11 19:17:23 GMT 47.70022 7.18682 18,600 107 323 -2304
2018-01-11 19:17:19 GMT 47.70204 7.17840 18,750 107 321 -2176
2018-01-11 19:17:17 GMT 47.70255 7.17620 18,800 107 321 -2048
2018-01-11 19:17:14 GMT 47.70394 7.16950 18,925 107 320 -1920
2018-01-11 19:17:12 GMT 47.70487 7.16527 18,975 107 319 -1792
2018-01-11 19:17:07 GMT 47.70720 7.15414 19,125 107 319 -1216
2018-01-11 19:17:05 GMT 47.70771 7.15189 19,150 107 321 -1024
2018-01-11 19:17:03 GMT 47.70906 7.14541 19,225 107 321 -896
2018-01-11 19:17:01 GMT 47.70957 7.14323 19,250 107 321 -768
2018-01-11 19:16:58 GMT 47.71120 7.13548 19,300 107 322 -960
2018-01-11 19:16:56 GMT 47.71237 7.13020 19,325 107 324 -960
2018-01-11 19:16:56 GMT 47.71211 7.13123 19,325 107 325 -960
2018-01-11 19:16:54 GMT 47.71321 7.12608 19,350 107 325 -960
2018-01-11 19:16:52 GMT 47.71386 7.12301 19,375 107 326 -960
2018-01-11 19:16:52 GMT 47.71435 7.12086 19,400 107 326 -960
2018-01-11 19:16:50 GMT 47.71460 7.11963 19,425 107 326 -960
2018-01-11 19:16:47 GMT 47.71646 7.11097 19,475 107 327 -960
2018-01-11 19:16:45 GMT 47.71683 7.10912 19,500 107 328 -960
2018-01-11 19:16:43 GMT 47.71777 7.10477 19,525 107 329 -960
2018-01-11 19:16:40 GMT 47.71916 7.09827 19,575 107 330 -960
2018-01-11 19:16:37 GMT 47.72053 7.09168 19,625 107 331 -1024
2018-01-11 19:16:35 GMT 47.72145 7.08756 19,675 107 331 -1088
2018-01-11 19:16:32 GMT 47.72303 7.08005 19,725 107 332 -1152
2018-01-11 19:16:30 GMT 47.72374 7.07684 19,750 107 333 -1152
2018-01-11 19:16:30 GMT 47.72374 7.07684 19,750 107 333 -1152
2018-01-11 19:16:26 GMT 47.72601 7.06604 19,850 107 334 -1088
2018-01-11 19:16:22 GMT 47.72795 7.05679 19,950 107 335 -1152
2018-01-11 19:16:21 GMT 47.72845 7.05453 19,950 107 336 -1152
2018-01-11 19:16:20 GMT 47.72845 7.05453 19,950 107 335 -1152
2018-01-11 19:16:17 GMT 47.73062 7.04435 20,050 107 337 -1216
2018-01-11 19:16:12 GMT 47.73224 7.03681 20,125 107 338 -1152
2018-01-11 19:16:10 GMT 47.73341 7.03118 20,175 107 338 -1152
2018-01-11 19:16:10 GMT 47.73341 7.03118 20,175 107 338 -1152
2018-01-11 19:16:03 GMT 47.73667 7.01583 20,300 107 340 -1152
2018-01-11 19:16:01 GMT 47.73802 7.00941 20,375 107 341 -1152
2018-01-11 19:15:59 GMT 47.73853 7.00716 20,375 107 341 -1152
2018-01-11 19:15:59 GMT 47.73825 7.00838 20,375 107 342 -1152
2018-01-11 19:15:56 GMT 47.74002 7.00005 20,450 107 343 -1152
2018-01-11 19:15:51 GMT 47.74244 6.98864 20,550 107 345 -1152
2018-01-11 19:15:49 GMT 47.74315 6.98531 20,575 107 345 -1152
2018-01-11 19:15:45 GMT 47.74491 6.97695 20,650 107 346 -1152
2018-01-11 19:15:41 GMT 47.74770 6.96371 20,775 107 348 -1152
2018-01-11 19:15:38 GMT 47.74863 6.95920 20,800 107 348 -1152
2018-01-11 19:15:36 GMT 47.74970 6.95421 20,850 107 349 -1152
2018-01-11 19:15:32 GMT 47.75139 6.94618 20,925 107 351 -1152
2018-01-11 19:15:29 GMT 47.75329 6.93730 21,000 107 352 -1152
2018-01-11 19:15:28 GMT 47.75372 6.93512 21,025 107 352 -1152
2018-01-11 19:15:25 GMT 47.75496 6.92928 21,050 107 353 -1152
2018-01-11 19:15:20 GMT 47.75743 6.91761 21,150 107 356 -1152
2018-01-11 19:15:18 GMT 47.75831 6.91336 21,200 107 357 -1152
2018-01-11 19:15:18 GMT 47.75831 6.91336 21,200 107 356 -1152
2018-01-11 19:15:14 GMT 47.76022 6.90422 21,275 107 357 -1152
2018-01-11 19:15:10 GMT 47.76274 6.89237 21,375 107 360 -1152
2018-01-11 19:15:08 GMT 47.76329 6.88984 21,400 107 360 -1152
2018-01-11 19:15:08 GMT 47.76329 6.88984 21,400 107 360 -1152
2018-01-11 19:15:05 GMT 47.76480 6.88252 21,450 107 361 -1216
2018-01-11 19:15:02 GMT 47.76669 6.87364 21,525 107 362 -1152
2018-01-11 19:14:59 GMT 47.76801 6.86755 21,575 107 363 -1152
2018-01-11 19:14:57 GMT 47.76878 6.86378 21,600 107 364 -1152
2018-01-11 19:14:55 GMT 47.77007 6.85760 21,650 107 365 -1152
2018-01-11 19:14:51 GMT 47.77171 6.84970 21,725 107 366 -1152
2018-01-11 19:14:49 GMT 47.77326 6.84251 21,775 107 366 -1152
2018-01-11 19:14:47 GMT 47.77373 6.84023 21,800 107 367 -1152
2018-01-11 19:14:43 GMT 47.77563 6.83103 21,875 107 367 -1152
2018-01-11 19:14:41 GMT 47.77675 6.82581 21,925 107 368 -1152
2018-01-11 19:14:38 GMT 47.77828 6.81850 21,975 107 368 -1152
2018-01-11 19:14:36 GMT 47.77918 6.81420 22,025 107 369 -1152
2018-01-11 19:14:33 GMT 47.78128 6.80418 22,075 107 369 -1152
2018-01-11 19:14:29 GMT 47.78334 6.79443 22,175 107 370 -1152
2018-01-11 19:14:26 GMT 47.78489 6.78702 22,250 107 370 -1152
2018-01-11 19:14:22 GMT 47.78685 6.77758 22,325 107 370 -1152
2018-01-11 19:14:18 GMT 47.78829 6.77068 22,375 107 370 -1152
2018-01-11 19:14:16 GMT 47.78938 6.76552 22,425 107 370 -1152
2018-01-11 19:14:14 GMT 47.79098 6.75790 22,475 107 370 -1152
2018-01-11 19:14:11 GMT 47.79253 6.75054 22,550 107 371 -1152
2018-01-11 19:14:08 GMT 47.79387 6.74416 22,600 107 371 -1152
2018-01-11 19:14:06 GMT 47.79478 6.73977 22,625 107 371 -1152
2018-01-11 19:14:04 GMT 47.79538 6.73695 22,650 107 371 -1152
2018-01-11 19:14:01 GMT 47.79746 6.72694 22,725 107 372 -1152
2018-01-11 19:13:58 GMT 47.79844 6.72222 22,775 107 372 -1152
2018-01-11 19:13:56 GMT 47.80000 6.71484 22,825 107 372 -1152
2018-01-11 19:13:54 GMT 47.80072 6.71138 22,850 107 372 -1152
2018-01-11 19:13:52 GMT 47.80147 6.70786 22,900 107 372 -1152
2018-01-11 19:13:49 GMT 47.80300 6.70039 22,950 107 373 -1152
2018-01-11 19:13:47 GMT 47.80431 6.69411 23,000 107 373 -1152
2018-01-11 19:13:45 GMT 47.80582 6.68697 23,050 107 373 -1152
2018-01-11 19:13:42 GMT 47.80664 6.68305 23,100 107 373 -1152
2018-01-11 19:13:40 GMT 47.80822 6.67539 23,150 107 373 -1152
2018-01-11 19:13:37 GMT 47.80980 6.66781 23,200 107 374 -1152
2018-01-11 19:13:37 GMT 47.80980 6.66781 23,200 107 374 -1152
2018-01-11 19:13:34 GMT 47.81099 6.66225 23,250 107 374 -1152
2018-01-11 19:13:32 GMT 47.81180 6.65835 23,275 107 374 -1152
2018-01-11 19:13:28 GMT 47.81383 6.64865 23,375 107 375 -1152
2018-01-11 19:13:26 GMT 47.81492 6.64335 23,400 107 375 -1152
2018-01-11 19:13:24 GMT 47.81594 6.63835 23,450 107 375 -1152
2018-01-11 19:13:20 GMT 47.81869 6.62532 23,550 107 376 -1152
2018-01-11 19:13:18 GMT 47.81891 6.62414 23,550 107 376 -1152
2018-01-11 19:13:16 GMT 47.81999 6.61905 23,600 107 377 -1152
2018-01-11 19:13:14 GMT 47.82130 6.61264 23,650 107 377 -1152
2018-01-11 19:13:12 GMT 47.82209 6.60891 23,675 107 378 -1152
2018-01-11 19:13:11 GMT 47.82257 6.60656 23,700 107 378 -1152
2018-01-11 19:13:09 GMT 47.82381 6.60072 23,750 107 378 -1152
2018-01-11 19:13:07 GMT 47.82477 6.59605 23,775 107 379 -1152
2018-01-11 19:13:05 GMT 47.82609 6.58968 23,825 107 379 -1152
2018-01-11 19:13:03 GMT 47.82683 6.58603 23,875 107 379 -1152
2018-01-11 19:13:01 GMT 47.82758 6.58236 23,900 107 380 -1152
2018-01-11 19:12:59 GMT 47.82903 6.57560 23,950 107 381 -1152
2018-01-11 19:12:57 GMT 47.83033 6.56926 24,000 107 381 -1152
2018-01-11 19:12:53 GMT 47.83196 6.56123 24,050 107 382 -1152
2018-01-11 19:12:51 GMT 47.83310 6.55575 24,100 107 382 -1152
2018-01-11 19:12:47 GMT 47.83521 6.54565 24,175 106 383 -1152
2018-01-11 19:12:45 GMT 47.83630 6.54023 24,225 106 384 -1152
2018-01-11 19:12:43 GMT 47.83689 6.53750 24,250 107 384 -1152
2018-01-11 19:12:41 GMT 47.83850 6.52952 24,300 107 385 -1152
2018-01-11 19:12:39 GMT 47.83896 6.52725 24,325 107 385 -1152
2018-01-11 19:12:36 GMT 47.84104 6.51729 24,400 107 385 -1152
2018-01-11 19:12:34 GMT 47.84239 6.51081 24,450 107 386 -1152
2018-01-11 19:12:31 GMT 47.84367 6.50452 24,500 107 387 -1152
2018-01-11 19:12:29 GMT 47.84500 6.49821 24,550 107 387 -1152
2018-01-11 19:12:27 GMT 47.84606 6.49313 24,600 107 387 -1152
2018-01-11 19:12:24 GMT 47.84714 6.48785 24,625 107 387 -1152
2018-01-11 19:12:22 GMT 47.84825 6.48262 24,675 107 388 -1152
2018-01-11 19:12:19 GMT 47.84953 6.47637 24,725 107 388 -1152
2018-01-11 19:12:16 GMT 47.85136 6.46751 24,800 107 388 -1152
2018-01-11 19:12:14 GMT 47.85263 6.46144 24,850 107 389 -1152
2018-01-11 19:12:10 GMT 47.85471 6.45145 24,925 107 389 -1152
2018-01-11 19:12:08 GMT 47.85584 6.44595 24,950 106 390 -1152
2018-01-11 19:12:04 GMT 47.85747 6.43799 25,025 106 390 -1152
2018-01-11 19:12:02 GMT 47.85882 6.43130 25,075 106 390 -1152
2018-01-11 19:12:00 GMT 47.86002 6.42563 25,125 106 390 -1152
2018-01-11 19:11:58 GMT 47.86115 6.42017 25,150 106 390 -1152
2018-01-11 19:11:53 GMT 47.86414 6.40565 25,250 106 390 -1152
2018-01-11 19:11:50 GMT 47.86520 6.40045 25,300 106 391 -1152
2018-01-11 19:11:48 GMT 47.86631 6.39496 25,350 106 391 -1152
2018-01-11 19:11:47 GMT 47.86656 6.39391 25,375 106 391 -1152
2018-01-11 19:11:43 GMT 47.86901 6.38179 25,450 106 391 -1152
2018-01-11 19:11:41 GMT 47.86990 6.37749 25,500 106 391 -1152
2018-01-11 19:11:38 GMT 47.87153 6.36960 25,550 106 392 -1152
2018-01-11 19:11:35 GMT 47.87366 6.35909 25,625 106 394 -1152
2018-01-11 19:11:32 GMT 47.87476 6.35381 25,675 106 394 -1152
2018-01-11 19:11:30 GMT 47.87558 6.34975 25,700 106 394 -1152
2018-01-11 19:11:27 GMT 47.87725 6.34172 25,750 106 395 -1152
2018-01-11 19:11:23 GMT 47.88007 6.32806 25,875 106 396 -1152
2018-01-11 19:11:20 GMT 47.88144 6.32126 25,925 106 397 -1152
2018-01-11 19:11:16 GMT 47.88335 6.31186 26,000 106 397 -1152
2018-01-11 19:11:14 GMT 47.88489 6.30439 26,050 106 398 -1088
2018-01-11 19:11:14 GMT 47.88489 6.30439 26,050 106 400 -1088
2018-01-11 19:11:12 GMT 47.88542 6.30196 26,075 106 399 -1088
2018-01-11 19:11:09 GMT 47.88698 6.29427 26,125 106 400 -1088
2018-01-11 19:11:09 GMT 47.88698 6.29427 26,125 106 403 -1088
2018-01-11 19:11:06 GMT 47.88973 6.28073 26,200 106 401 -1088
2018-01-11 19:11:03 GMT 47.89029 6.27805 26,225 106 402 -1088
2018-01-11 19:11:00 GMT 47.89224 6.26839 26,300 106 405 -1088
2018-01-11 19:10:58 GMT 47.89280 6.26566 26,325 106 404 -1088
2018-01-11 19:10:56 GMT 47.89421 6.25877 26,375 106 405 -1088
2018-01-11 19:10:53 GMT 47.89555 6.25228 26,425 106 407 -1088
2018-01-11 19:10:51 GMT 47.89673 6.24648 26,450 106 408 -1088
2018-01-11 19:10:49 GMT 47.89843 6.23819 26,500 106 408 -1088
2018-01-11 19:10:46 GMT 47.90021 6.22959 26,575 106 409 -1152
2018-01-11 19:10:41 GMT 47.90227 6.21957 26,650 106 411 -1152
2018-01-11 19:10:37 GMT 47.90421 6.20988 26,725 106 411 -1152
2018-01-11 19:10:35 GMT 47.90575 6.20247 26,775 106 412 -1152
2018-01-11 19:10:31 GMT 47.90798 6.19157 26,875 106 412 -1152
2018-01-11 19:10:29 GMT 47.90932 6.18496 26,925 106 412 -1152
2018-01-11 19:10:29 GMT 47.90932 6.18496 26,925 106 412 -1152
2018-01-11 19:10:27 GMT 47.91037 6.17981 26,950 106 412 -1152
2018-01-11 19:10:24 GMT 47.91211 6.17123 27,025 106 412 -1152
2018-01-11 19:10:22 GMT 47.91293 6.16718 27,050 106 412 -1152
2018-01-11 19:10:20 GMT 47.91371 6.16333 27,075 106 412 -1152
2018-01-11 19:10:17 GMT 47.91594 6.15227 27,150 106 412 -1088
2018-01-11 19:10:14 GMT 47.91706 6.14671 27,200 106 413 -1152
2018-01-11 19:10:12 GMT 47.91873 6.13861 27,250 106 413 -1152
2018-01-11 19:10:08 GMT 47.92062 6.12913 27,325 106 413 -1152
2018-01-11 19:10:06 GMT 47.92171 6.12382 27,350 106 413 -1152
2018-01-11 19:10:03 GMT 47.92305 6.11719 27,400 106 414 -1088
2018-01-11 19:10:01 GMT 47.92497 6.10769 27,450 106 415 -1088
2018-01-11 19:09:58 GMT 47.92644 6.10050 27,525 106 415 -1152
2018-01-11 19:09:56 GMT 47.92758 6.09480 27,575 106 416 -1152
2018-01-11 19:09:51 GMT 47.92969 6.08437 27,650 106 416 -1152
2018-01-11 19:09:49 GMT 47.93088 6.07847 27,675 106 417 -1088
2018-01-11 19:09:47 GMT 47.93234 6.07139 27,725 106 417 -1152
2018-01-11 19:09:47 GMT 47.93209 6.07262 27,725 106 417 -1152
2018-01-11 19:09:44 GMT 47.93376 6.06425 27,775 106 417 -1152
2018-01-11 19:09:42 GMT 47.93456 6.06030 27,825 106 418 -1152
2018-01-11 19:09:39 GMT 47.93632 6.05154 27,875 106 418 -1152
2018-01-11 19:09:37 GMT 47.93793 6.04358 27,925 106 418 -1152
2018-01-11 19:09:37 GMT 47.93819 6.04241 27,950 106 418 -1152
2018-01-11 19:09:35 GMT 47.93921 6.03740 27,975 106 419 -1152
2018-01-11 19:09:32 GMT 47.94043 6.03128 28,025 106 419 -1152
2018-01-11 19:09:29 GMT 47.94294 6.01882 28,125 106 419 -1152
2018-01-11 19:09:26 GMT 47.94383 6.01453 28,150 106 420 -1152
2018-01-11 19:09:23 GMT 47.94585 6.00451 28,225 106 420 -1088
2018-01-11 19:09:21 GMT 47.94672 6.00018 28,250 106 421 -1088
2018-01-11 19:09:18 GMT 47.94836 5.99194 28,300 106 421 -1152
2018-01-11 19:09:16 GMT 47.94941 5.98663 28,325 106 421 -1152
2018-01-11 19:09:16 GMT 47.94941 5.98663 28,325 106 421 -1152
2018-01-11 19:09:14 GMT 47.95164 5.97565 28,400 106 422 -1152
2018-01-11 19:09:11 GMT 47.95226 5.97258 28,425 106 422 -1152
2018-01-11 19:09:09 GMT 47.95312 5.96819 28,475 106 422 -1152
2018-01-11 19:09:06 GMT 47.95560 5.95603 28,550 106 423 -1088
2018-01-11 19:09:01 GMT 47.95807 5.94374 28,650 106 424 -1088
2018-01-11 19:09:00 GMT 47.95839 5.94216 28,650 106 425 -1152
2018-01-11 19:08:58 GMT 47.95984 5.93487 28,700 106 425 -1152
2018-01-11 19:08:54 GMT 47.96151 5.92656 28,750 106 425 -1152
2018-01-11 19:08:49 GMT 47.96473 5.91043 28,875 106 426 -1152
2018-01-11 19:08:47 GMT 47.96589 5.90459 28,900 106 426 -1152
2018-01-11 19:08:45 GMT 47.96759 5.89623 28,975 106 426 -1088
2018-01-11 19:08:39 GMT 47.97055 5.88156 29,075 106 427 -1088
2018-01-11 19:08:37 GMT 47.97120 5.87832 29,100 106 427 -1152
2018-01-11 19:08:35 GMT 47.97301 5.86930 29,150 106 427 -1152
2018-01-11 19:08:35 GMT 47.97272 5.87068 29,150 106 427 -1152
2018-01-11 19:08:33 GMT 47.97352 5.86663 29,175 106 427 -1152
2018-01-11 19:08:28 GMT 47.97711 5.84885 29,300 106 427 -1152
2018-01-11 19:08:25 GMT 47.97885 5.84019 29,350 106 427 -1152
2018-01-11 19:08:23 GMT 47.97917 5.83861 29,375 106 427 -1152
2018-01-11 19:08:18 GMT 47.98215 5.82358 29,475 106 428 -1152
2018-01-11 19:08:13 GMT 47.98535 5.80768 29,600 106 428 -1152
2018-01-11 19:08:06 GMT 47.98935 5.78768 29,725 106 429 -1152
2018-01-11 19:08:03 GMT 47.99070 5.78071 29,775 106 429 -1152
2018-01-11 19:07:57 GMT 47.99405 5.76405 29,900 106 430 -1152
2018-01-11 19:07:55 GMT 47.99515 5.75842 29,925 106 431 -1152
2018-01-11 19:07:54 GMT 47.99573 5.75557 29,950 106 431 -1152
2018-01-11 19:07:52 GMT 47.99685 5.75000 30,000 106 431 -1152
2018-01-11 19:07:47 GMT 47.99982 5.73500 30,100 106 432 -1088
2018-01-11 19:07:47 GMT 47.99982 5.73500 30,100 106 432 -1088
2018-01-11 19:07:45 GMT 48.00096 5.72930 30,125 106 432 -1088
2018-01-11 19:07:44 GMT 48.00118 5.72810 30,150 106 433 -1088
2018-01-11 19:07:42 GMT 48.00243 5.72176 30,175 106 433 -1088
2018-01-11 19:07:35 GMT 48.00695 5.69902 30,325 106 435 -1152
2018-01-11 19:07:33 GMT 48.00847 5.69133 30,375 106 437 -1152
2018-01-11 19:07:31 GMT 48.00874 5.68989 30,400 106 436 -1152
2018-01-11 19:07:27 GMT 48.01118 5.67782 30,475 106 439 -1152
2018-01-11 19:07:25 GMT 48.01231 5.67190 30,525 106 440 -1152
2018-01-11 19:07:23 GMT 48.01351 5.66599 30,550 106 440 -1152
2018-01-11 19:07:21 GMT 48.01501 5.65844 30,600 106 440 -1152
2018-01-11 19:07:15 GMT 48.01798 5.64359 30,725 106 440 -1088
2018-01-11 19:07:12 GMT 48.02036 5.63148 30,800 106 440 -1024
2018-01-11 19:07:10 GMT 48.02069 5.63001 30,800 106 441 -1024
2018-01-11 19:07:06 GMT 48.02339 5.61621 30,875 106 442 -768
2018-01-11 19:07:03 GMT 48.02486 5.60873 30,925 106 442 -704
2018-01-11 19:07:01 GMT 48.02673 5.59922 30,950 106 442 -128
2018-01-11 19:06:55 GMT 48.03035 5.58106 30,975 106 441 0
2018-01-11 19:06:51 GMT 48.03213 5.57197 30,975 106 441 0
2018-01-11 19:06:49 GMT 48.03274 5.56887 30,975 106 441 0
2018-01-11 19:06:45 GMT 48.03525 5.55613 30,975 106 441 -64
2018-01-11 19:06:42 GMT 48.03767 5.54377 30,975 106 441 0
2018-01-11 19:06:39 GMT 48.03888 5.53774 30,975 106 440 0
2018-01-11 19:06:35 GMT 48.04120 5.52585 30,975 106 440 0
2018-01-11 19:06:33 GMT 48.04266 5.51843 30,975 106 439 0
2018-01-11 19:06:33 GMT 48.04266 5.51843 30,975 106 439 0
2018-01-11 19:06:31 GMT 48.04359 5.51373 30,975 106 439 0
2018-01-11 19:06:28 GMT 48.04512 5.50598 30,975 106 439 0
2018-01-11 19:06:25 GMT 48.04782 5.49225 30,975 106 439 64
2018-01-11 19:06:23 GMT 48.04807 5.49104 30,975 106 440 0
2018-01-11 19:06:21 GMT 48.04992 5.48168 30,975 106 440 0
2018-01-11 19:06:19 GMT 48.05024 5.47999 30,975 106 440 0
2018-01-11 19:06:17 GMT 48.05122 5.47504 30,975 106 440 0
2018-01-11 19:06:13 GMT 48.05406 5.46063 30,975 106 440 0
2018-01-11 19:06:11 GMT 48.05457 5.45795 30,975 106 440 64
2018-01-11 19:06:09 GMT 48.05629 5.44908 30,975 106 440 0
2018-01-11 19:06:07 GMT 48.05723 5.44450 30,975 106 440 64
2018-01-11 19:06:03 GMT 48.05965 5.43205 30,975 106 440 64
2018-01-11 19:06:01 GMT 48.06114 5.42457 30,975 106 440 64
2018-01-11 19:05:58 GMT 48.06262 5.41695 30,975 106 441 0
2018-01-11 19:05:56 GMT 48.06318 5.41408 30,975 106 441 0
2018-01-11 19:05:53 GMT 48.06481 5.40548 30,975 106 441 0
2018-01-11 19:05:49 GMT 48.06714 5.39365 30,975 106 441 0
2018-01-11 19:05:47 GMT 48.06877 5.38527 30,975 106 441 64
2018-01-11 19:05:43 GMT 48.07082 5.37492 30,975 106 440 0
2018-01-11 19:05:40 GMT 48.07256 5.36579 30,975 106 440 0
2018-01-11 19:05:38 GMT 48.07411 5.35790 30,975 106 440 0
2018-01-11 19:05:36 GMT 48.07539 5.35130 30,975 106 440 0
2018-01-11 19:05:31 GMT 48.07777 5.33915 30,975 106 440 0
2018-01-11 19:05:28 GMT 48.07915 5.33201 30,975 106 439 64
2018-01-11 19:05:26 GMT 48.08029 5.32604 30,975 106 439 64
2018-01-11 19:05:22 GMT 48.08260 5.31414 30,975 105 439 64
2018-01-11 19:05:20 GMT 48.08455 5.30414 30,975 105 439 0
2018-01-11 19:05:18 GMT 48.08469 5.30324 30,950 105 439 0
2018-01-11 19:05:16 GMT 48.08618 5.29562 30,950 106 439 -64
2018-01-11 19:05:12 GMT 48.08823 5.28520 30,975 106 439 -128
2018-01-11 19:05:10 GMT 48.08967 5.27759 30,975 106 438 -128
2018-01-11 19:05:08 GMT 48.09135 5.26900 30,975 106 438 -64
2018-01-11 19:05:06 GMT 48.09195 5.26590 30,975 106 438 -64
2018-01-11 19:05:04 GMT 48.09340 5.25851 30,975 106 438 -64
2018-01-11 19:05:02 GMT 48.09425 5.25407 31,000 106 436 -64
2018-01-11 19:05:00 GMT 48.09531 5.24872 31,000 106 436 -128
2018-01-11 19:04:55 GMT 48.09810 5.23437 31,000 106 437 -64
2018-01-11 19:04:50 GMT 48.10153 5.21686 31,000 106 438 -64
2018-01-11 19:04:50 GMT 48.10153 5.21686 31,000 106 438 -64
2018-01-11 19:04:47 GMT 48.10317 5.20843 31,000 106 441 -128
2018-01-11 19:04:45 GMT 48.10350 5.20689 31,000 106 440 -128
2018-01-11 19:04:41 GMT 48.10666 5.19049 31,000 106 443 -128
2018-01-11 19:04:35 GMT 48.10941 5.17635 31,025 106 447 -448
2018-01-11 19:04:33 GMT 48.11018 5.17223 31,025 106 448 -576
2018-01-11 19:04:31 GMT 48.11165 5.16463 31,050 105 450 -768
2018-01-11 19:04:29 GMT 48.11365 5.15428 31,100 106 451 -832
2018-01-11 19:04:27 GMT 48.11397 5.15273 31,100 105 453 -832
2018-01-11 19:04:24 GMT 48.11549 5.14483 31,150 105 453 -832
2018-01-11 19:04:24 GMT 48.11581 5.14318 31,150 105 454 -832
2018-01-11 19:04:21 GMT 48.11798 5.13188 31,200 106 455 -832
2018-01-11 19:04:16 GMT 48.12007 5.12107 31,275 106 456 -832
2018-01-11 19:04:16 GMT 48.12007 5.12107 31,275 106 456 -832
2018-01-11 19:04:13 GMT 48.12186 5.11180 31,300 105 457 -832
2018-01-11 19:04:10 GMT 48.12375 5.10195 31,350 105 457 -832
2018-01-11 19:04:05 GMT 48.12729 5.08329 31,450 105 458 -832
2018-01-11 19:04:03 GMT 48.12785 5.08054 31,475 105 458 -832
2018-01-11 19:04:00 GMT 48.12989 5.06991 31,525 105 457 -832
2018-01-11 19:03:54 GMT 48.13303 5.05357 31,600 105 457 -832
2018-01-11 19:03:54 GMT 48.13303 5.05357 31,600 105 457 -832
2018-01-11 19:03:52 GMT 48.13426 5.04726 31,625 105 457 -832
2018-01-11 19:03:49 GMT 48.13609 5.03780 31,675 105 457 -832
2018-01-11 19:03:47 GMT 48.13779 5.02879 31,700 106 456 -832
2018-01-11 19:03:47 GMT 48.13779 5.02879 31,700 106 456 -832
2018-01-11 19:03:44 GMT 48.13985 5.01814 31,750 106 456 -832
2018-01-11 19:03:41 GMT 48.14069 5.01364 31,775 106 456 -832
2018-01-11 19:03:39 GMT 48.14214 5.00633 31,825 106 456 -832
2018-01-11 19:03:34 GMT 48.14474 4.99265 31,875 105 455 -832
2018-01-11 19:03:34 GMT 48.14474 4.99265 31,875 105 455 -832
2018-01-11 19:03:32 GMT 48.14595 4.98638 31,925 105 455 -832
2018-01-11 19:03:29 GMT 48.14889 4.97103 31,975 105 455 -832
2018-01-11 19:03:25 GMT 48.15005 4.96483 32,025 105 455 -832
2018-01-11 19:03:25 GMT 48.15005 4.96483 32,025 105 455 -832
2018-01-11 19:03:23 GMT 48.15207 4.95428 32,075 105 455 -896
2018-01-11 19:03:21 GMT 48.15234 4.95277 32,075 105 455 -832
2018-01-11 19:03:17 GMT 48.15440 4.94213 32,125 105 455 -832
2018-01-11 19:03:12 GMT 48.15810 4.92244 32,225 105 453 -832
2018-01-11 19:03:10 GMT 48.15885 4.91850 32,250 105 453 -896
2018-01-11 19:03:07 GMT 48.16006 4.91195 32,275 105 453 -896
2018-01-11 19:03:02 GMT 48.16360 4.89328 32,375 105 454 -832
2018-01-11 19:03:00 GMT 48.16411 4.89046 32,375 105 453 -832
2018-01-11 19:02:58 GMT 48.16593 4.88111 32,425 105 453 -832
2018-01-11 19:02:54 GMT 48.16825 4.86882 32,500 105 453 -832
2018-01-11 19:02:54 GMT 48.16825 4.86882 32,500 105 453 -832
2018-01-11 19:02:51 GMT 48.16933 4.86321 32,525 105 453 -832
2018-01-11 19:02:49 GMT 48.17047 4.85729 32,550 105 453 -832
2018-01-11 19:02:46 GMT 48.17249 4.84652 32,600 105 453 -832
2018-01-11 19:02:42 GMT 48.17458 4.83565 32,650 105 455 -832
2018-01-11 19:02:39 GMT 48.17645 4.82582 32,700 105 454 -896
2018-01-11 19:02:36 GMT 48.17817 4.81693 32,725 105 454 -832
2018-01-11 19:02:32 GMT 48.18026 4.80572 32,800 105 454 -832
2018-01-11 19:02:29 GMT 48.18222 4.79546 32,850 105 454 -896
2018-01-11 19:02:28 GMT 48.18301 4.79131 32,850 105 454 -896
2018-01-11 19:02:25 GMT 48.18436 4.78397 32,900 105 454 -768
2018-01-11 19:02:22 GMT 48.18700 4.77011 32,950 105 455 -384
2018-01-11 19:02:19 GMT 48.18809 4.76412 32,950 105 455 -128
2018-01-11 19:02:18 GMT 48.18841 4.76250 32,975 105 455 -128
2018-01-11 19:02:18 GMT 48.18841 4.76250 32,975 105 455 -128
2018-01-11 19:02:14 GMT 48.19084 4.74990 32,975 105 455 64
2018-01-11 19:02:10 GMT 48.19297 4.73850 32,975 105 456 0
2018-01-11 19:02:08 GMT 48.19474 4.72925 32,975 105 456 -64
2018-01-11 19:02:07 GMT 48.19450 4.73053 32,975 105 456 -64
2018-01-11 19:02:03 GMT 48.19716 4.71652 32,975 105 456 0
2018-01-11 19:02:01 GMT 48.19898 4.70699 32,975 105 456 0
2018-01-11 19:01:57 GMT 48.20070 4.69774 32,975 105 456 0
2018-01-11 19:01:57 GMT 48.20042 4.69918 32,975 105 456 0
2018-01-11 19:01:53 GMT 48.20288 4.68609 32,975 105 455 0
2018-01-11 19:01:51 GMT 48.20414 4.67952 32,975 105 455 0
2018-01-11 19:01:49 GMT 48.20522 4.67377 32,975 105 455 0
2018-01-11 19:01:46 GMT 48.20689 4.66493 32,975 105 455 0
2018-01-11 19:01:44 GMT 48.20805 4.65857 32,975 105 455 0
2018-01-11 19:01:36 GMT 48.21295 4.63257 32,975 105 454 64
2018-01-11 19:01:36 GMT 48.21268 4.63391 32,975 105 454 64
2018-01-11 19:01:34 GMT 48.21378 4.62820 32,975 105 454 0
2018-01-11 19:01:28 GMT 48.21707 4.61052 32,975 105 454 0
2018-01-11 19:01:26 GMT 48.21802 4.60558 32,975 105 454 0
2018-01-11 19:01:24 GMT 48.21945 4.59771 32,975 105 454 0
2018-01-11 19:01:22 GMT 48.22064 4.59144 32,975 105 454 0
2018-01-11 19:01:18 GMT 48.22279 4.57989 32,975 105 454 0
2018-01-11 19:01:15 GMT 48.22458 4.57024 32,975 105 454 0
2018-01-11 19:01:09 GMT 48.22775 4.55340 32,975 105 453 0
2018-01-11 19:01:07 GMT 48.22952 4.54376 32,975 105 453 0
2018-01-11 19:01:04 GMT 48.23112 4.53531 32,975 105 453 0
2018-01-11 19:01:02 GMT 48.23167 4.53242 32,975 105 453 0
2018-01-11 19:00:59 GMT 48.23337 4.52320 32,975 105 453 0
2018-01-11 19:00:55 GMT 48.23594 4.50960 32,975 105 453 0
2018-01-11 19:00:51 GMT 48.23795 4.49890 32,975 105 453 64
2018-01-11 19:00:49 GMT 48.23914 4.49235 32,975 105 453 64
2018-01-11 19:00:47 GMT 48.24032 4.48611 32,975 105 453 0
2018-01-11 19:00:44 GMT 48.24193 4.47735 32,975 105 453 0
2018-01-11 19:00:40 GMT 48.24472 4.46249 32,975 105 453 0
2018-01-11 19:00:33 GMT 48.24790 4.44527 32,975 105 452 0
2018-01-11 19:00:33 GMT 48.24815 4.44390 32,975 105 452 0
2018-01-11 19:00:31 GMT 48.24944 4.43696 32,975 105 452 0
2018-01-11 19:00:29 GMT 48.25030 4.43242 32,975 105 452 0
2018-01-11 19:00:23 GMT 48.25401 4.41235 32,975 105 452 0
2018-01-11 19:00:19 GMT 48.25619 4.40082 32,975 105 452 0
2018-01-11 19:00:14 GMT 48.25891 4.38608 32,975 105 452 0
2018-01-11 19:00:12 GMT 48.26001 4.38016 32,975 105 452 0
2018-01-11 19:00:09 GMT 48.26179 4.37052 32,975 105 451 0
2018-01-11 19:00:06 GMT 48.26321 4.36284 32,975 105 451 -64
2018-01-11 19:00:04 GMT 48.26477 4.35453 32,975 105 451 -64
2018-01-11 19:00:01 GMT 48.26732 4.34076 32,975 105 451 -64
2018-01-11 18:59:58 GMT 48.26787 4.33772 32,975 105 451 0
2018-01-11 18:59:53 GMT 48.27062 4.32298 32,975 105 451 0
2018-01-11 18:59:50 GMT 48.27228 4.31389 32,975 105 452 0
2018-01-11 18:59:47 GMT 48.27420 4.30354 32,975 105 452 0
2018-01-11 18:59:41 GMT 48.27699 4.28833 32,975 105 452 0
2018-01-11 18:59:38 GMT 48.27942 4.27502 32,975 105 452 0
2018-01-11 18:59:36 GMT 48.27974 4.27339 32,975 105 452 0
2018-01-11 18:59:30 GMT 48.28338 4.25337 32,975 105 453 0
2018-01-11 18:59:28 GMT 48.28413 4.24924 32,975 105 453 0
2018-01-11 18:59:25 GMT 48.28638 4.23699 32,975 105 454 0
2018-01-11 18:59:23 GMT 48.28747 4.23111 32,975 105 454 0
2018-01-11 18:59:19 GMT 48.28935 4.22072 32,975 105 454 0
2018-01-11 18:59:17 GMT 48.29082 4.21283 32,975 105 454 0
2018-01-11 18:59:15 GMT 48.29137 4.20967 32,975 105 454 0
2018-01-11 18:59:13 GMT 48.29251 4.20340 32,975 105 454 0
2018-01-11 18:59:09 GMT 48.29558 4.18685 32,975 105 455 0
2018-01-11 18:59:06 GMT 48.29678 4.18037 32,975 105 455 0
2018-01-11 18:59:04 GMT 48.29785 4.17437 32,975 105 455 0
2018-01-11 18:59:00 GMT 48.30043 4.16044 32,975 105 455 -64
2018-01-11 18:58:57 GMT 48.30181 4.15283 32,975 105 455 0
2018-01-11 18:58:55 GMT 48.30293 4.14683 32,975 105 455 64
2018-01-11 18:58:55 GMT 48.30263 4.14854 32,975 105 455 64
2018-01-11 18:58:48 GMT 48.30684 4.12565 32,975 105 455 0
2018-01-11 18:58:45 GMT 48.30826 4.11790 32,975 105 455 -64
2018-01-11 18:58:40 GMT 48.31163 4.09927 32,975 105 455 0
2018-01-11 18:58:37 GMT 48.31279 4.09290 32,975 105 455 0
2018-01-11 18:58:34 GMT 48.31438 4.08431 32,975 105 455 0
2018-01-11 18:58:30 GMT 48.31661 4.07210 32,975 105 455 64
2018-01-11 18:58:28 GMT 48.31805 4.06417 32,975 105 455 64
2018-01-11 18:58:24 GMT 48.32053 4.05056 32,975 105 456 64
2018-01-11 18:58:21 GMT 48.32160 4.04470 32,975 105 456 64
2018-01-11 18:58:18 GMT 48.32350 4.03417 32,975 105 455 -64
2018-01-11 18:58:14 GMT 48.32551 4.02324 32,975 105 455 0
2018-01-11 18:58:08 GMT 48.32941 4.00142 32,975 105 454 0
2018-01-11 18:58:06 GMT 48.33002 3.99808 32,975 105 454 0
2018-01-11 18:58:04 GMT 48.33118 3.99187 32,975 105 454 0
2018-01-11 18:58:02 GMT 48.33226 3.98594 32,975 105 454 0
2018-01-11 18:57:57 GMT 48.33545 3.96832 32,975 105 454 0
2018-01-11 18:57:53 GMT 48.33691 3.96015 32,975 105 454 0
2018-01-11 18:57:46 GMT 48.34152 3.93477 32,975 105 453 0
2018-01-11 18:57:43 GMT 48.34590 3.91056 32,975 105 453 0
2018-01-11 18:57:37 GMT 48.34697 3.90463 32,975 105 453 64
2018-01-11 18:57:34 GMT 48.34790 3.89935 32,975 105 453 0
2018-01-11 18:57:32 GMT 48.34845 3.89656 32,975 105 453 0
2018-01-11 18:57:28 GMT 48.35138 3.88008 32,975 105 452 0
2018-01-11 18:57:25 GMT 48.35251 3.87384 32,975 105 452 0
2018-01-11 18:57:22 GMT 48.35418 3.86458 32,975 105 452 0
2018-01-11 18:57:17 GMT 48.35683 3.84970 32,975 105 452 0
2018-01-11 18:57:15 GMT 48.35902 3.83784 32,975 104 452 0
2018-01-11 18:57:13 GMT 48.35930 3.83606 32,975 104 452 0
2018-01-11 18:57:11 GMT 48.36005 3.83199 32,975 104 452 0
2018-01-11 18:57:05 GMT 48.36345 3.81298 32,975 105 451 0
2018-01-11 18:57:03 GMT 48.36479 3.80564 32,975 105 451 0
2018-01-11 18:57:00 GMT 48.36598 3.79895 32,975 105 451 0
2018-01-11 18:56:57 GMT 48.36781 3.78859 32,975 105 450 0
2018-01-11 18:56:55 GMT 48.36950 3.77937 32,975 105 450 0
2018-01-11 18:56:55 GMT 48.36919 3.78092 32,975 105 451 0
2018-01-11 18:56:53 GMT 48.37024 3.77500 32,975 105 450 0
2018-01-11 18:56:49 GMT 48.37220 3.76412 32,975 105 450 0
2018-01-11 18:56:47 GMT 48.37355 3.75675 32,975 105 450 0
2018-01-11 18:56:44 GMT 48.37505 3.74831 32,975 105 450 0
2018-01-11 18:56:42 GMT 48.37596 3.74324 32,975 104 450 0
2018-01-11 18:56:40 GMT 48.37676 3.73875 32,975 105 450 0
2018-01-11 18:56:34 GMT 48.38062 3.71721 32,975 104 450 0
2018-01-11 18:56:31 GMT 48.38174 3.71078 32,975 104 450 0
2018-01-11 18:56:29 GMT 48.38310 3.70317 32,975 104 450 0
2018-01-11 18:56:25 GMT 48.38521 3.69155 32,975 104 450 0
2018-01-11 18:56:22 GMT 48.38704 3.68120 32,975 104 450 0
2018-01-11 18:56:20 GMT 48.38821 3.67464 32,975 104 450 0
2018-01-11 18:56:14 GMT 48.39084 3.65986 32,975 104 451 0
2018-01-11 18:56:12 GMT 48.39212 3.65252 32,975 104 451 0
2018-01-11 18:56:10 GMT 48.39291 3.64818 32,975 104 451 0
2018-01-11 18:56:07 GMT 48.39459 3.63859 32,975 104 451 0
2018-01-11 18:56:05 GMT 48.39597 3.63112 32,975 104 451 0
2018-01-11 18:56:02 GMT 48.39748 3.62246 32,975 104 451 0
2018-01-11 18:56:00 GMT 48.39871 3.61549 32,975 104 451 0
2018-01-11 18:55:57 GMT 48.40041 3.60605 32,975 104 451 0
2018-01-11 18:55:55 GMT 48.40120 3.60171 32,975 104 451 0
2018-01-11 18:55:52 GMT 48.40315 3.59072 32,975 104 451 64
2018-01-11 18:55:52 GMT 48.40315 3.59072 32,975 104 451 64
2018-01-11 18:55:50 GMT 48.40375 3.58739 32,975 104 451 64
2018-01-11 18:55:47 GMT 48.40599 3.57475 32,975 104 451 0
2018-01-11 18:55:42 GMT 48.40851 3.56044 32,975 104 452 0
2018-01-11 18:55:40 GMT 48.40929 3.55598 32,975 104 452 0
2018-01-11 18:55:38 GMT 48.41107 3.54613 32,975 104 452 0
2018-01-11 18:55:34 GMT 48.41246 3.53825 32,975 104 452 64
2018-01-11 18:55:32 GMT 48.41377 3.53063 32,975 104 452 64
2018-01-11 18:55:30 GMT 48.41484 3.52473 32,975 104 452 0
2018-01-11 18:55:26 GMT 48.41703 3.51252 32,975 100 451 0
2018-01-11 18:55:24 GMT 48.41866 3.50326 32,975 104 452 0
2018-01-11 18:55:22 GMT 48.41940 3.49907 32,975 104 452 0
2018-01-11 18:55:20 GMT 48.42018 3.49450 32,975 104 452 0
2018-01-11 18:55:17 GMT 48.42238 3.48209 32,975 104 452 0
2018-01-11 18:55:14 GMT 48.42320 3.47760 32,975 104 452 0
2018-01-11 18:55:11 GMT 48.42508 3.46684 32,975 104 452 0
2018-01-11 18:55:09 GMT 48.42586 3.46252 32,975 104 452 0
2018-01-11 18:55:06 GMT 48.42773 3.45203 32,975 104 452 64
2018-01-11 18:55:04 GMT 48.42879 3.44619 32,975 104 452 0
2018-01-11 18:55:01 GMT 48.43043 3.43691 32,975 104 453 0
2018-01-11 18:54:59 GMT 48.43155 3.43063 32,975 104 453 0
2018-01-11 18:54:55 GMT 48.43327 3.42072 32,975 104 452 0
2018-01-11 18:54:50 GMT 48.43639 3.40301 32,975 104 452 0
2018-01-11 18:54:48 GMT 48.43799 3.39379 32,975 103 452 0
2018-01-11 18:54:46 GMT 48.43831 3.39210 32,975 102 452 0
2018-01-11 18:54:44 GMT 48.43979 3.38285 32,975 101 451 0
2018-01-11 18:54:41 GMT 48.44058 3.37793 32,975 100 451 0
2018-01-11 18:54:39 GMT 48.44161 3.37090 32,975 100 451 0
2018-01-11 18:54:37 GMT 48.44244 3.36485 32,975 100 451 0
2018-01-11 18:54:34 GMT 48.44361 3.35546 32,975 100 451 0
2018-01-11 18:54:31 GMT 48.44473 3.34606 32,975 100 450 0
2018-01-11 18:54:29 GMT 48.44566 3.33818 32,975 100 450 0
2018-01-11 18:54:27 GMT 48.44623 3.33351 32,975 100 450 0
2018-01-11 18:54:25 GMT 48.44673 3.32900 32,975 100 450 0
2018-01-11 18:54:23 GMT 48.44810 3.31759 32,975 100 450 0
2018-01-11 18:54:21 GMT 48.44887 3.31137 32,975 100 451 -64
2018-01-11 18:54:19 GMT 48.44952 3.30562 32,975 100 451 -64
2018-01-11 18:54:17 GMT 48.45026 3.29956 32,975 100 451 -64
2018-01-11 18:54:16 GMT 48.45062 3.29653 32,975 100 450 -64
2018-01-11 18:54:16 GMT 48.45041 3.29828 32,975 100 450 -64
2018-01-11 18:54:13 GMT 48.45138 3.29033 32,975 100 451 -64
2018-01-11 18:54:08 GMT 48.45341 3.27294 32,975 100 451 0
2018-01-11 18:54:06 GMT 48.45394 3.26858 32,975 100 451 0
2018-01-11 18:54:03 GMT 48.45501 3.25954 32,975 100 451 0
2018-01-11 18:54:00 GMT 48.45616 3.24970 32,975 100 451 0
2018-01-11 18:53:57 GMT 48.45726 3.24054 32,975 100 452 0
2018-01-11 18:53:55 GMT 48.45808 3.23336 32,975 100 452 0
2018-01-11 18:53:52 GMT 48.45932 3.22315 32,975 100 453 0
2018-01-11 18:53:49 GMT 48.46010 3.21660 32,975 100 453 0
2018-01-11 18:53:47 GMT 48.46083 3.21026 32,975 100 453 0
2018-01-11 18:53:44 GMT 48.46198 3.20082 32,975 100 454 64
2018-01-11 18:53:44 GMT 48.46198 3.20082 32,975 100 454 64
2018-01-11 18:53:41 GMT 48.46311 3.19124 32,975 100 454 0
2018-01-11 18:53:39 GMT 48.46390 3.18449 32,975 100 454 0
2018-01-11 18:53:36 GMT 48.46509 3.17456 32,975 100 455 0
2018-01-11 18:53:34 GMT 48.46568 3.16977 32,975 100 455 64
2018-01-11 18:53:32 GMT 48.46660 3.16209 32,975 100 455 0
2018-01-11 18:53:29 GMT 48.46742 3.15533 32,975 95 453 0
2018-01-11 18:53:27 GMT 48.46842 3.14693 32,975 100 455 0
2018-01-11 18:53:27 GMT 48.46842 3.14693 32,975 100 455 0
2018-01-11 18:53:24 GMT 48.46959 3.13761 32,975 100 455 0
2018-01-11 18:53:21 GMT 48.47135 3.12250 32,975 98 455 64
2018-01-11 18:53:18 GMT 48.47159 3.12054 32,975 98 455 64
2018-01-11 18:53:15 GMT 48.47250 3.11145 32,975 97 454 64
2018-01-11 18:53:12 GMT 48.47336 3.10234 32,950 94 453 0
2018-01-11 18:53:10 GMT 48.47401 3.09399 32,950 95 453 0
2018-01-11 18:53:08 GMT 48.47434 3.08934 32,975 94 453 0
2018-01-11 18:53:06 GMT 48.47485 3.08138 32,975 94 453 0
2018-01-11 18:53:06 GMT 48.47485 3.08138 32,975 94 453 0
2018-01-11 18:53:04 GMT 48.47526 3.07357 32,975 93 451 -64
2018-01-11 18:53:01 GMT 48.47557 3.06575 32,975 91 451 -64
2018-01-11 18:52:58 GMT 48.47573 3.05825 32,975 90 451 0
2018-01-11 18:52:56 GMT 48.47580 3.04892 32,975 89 450 0
2018-01-11 18:52:56 GMT 48.47580 3.04892 32,975 89 450 0
2018-01-11 18:52:53 GMT 48.47580 3.04279 32,975 89 450 0
2018-01-11 18:52:51 GMT 48.47557 3.03293 32,975 87 448 0
2018-01-11 18:52:48 GMT 48.47530 3.02328 32,975 87 448 0
2018-01-11 18:52:44 GMT 48.47489 3.01199 32,975 87 448 0
2018-01-11 18:52:42 GMT 48.47471 3.00642 32,975 87 448 0
2018-01-11 18:52:40 GMT 48.47447 2.99990 32,975 87 448 0
2018-01-11 18:52:38 GMT 48.47429 2.99349 32,975 87 448 0
2018-01-11 18:52:34 GMT 48.47391 2.98243 32,975 87 447 0
2018-01-11 18:52:31 GMT 48.47356 2.97187 32,975 87 447 0
2018-01-11 18:52:28 GMT 48.47324 2.96307 32,975 87 447 0
2018-01-11 18:52:24 GMT 48.47278 2.95004 32,975 87 447 -64
2018-01-11 18:52:20 GMT 48.47241 2.93891 32,975 87 447 0
2018-01-11 18:52:20 GMT 48.47241 2.93891 32,975 87 447 -64
2018-01-11 18:52:18 GMT 48.47214 2.93138 32,975 87 447 0
2018-01-11 18:52:14 GMT 48.47168 2.91824 32,975 87 446 0
2018-01-11 18:52:12 GMT 48.47154 2.91499 32,975 87 446 0
2018-01-11 18:52:10 GMT 48.47126 2.90617 32,975 87 446 0
2018-01-11 18:52:08 GMT 48.47104 2.90011 32,975 87 446 0
2018-01-11 18:52:04 GMT 48.47056 2.88724 32,975 87 446 0
2018-01-11 18:52:00 GMT 48.47012 2.87483 32,975 87 446 0
2018-01-11 18:51:57 GMT 48.46991 2.86779 32,975 87 446 0
2018-01-11 18:51:55 GMT 48.46963 2.85992 32,975 87 445 0
2018-01-11 18:51:53 GMT 48.46939 2.85370 32,975 87 445 0
2018-01-11 18:51:51 GMT 48.46917 2.84719 32,975 87 445 0
2018-01-11 18:51:49 GMT 48.46893 2.84095 32,975 87 445 0
2018-01-11 18:51:47 GMT 48.46879 2.83664 32,975 87 445 0
2018-01-11 18:51:44 GMT 48.46833 2.82356 32,975 87 445 0
2018-01-11 18:51:42 GMT 48.46806 2.81708 32,975 87 445 0
2018-01-11 18:51:39 GMT 48.46774 2.80799 32,975 87 445 0
2018-01-11 18:51:37 GMT 48.46765 2.80468 32,975 87 445 0
2018-01-11 18:51:35 GMT 48.46747 2.79961 32,975 87 445 0
2018-01-11 18:51:33 GMT 48.46719 2.79180 32,975 86 444 -64
2018-01-11 18:51:28 GMT 48.46655 2.77362 32,975 86 444 -64
2018-01-11 18:51:26 GMT 48.46647 2.77224 32,975 86 444 -64
2018-01-11 18:51:24 GMT 48.46628 2.76602 32,975 86 444 0
2018-01-11 18:51:22 GMT 48.46596 2.75764 32,975 86 444 0
2018-01-11 18:51:18 GMT 48.46550 2.74475 32,975 86 444 0
2018-01-11 18:51:16 GMT 48.46535 2.74029 32,975 86 444 0
2018-01-11 18:51:14 GMT 48.46500 2.73102 32,975 86 443 0
2018-01-11 18:51:12 GMT 48.46477 2.72510 32,975 86 443 0
2018-01-11 18:51:06 GMT 48.46417 2.70919 32,975 86 443 0
2018-01-11 18:51:04 GMT 48.46386 2.70025 32,975 86 443 0
2018-01-11 18:51:02 GMT 48.46377 2.69729 32,975 86 443 64
2018-01-11 18:51:02 GMT 48.46377 2.69729 32,975 86 443 64
2018-01-11 18:50:59 GMT 48.46316 2.68165 32,975 86 443 0
2018-01-11 18:50:56 GMT 48.46293 2.67553 32,975 86 443 0
2018-01-11 18:50:51 GMT 48.46248 2.66327 32,975 86 442 0
2018-01-11 18:50:49 GMT 48.46195 2.64850 32,975 86 442 0
2018-01-11 18:50:46 GMT 48.46188 2.64672 32,975 86 442 0
2018-01-11 18:50:43 GMT 48.46147 2.63559 32,975 86 442 0
2018-01-11 18:50:41 GMT 48.46133 2.63235 32,975 86 442 0
2018-01-11 18:50:41 GMT 48.46133 2.63235 32,975 86 442 0
2018-01-11 18:50:41 GMT 48.46133 2.63235 32,975 86 442 0
2018-01-11 18:50:37 GMT 48.46097 2.62176 32,975 86 442 0
2018-01-11 18:50:35 GMT 48.46069 2.61504 32,975 86 441 0
2018-01-11 18:50:32 GMT 48.46023 2.60311 32,975 86 441 0
2018-01-11 18:50:30 GMT 48.46014 2.59986 32,975 86 441 0
2018-01-11 18:50:30 GMT 48.46014 2.59986 32,975 86 441 0
2018-01-11 18:50:27 GMT 48.45981 2.59068 32,975 86 441 0
2018-01-11 18:50:25 GMT 48.45946 2.58249 32,975 86 441 0
2018-01-11 18:50:21 GMT 48.45892 2.56813 32,975 86 443 0
2018-01-11 18:50:21 GMT 48.45900 2.56939 32,975 86 441 0
2018-01-11 18:50:20 GMT 48.45900 2.56939 32,975 86 441 0
2018-01-11 18:50:19 GMT 48.45878 2.56357 32,975 86 441 0
2018-01-11 18:50:17 GMT 48.45859 2.55848 32,975 86 441 0
2018-01-11 18:50:15 GMT 48.45831 2.55221 32,975 86 441 0
2018-01-11 18:50:13 GMT 48.45790 2.54109 32,975 86 441 0
2018-01-11 18:50:07 GMT 48.45734 2.52722 32,975 86 441 0
2018-01-11 18:50:05 GMT 48.45712 2.52094 32,975 86 442 -64
2018-01-11 18:50:03 GMT 48.45699 2.51770 32,975 86 442 -64
2018-01-11 18:50:01 GMT 48.45669 2.50908 32,975 86 442 0
2018-01-11 18:49:59 GMT 48.45650 2.50452 32,975 86 442 0
2018-01-11 18:49:57 GMT 48.45616 2.49538 32,975 86 442 0
2018-01-11 18:49:53 GMT 48.45576 2.48537 32,975 86 442 0
2018-01-11 18:49:49 GMT 48.45525 2.47249 32,975 86 443 0
2018-01-11 18:49:47 GMT 48.45502 2.46622 32,975 86 443 0
2018-01-11 18:49:45 GMT 48.45483 2.46188 32,975 86 443 0
2018-01-11 18:49:43 GMT 48.45450 2.45342 32,975 86 443 0
2018-01-11 18:49:39 GMT 48.45410 2.44291 32,975 86 444 -64
2018-01-11 18:49:37 GMT 48.45366 2.43167 32,975 86 444 -64
2018-01-11 18:49:34 GMT 48.45334 2.42379 32,975 86 444 0
2018-01-11 18:49:32 GMT 48.45329 2.42205 32,975 86 444 -64
2018-01-11 18:49:29 GMT 48.45287 2.41128 32,975 86 444 0
2018-01-11 18:49:26 GMT 48.45250 2.40157 32,975 86 445 0
2018-01-11 18:49:23 GMT 48.45213 2.39185 32,975 86 445 0
2018-01-11 18:49:21 GMT 48.45199 2.38830 32,975 86 445 0
2018-01-11 18:49:18 GMT 48.45154 2.37727 32,975 86 445 64
2018-01-11 18:49:18 GMT 48.45154 2.37727 32,975 86 445 64
2018-01-11 18:49:15 GMT 48.45115 2.36777 32,975 86 445 0
2018-01-11 18:49:13 GMT 48.45092 2.36112 32,975 86 445 0
2018-01-11 18:49:11 GMT 48.45059 2.35281 32,975 86 445 0
2018-01-11 18:49:06 GMT 48.45012 2.34058 32,975 86 446 0
2018-01-11 18:49:02 GMT 48.44952 2.32657 32,975 86 446 0
2018-01-11 18:48:59 GMT 48.44920 2.31754 32,975 86 446 0
2018-01-11 18:48:57 GMT 48.44893 2.31142 32,975 86 446 0
2018-01-11 18:48:53 GMT 48.44831 2.29564 32,975 86 446 0
2018-01-11 18:48:51 GMT 48.44810 2.29079 32,975 86 446 0
2018-01-11 18:48:48 GMT 48.44770 2.28031 32,975 86 446 0
2018-01-11 18:48:45 GMT 48.44733 2.27099 32,975 86 446 0
2018-01-11 18:48:42 GMT 48.44701 2.26326 32,975 86 446 0
2018-01-11 18:48:40 GMT 48.44682 2.25885 32,975 86 446 0
2018-01-11 18:48:38 GMT 48.44664 2.25429 32,975 86 446 0
2018-01-11 18:48:36 GMT 48.44632 2.24628 32,975 86 446 0
2018-01-11 18:48:34 GMT 48.44600 2.23818 32,975 86 446 64
2018-01-11 18:48:31 GMT 48.44572 2.23163 32,975 86 446 0
2018-01-11 18:48:29 GMT 48.44545 2.22459 32,975 86 446 -64
2018-01-11 18:48:29 GMT 48.44550 2.22593 32,975 86 446 -64
2018-01-11 18:48:27 GMT 48.44513 2.21656 32,975 86 446 0
2018-01-11 18:48:23 GMT 48.44476 2.20846 32,975 86 446 64
2018-01-11 18:48:20 GMT 48.44440 2.19900 32,975 86 446 64
2018-01-11 18:48:18 GMT 48.44394 2.18804 32,975 86 446 0
2018-01-11 18:48:16 GMT 48.44365 2.18165 32,975 86 446 0
2018-01-11 18:48:13 GMT 48.44328 2.17313 32,975 86 446 0
2018-01-11 18:48:13 GMT 48.44328 2.17313 32,975 86 446 0
2018-01-11 18:48:10 GMT 48.44307 2.16719 32,975 86 445 0
2018-01-11 18:48:08 GMT 48.44279 2.16079 32,975 86 445 0
2018-01-11 18:48:05 GMT 48.44224 2.14818 32,975 86 445 0
2018-01-11 18:48:03 GMT 48.44212 2.14450 32,975 86 445 0
2018-01-11 18:48:03 GMT 48.44212 2.14450 32,975 86 445 0
2018-01-11 18:48:00 GMT 48.44161 2.13229 32,975 86 445 0
2018-01-11 18:47:57 GMT 48.44142 2.12730 32,975 86 445 0
2018-01-11 18:47:55 GMT 48.44105 2.11945 32,975 86 445 0
2018-01-11 18:47:52 GMT 48.44044 2.10453 32,975 86 445 -64
2018-01-11 18:47:49 GMT 48.44035 2.10157 32,975 86 445 0
2018-01-11 18:47:46 GMT 48.43986 2.09015 32,975 86 445 0
2018-01-11 18:47:44 GMT 48.43965 2.08545 32,975 86 445 0
2018-01-11 18:47:39 GMT 48.43905 2.07078 32,975 86 445 0
2018-01-11 18:47:36 GMT 48.43845 2.05641 32,975 86 445 0
2018-01-11 18:47:36 GMT 48.43863 2.06131 32,975 86 445 0
2018-01-11 18:47:34 GMT 48.43835 2.05487 32,975 86 445 0
2018-01-11 18:47:30 GMT 48.43785 2.04275 32,975 86 445 0
2018-01-11 18:47:28 GMT 48.43767 2.03839 32,975 86 445 0
2018-01-11 18:47:26 GMT 48.43721 2.02803 32,975 86 445 0
2018-01-11 18:47:24 GMT 48.43700 2.02329 32,975 86 445 0
2018-01-11 18:47:19 GMT 48.43648 2.01071 32,975 86 445 0
2018-01-11 18:47:17 GMT 48.43611 2.00254 32,975 86 445 0
2018-01-11 18:47:14 GMT 48.43560 1.98961 32,975 86 445 0
2018-01-11 18:47:08 GMT 48.43483 1.97212 32,975 86 445 0
2018-01-11 18:47:06 GMT 48.43478 1.97050 32,975 86 445 0
2018-01-11 18:47:03 GMT 48.43428 1.95867 32,975 86 445 0
2018-01-11 18:46:59 GMT 48.43374 1.94624 32,975 86 445 0
2018-01-11 18:46:56 GMT 48.43327 1.93562 32,975 86 445 0
2018-01-11 18:46:54 GMT 48.43309 1.93114 32,975 86 445 -64
2018-01-11 18:46:52 GMT 48.43286 1.92622 32,975 86 445 0
2018-01-11 18:46:48 GMT 48.43227 1.91254 32,975 86 444 0
2018-01-11 18:46:44 GMT 48.43174 1.89998 32,975 86 444 0
2018-01-11 18:46:42 GMT 48.43144 1.89366 32,975 86 444 0
2018-01-11 18:46:38 GMT 48.43076 1.87817 32,975 86 444 0
2018-01-11 18:46:34 GMT 48.43030 1.86804 32,975 86 445 0
2018-01-11 18:46:32 GMT 48.43012 1.86331 32,975 86 445 0
2018-01-11 18:46:28 GMT 48.42955 1.85098 32,975 86 445 -64
2018-01-11 18:46:25 GMT 48.42922 1.84296 32,975 86 445 -64
2018-01-11 18:46:22 GMT 48.42860 1.82901 32,975 86 445 64
2018-01-11 18:46:19 GMT 48.42825 1.82091 32,975 86 445 -64
2018-01-11 18:46:16 GMT 48.42769 1.80852 32,975 86 445 0
2018-01-11 18:46:11 GMT 48.42723 1.79774 32,975 86 445 0
2018-01-11 18:46:06 GMT 48.42657 1.78369 32,975 86 446 0
2018-01-11 18:46:01 GMT 48.42567 1.76394 32,975 86 446 -64
2018-01-11 18:45:56 GMT 48.42513 1.75133 32,975 86 446 0
2018-01-11 18:45:49 GMT 48.42424 1.73194 32,975 86 446 0
2018-01-11 18:45:47 GMT 48.42392 1.72413 32,975 86 446 0
2018-01-11 18:45:44 GMT 48.42361 1.71690 32,975 86 447 0
2018-01-11 18:45:40 GMT 48.42289 1.70151 32,975 86 448 0
2018-01-11 18:45:35 GMT 48.42233 1.68850 32,975 86 448 0
2018-01-11 18:45:31 GMT 48.42165 1.67379 32,975 86 448 -64
2018-01-11 18:45:29 GMT 48.42137 1.66767 32,975 86 448 -64
2018-01-11 18:45:24 GMT 48.42080 1.65482 32,975 86 448 -64
2018-01-11 18:45:24 GMT 48.42080 1.65482 32,975 86 448 -64
2018-01-11 18:45:19 GMT 48.41995 1.63725 32,975 86 448 0
2018-01-11 18:45:14 GMT 48.41931 1.62302 32,975 86 448 0
2018-01-11 18:45:11 GMT 48.41881 1.61182 32,975 86 448 0
2018-01-11 18:45:08 GMT 48.41852 1.60530 32,975 86 448 0
2018-01-11 18:45:04 GMT 48.41780 1.59048 32,975 86 448 0
2018-01-11 18:45:02 GMT 48.41757 1.58548 32,975 86 448 0
2018-01-11 18:44:59 GMT 48.41698 1.57309 32,975 86 449 0
2018-01-11 18:44:53 GMT 48.41624 1.55659 32,975 86 449 -64
2018-01-11 18:44:48 GMT 48.41551 1.54104 32,975 86 449 -64
2018-01-11 18:44:43 GMT 48.41478 1.52534 32,975 86 450 64
2018-01-11 18:44:38 GMT 48.41391 1.50693 32,975 85 450 0
2018-01-11 18:44:34 GMT 48.41327 1.49421 32,975 85 450 0
2018-01-11 18:44:31 GMT 48.41298 1.48800 32,975 85 450 0
2018-01-11 18:44:27 GMT 48.41240 1.47569 32,975 85 450 0
2018-01-11 18:44:27 GMT 48.41240 1.47569 32,975 85 450 0
2018-01-11 18:44:24 GMT 48.41194 1.46639 32,975 85 450 -64
2018-01-11 18:44:22 GMT 48.41172 1.46169 32,975 85 450 -64
2018-01-11 18:44:20 GMT 48.41144 1.45569 32,975 85 450 0
2018-01-11 18:44:17 GMT 48.41098 1.44593 32,975 85 450 64
2018-01-11 18:44:15 GMT 48.41061 1.43787 32,975 85 450 0
2018-01-11 18:44:11 GMT 48.41011 1.42752 32,975 85 450 -64
2018-01-11 18:44:07 GMT 48.40925 1.40979 32,975 85 450 64
2018-01-11 18:44:04 GMT 48.40902 1.40495 32,975 85 450 64
2018-01-11 18:44:02 GMT 48.40865 1.39702 32,975 85 450 0
2018-01-11 18:44:00 GMT 48.40841 1.39223 32,975 85 449 -64
2018-01-11 18:43:55 GMT 48.40768 1.37716 32,975 85 449 -64
2018-01-11 18:43:52 GMT 48.40697 1.36165 32,975 85 449 0
2018-01-11 18:43:50 GMT 48.40695 1.36139 32,975 85 449 0
2018-01-11 18:43:46 GMT 48.40626 1.34723 32,975 85 449 0
2018-01-11 18:43:44 GMT 48.40604 1.34273 32,975 85 449 0
2018-01-11 18:43:40 GMT 48.40544 1.32956 32,975 85 449 -64
2018-01-11 18:43:36 GMT 48.40460 1.31279 32,975 85 449 0
2018-01-11 18:43:34 GMT 48.40453 1.31132 32,975 85 449 0
2018-01-11 18:43:32 GMT 48.40420 1.30526 32,975 85 449 0
2018-01-11 18:43:30 GMT 48.40390 1.29848 32,975 85 449 0
2018-01-11 18:43:27 GMT 48.40343 1.28906 32,975 85 449 0
2018-01-11 18:43:25 GMT 48.40306 1.28188 32,975 85 449 0
2018-01-11 18:43:24 GMT 48.40274 1.27550 32,975 85 449 -64
2018-01-11 18:43:23 GMT 48.40270 1.27427 32,975 85 449 -64
2018-01-11 18:43:21 GMT 48.40255 1.27109 32,975 85 449 0
2018-01-11 18:43:19 GMT 48.40205 1.26167 32,975 85 449 64
2018-01-11 18:43:17 GMT 48.40190 1.25822 32,975 85 450 0
2018-01-11 18:43:15 GMT 48.40139 1.24767 32,975 85 450 -64
2018-01-11 18:43:13 GMT 48.40129 1.24601 32,975 85 450 -64
2018-01-11 18:43:11 GMT 48.40101 1.24015 32,975 85 450 64
2018-01-11 18:43:09 GMT 48.40073 1.23444 32,975 85 450 0
2018-01-11 18:43:06 GMT 48.40022 1.22469 32,975 85 450 64
2018-01-11 18:43:04 GMT 48.39986 1.21709 32,975 85 450 64
2018-01-11 18:43:02 GMT 48.39963 1.21209 32,975 85 450 0
2018-01-11 18:43:00 GMT 48.39912 1.20244 32,975 85 450 -64
2018-01-11 18:43:00 GMT 48.39906 1.20076 32,975 85 450 0
2018-01-11 18:42:57 GMT 48.39878 1.19563 32,975 85 450 -64
2018-01-11 18:42:54 GMT 48.39813 1.18269 32,975 85 450 64
2018-01-11 18:42:52 GMT 48.39799 1.17930 32,975 85 451 64
2018-01-11 18:42:48 GMT 48.39734 1.16643 32,975 85 451 -64
2018-01-11 18:42:44 GMT 48.39668 1.15320 32,975 85 451 -64
2018-01-11 18:42:42 GMT 48.39654 1.15046 32,975 85 451 -64
2018-01-11 18:42:40 GMT 48.39610 1.14103 32,975 85 451 -64
2018-01-11 18:42:37 GMT 48.39569 1.13335 32,975 85 451 0
2018-01-11 18:42:35 GMT 48.39528 1.12525 32,975 85 452 0
2018-01-11 18:42:32 GMT 48.39482 1.11624 32,975 85 451 0
2018-01-11 18:42:29 GMT 48.39436 1.10680 32,975 85 451 0
2018-01-11 18:42:26 GMT 48.39404 1.10039 32,975 85 451 0
2018-01-11 18:42:22 GMT 48.39326 1.08490 32,975 85 452 0
2018-01-11 18:42:20 GMT 48.39301 1.07977 32,975 85 452 0
2018-01-11 18:42:16 GMT 48.39217 1.06321 32,975 85 452 0
2018-01-11 18:42:14 GMT 48.39198 1.06011 32,975 85 452 0
2018-01-11 18:42:12 GMT 48.39157 1.05215 32,975 85 452 0
2018-01-11 18:42:09 GMT 48.39134 1.04729 32,975 85 452 0
2018-01-11 18:42:07 GMT 48.39102 1.04074 32,975 85 452 0
2018-01-11 18:42:05 GMT 48.39066 1.03391 32,975 85 452 0
2018-01-11 18:42:02 GMT 48.39007 1.02310 32,975 85 452 0
2018-01-11 18:42:00 GMT 48.38942 1.01074 32,975 85 452 0
2018-01-11 18:41:54 GMT 48.38882 0.99831 32,975 85 451 0
2018-01-11 18:41:51 GMT 48.38841 0.98997 32,975 85 451 64
2018-01-11 18:41:49 GMT 48.38802 0.98277 32,975 85 451 0
2018-01-11 18:41:45 GMT 48.38722 0.96715 32,975 85 451 64
2018-01-11 18:41:42 GMT 48.38672 0.95757 32,975 85 451 0
2018-01-11 18:41:40 GMT 48.38658 0.95458 32,975 85 451 0
2018-01-11 18:41:38 GMT 48.38607 0.94497 32,975 85 451 -64
2018-01-11 18:41:35 GMT 48.38570 0.93854 32,975 85 451 -64
2018-01-11 18:41:32 GMT 48.38519 0.92885 32,975 85 451 0
2018-01-11 18:41:30 GMT 48.38484 0.92250 32,975 85 451 0
2018-01-11 18:41:28 GMT 48.38430 0.91208 32,975 85 451 0
2018-01-11 18:41:26 GMT 48.38407 0.90753 32,975 85 451 0
2018-01-11 18:41:23 GMT 48.38356 0.89764 32,975 85 450 0
2018-01-11 18:41:20 GMT 48.38314 0.88982 32,975 85 450 0
2018-01-11 18:41:18 GMT 48.38287 0.88517 32,975 85 450 0
2018-01-11 18:41:15 GMT 48.38230 0.87334 32,975 85 450 0
2018-01-11 18:41:13 GMT 48.38209 0.87017 32,975 85 450 0
2018-01-11 18:41:11 GMT 48.38169 0.86199 32,975 85 450 0
2018-01-11 18:41:09 GMT 48.38151 0.85867 32,975 85 450 0
2018-01-11 18:41:07 GMT 48.38109 0.85101 32,975 85 450 0
2018-01-11 18:41:04 GMT 48.38067 0.84241 32,975 85 450 0
2018-01-11 18:41:02 GMT 48.38034 0.83670 32,975 85 449 0
2018-01-11 18:41:00 GMT 48.37993 0.82867 32,975 85 450 0
2018-01-11 18:40:58 GMT 48.37974 0.82549 32,975 85 450 0
2018-01-11 18:40:56 GMT 48.37935 0.81785 32,975 85 449 0
2018-01-11 18:40:54 GMT 48.37899 0.81118 32,975 85 449 0
2018-01-11 18:40:51 GMT 48.37848 0.80151 32,975 85 449 0
2018-01-11 18:40:49 GMT 48.37811 0.79477 32,975 85 449 0
2018-01-11 18:40:47 GMT 48.37783 0.78979 32,975 85 449 0
2018-01-11 18:40:45 GMT 48.37743 0.78186 32,975 85 449 0
2018-01-11 18:40:43 GMT 48.37727 0.77844 32,975 85 449 0
2018-01-11 18:40:40 GMT 48.37643 0.76254 32,975 85 448 0
2018-01-11 18:40:37 GMT 48.37619 0.75862 32,975 85 448 -64
2018-01-11 18:40:35 GMT 48.37588 0.75249 32,975 85 448 0
2018-01-11 18:40:31 GMT 48.37522 0.74042 32,975 85 447 -64
2018-01-11 18:40:28 GMT 48.37454 0.72792 32,975 85 447 64
2018-01-11 18:40:25 GMT 48.37401 0.71852 32,975 85 447 0
2018-01-11 18:40:22 GMT 48.37353 0.70953 32,975 85 447 0
2018-01-11 18:40:17 GMT 48.37271 0.69387 32,975 85 447 -64
2018-01-11 18:40:15 GMT 48.37262 0.69228 32,975 85 447 -64
2018-01-11 18:40:13 GMT 48.37201 0.68130 32,975 85 448 0
2018-01-11 18:40:09 GMT 48.37127 0.66771 32,975 85 448 0
2018-01-11 18:40:06 GMT 48.37093 0.66157 32,975 85 448 -64
2018-01-11 18:40:04 GMT 48.37052 0.65419 32,975 85 448 0
2018-01-11 18:40:02 GMT 48.37038 0.65080 32,975 85 448 0
2018-01-11 18:39:58 GMT 48.36964 0.63793 32,975 85 448 0
2018-01-11 18:39:56 GMT 48.36923 0.63038 32,975 85 448 -64
2018-01-11 18:39:54 GMT 48.36894 0.62492 32,975 85 448 -64
2018-01-11 18:39:52 GMT 48.36859 0.61798 32,975 85 448 0
2018-01-11 18:39:50 GMT 48.36824 0.61148 32,975 85 448 0
2018-01-11 18:39:48 GMT 48.36791 0.60502 32,975 85 448 0
2018-01-11 18:39:45 GMT 48.36758 0.59897 32,975 85 448 -64
2018-01-11 18:39:43 GMT 48.36722 0.59242 32,975 85 448 -64
2018-01-11 18:39:40 GMT 48.36638 0.57743 32,975 85 448 64
2018-01-11 18:39:38 GMT 48.36615 0.57324 32,975 85 448 0
2018-01-11 18:39:35 GMT 48.36557 0.56326 32,975 85 448 -64
2018-01-11 18:39:33 GMT 48.36539 0.56002 32,975 85 448 -64
2018-01-11 18:39:30 GMT 48.36498 0.55242 32,975 85 448 0
2018-01-11 18:39:28 GMT 48.36461 0.54601 32,975 85 448 64
2018-01-11 18:39:26 GMT 48.36424 0.53963 32,975 85 448 0
2018-01-11 18:39:24 GMT 48.36386 0.53298 32,975 85 448 0
2018-01-11 18:39:22 GMT 48.36333 0.52368 32,975 85 448 0
2018-01-11 18:39:16 GMT 48.36246 0.50727 32,975 85 449 0
2018-01-11 18:39:14 GMT 48.36205 0.50074 32,975 85 449 0
2018-01-11 18:39:12 GMT 48.36172 0.49424 32,975 85 449 0
2018-01-11 18:39:07 GMT 48.36095 0.48072 32,975 85 449 0
2018-01-11 18:39:05 GMT 48.36044 0.47164 32,975 85 449 0
2018-01-11 18:39:02 GMT 48.36009 0.46533 32,975 85 449 0
2018-01-11 18:39:00 GMT 48.35976 0.45882 32,975 85 449 0
2018-01-11 18:38:58 GMT 48.35921 0.44959 32,975 85 449 0
2018-01-11 18:38:56 GMT 48.35893 0.44393 32,975 85 449 0
2018-01-11 18:38:53 GMT 48.35838 0.43509 32,975 85 449 0
2018-01-11 18:38:51 GMT 48.35814 0.43027 32,975 85 449 -64
2018-01-11 18:38:48 GMT 48.35749 0.41943 32,975 85 449 0
2018-01-11 18:38:45 GMT 48.35702 0.41105 32,975 85 448 64
2018-01-11 18:38:43 GMT 48.35656 0.40317 32,975 85 448 0
2018-01-11 18:38:41 GMT 48.35637 0.40002 32,975 85 448 0
2018-01-11 18:38:36 GMT 48.35527 0.38016 32,975 85 448 0
2018-01-11 18:38:34 GMT 48.35500 0.37572 32,975 85 448 0
2018-01-11 18:38:32 GMT 48.35472 0.37058 32,975 85 448 0
2018-01-11 18:38:30 GMT 48.35432 0.36399 32,975 85 448 0
2018-01-11 18:38:28 GMT 48.35400 0.35763 32,975 85 448 0
2018-01-11 18:38:24 GMT 48.35335 0.34677 32,975 85 448 0
2018-01-11 18:38:21 GMT 48.35280 0.33776 32,975 85 448 64
2018-01-11 18:38:21 GMT 48.35280 0.33776 32,975 85 448 64
2018-01-11 18:38:19 GMT 48.35232 0.32959 32,975 85 448 0
2018-01-11 18:38:16 GMT 48.35152 0.31579 32,975 85 448 -64
2018-01-11 18:38:13 GMT 48.35129 0.31121 32,975 85 448 0
2018-01-11 18:38:11 GMT 48.35092 0.30494 32,975 85 448 0
2018-01-11 18:38:08 GMT 48.35046 0.29698 32,975 85 448 0
2018-01-11 18:38:06 GMT 48.35001 0.28755 32,975 85 448 0
2018-01-11 18:38:03 GMT 48.34946 0.27994 32,975 85 448 -64
2018-01-11 18:38:00 GMT 48.34904 0.27254 32,975 85 447 0
2018-01-11 18:37:57 GMT 48.34845 0.26198 32,975 85 447 0
2018-01-11 18:37:55 GMT 48.34818 0.25738 32,975 85 447 0
2018-01-11 18:37:53 GMT 48.34781 0.25085 32,975 85 447 0
2018-01-11 18:37:53 GMT 48.34781 0.25085 32,975 85 447 0
2018-01-11 18:37:50 GMT 48.34715 0.23968 32,975 85 447 64
2018-01-11 18:37:48 GMT 48.34692 0.23606 32,975 85 448 -64
2018-01-11 18:37:46 GMT 48.34639 0.22670 32,975 85 448 -64
2018-01-11 18:37:43 GMT 48.34584 0.21804 32,975 85 448 0
2018-01-11 18:37:41 GMT 48.34547 0.21170 32,975 85 448 0
2018-01-11 18:37:38 GMT 48.34502 0.20353 32,975 85 448 0
2018-01-11 18:37:35 GMT 48.34436 0.19255 32,975 85 448 -64
2018-01-11 18:37:32 GMT 48.34385 0.18373 32,975 85 449 -64
2018-01-11 18:37:29 GMT 48.34334 0.17506 32,975 85 449 64
2018-01-11 18:37:25 GMT 48.34268 0.16353 32,975 85 449 64
2018-01-11 18:37:23 GMT 48.34199 0.15243 32,975 85 450 -64
2018-01-11 18:37:23 GMT 48.34213 0.15423 32,975 85 450 -64
2018-01-11 18:37:20 GMT 48.34168 0.14648 32,975 85 451 0
2018-01-11 18:37:18 GMT 48.34115 0.13812 32,975 85 452 128
2018-01-11 18:37:14 GMT 48.34062 0.12838 32,975 85 452 0
2018-01-11 18:37:12 GMT 48.34026 0.12258 32,975 85 453 0
2018-01-11 18:37:12 GMT 48.34026 0.12258 32,975 85 453 -64
2018-01-11 18:37:10 GMT 48.33989 0.11637 32,950 85 453 -64
2018-01-11 18:37:08 GMT 48.33947 0.10878 32,975 85 454 0
2018-01-11 18:37:04 GMT 48.33877 0.09729 32,975 84 454 -128
2018-01-11 18:37:02 GMT 48.33840 0.09085 32,975 84 454 0
2018-01-11 18:37:02 GMT 48.33840 0.09085 32,975 84 454 0
2018-01-11 18:36:59 GMT 48.33789 0.08189 32,975 84 455 0
2018-01-11 18:36:57 GMT 48.33760 0.07719 32,975 84 455 64
2018-01-11 18:36:55 GMT 48.33691 0.06628 32,975 84 455 0
2018-01-11 18:36:53 GMT 48.33682 0.06451 32,975 84 455 64
2018-01-11 18:36:51 GMT 48.33635 0.05667 32,950 84 456 64
2018-01-11 18:36:49 GMT 48.33598 0.05038 32,975 84 456 -64
2018-01-11 18:36:47 GMT 48.33554 0.04289 32,975 84 456 -64
2018-01-11 18:36:45 GMT 48.33531 0.03888 32,975 84 456 0
2018-01-11 18:36:43 GMT 48.33491 0.03238 32,975 84 456 -64
2018-01-11 18:36:41 GMT 48.33440 0.02437 32,975 84 456 -64
2018-01-11 18:36:39 GMT 48.33403 0.01803 32,975 84 456 64
2018-01-11 18:36:37 GMT 48.33356 0.00976 32,975 84 456 64
2018-01-11 18:36:33 GMT 48.33293 0.00000 32,975 84 457 -64
2018-01-11 18:36:33 GMT 48.33302 0.00148 32,975 84 456 -64
2018-01-11 18:36:31 GMT 48.33252 -0.00683 32,950 84 457 -64
2018-01-11 18:36:29 GMT 48.33211 -0.01380 32,975 84 457 -64
2018-01-11 18:36:26 GMT 48.33156 -0.02313 32,975 84 457 0
2018-01-11 18:36:23 GMT 48.33083 -0.03507 32,975 84 457 0
2018-01-11 18:36:21 GMT 48.33053 -0.04040 32,975 84 457 -64
2018-01-11 18:36:18 GMT 48.33014 -0.04669 32,975 84 457 -64
2018-01-11 18:36:16 GMT 48.32959 -0.05606 32,975 84 457 0
2018-01-11 18:36:12 GMT 48.32895 -0.06671 32,975 84 457 0
2018-01-11 18:36:10 GMT 48.32854 -0.07352 32,975 84 457 -64
2018-01-11 18:36:08 GMT 48.32817 -0.07958 32,975 84 457 0
2018-01-11 18:36:03 GMT 48.32709 -0.09692 32,975 84 457 0
2018-01-11 18:36:01 GMT 48.32689 -0.10007 32,975 84 457 0
2018-01-11 18:35:58 GMT 48.32620 -0.11141 32,975 84 457 0
2018-01-11 18:35:54 GMT 48.32533 -0.12522 32,975 84 456 -64
2018-01-11 18:35:50 GMT 48.32448 -0.13942 32,975 84 456 0
2018-01-11 18:35:47 GMT 48.32411 -0.14550 32,975 84 456 0
2018-01-11 18:35:43 GMT 48.32327 -0.15865 32,975 84 456 0
2018-01-11 18:35:39 GMT 48.32253 -0.17116 32,975 84 456 0
2018-01-11 18:35:37 GMT 48.32217 -0.17670 32,975 84 456 0
2018-01-11 18:35:33 GMT 48.32122 -0.19197 32,975 84 456 0
2018-01-11 18:35:31 GMT 48.32080 -0.19853 32,975 84 456 0
2018-01-11 18:35:27 GMT 48.32015 -0.20968 32,975 84 456 0
2018-01-11 18:35:22 GMT 48.31913 -0.22623 32,975 84 455 0
2018-01-11 18:35:19 GMT 48.31852 -0.23613 32,975 84 455 0
2018-01-11 18:35:16 GMT 48.31810 -0.24257 32,975 84 455 0
2018-01-11 18:35:13 GMT 48.31732 -0.25522 32,975 84 455 -64
2018-01-11 18:35:11 GMT 48.31705 -0.25980 32,975 84 455 -64
2018-01-11 18:35:09 GMT 48.31671 -0.26504 32,975 84 455 -64
2018-01-11 18:35:07 GMT 48.31632 -0.27149 32,975 84 455 -64
2018-01-11 18:35:04 GMT 48.31545 -0.28528 32,975 84 455 0
2018-01-11 18:35:02 GMT 48.31522 -0.28853 32,975 84 456 0
2018-01-11 18:35:00 GMT 48.31485 -0.29452 32,975 84 455 0
2018-01-11 18:34:57 GMT 48.31435 -0.30269 32,975 84 455 0
2018-01-11 18:34:55 GMT 48.31403 -0.30762 32,975 84 455 0
2018-01-11 18:34:51 GMT 48.31308 -0.32301 32,975 84 456 0
2018-01-11 18:34:48 GMT 48.31247 -0.33219 32,975 84 456 -64
2018-01-11 18:34:46 GMT 48.31206 -0.33860 32,975 84 456 -64
2018-01-11 18:34:41 GMT 48.31107 -0.35445 32,975 84 455 64
2018-01-11 18:34:39 GMT 48.31061 -0.36190 32,975 84 455 0
2018-01-11 18:34:37 GMT 48.31032 -0.36600 32,975 84 455 0
2018-01-11 18:34:35 GMT 48.31004 -0.37079 32,975 84 454 0
2018-01-11 18:34:31 GMT 48.30890 -0.38832 32,975 84 455 64
2018-01-11 18:34:29 GMT 48.30879 -0.39009 32,975 84 455 64
2018-01-11 18:34:27 GMT 48.30828 -0.39833 32,975 84 455 0
2018-01-11 18:34:25 GMT 48.30795 -0.40317 32,950 84 455 0
2018-01-11 18:34:19 GMT 48.30670 -0.42311 32,975 84 454 0
2018-01-11 18:34:16 GMT 48.30577 -0.43750 32,975 84 454 -64
2018-01-11 18:34:13 GMT 48.30551 -0.44107 32,975 84 454 -64
2018-01-11 18:34:09 GMT 48.30478 -0.45234 32,975 84 453 0
2018-01-11 18:34:07 GMT 48.30428 -0.46023 32,975 84 453 0
2018-01-11 18:34:05 GMT 48.30377 -0.46764 32,975 84 453 -64
2018-01-11 18:34:00 GMT 48.30284 -0.48174 32,975 84 453 0
2018-01-11 18:33:58 GMT 48.30244 -0.48791 32,975 84 453 0
2018-01-11 18:33:56 GMT 48.30194 -0.49572 32,975 84 453 0
2018-01-11 18:33:54 GMT 48.30162 -0.50065 32,975 84 453 0
2018-01-11 18:33:48 GMT 48.30043 -0.51924 32,975 84 453 0
2018-01-11 18:33:46 GMT 48.29990 -0.52720 32,975 84 453 0
2018-01-11 18:33:43 GMT 48.29953 -0.53334 32,975 84 453 0
2018-01-11 18:33:38 GMT 48.29828 -0.55192 32,975 84 454 0
2018-01-11 18:33:35 GMT 48.29778 -0.56002 32,975 84 454 0
2018-01-11 18:33:33 GMT 48.29748 -0.56471 32,975 84 454 64
2018-01-11 18:33:30 GMT 48.29650 -0.57967 32,975 84 454 0
2018-01-11 18:33:27 GMT 48.29594 -0.58826 32,975 84 454 0
2018-01-11 18:33:25 GMT 48.29562 -0.59319 32,975 84 454 -64
2018-01-11 18:33:23 GMT 48.29543 -0.59644 32,975 84 454 -64
2018-01-11 18:33:21 GMT 48.29497 -0.60309 32,975 84 454 -64
2018-01-11 18:33:19 GMT 48.29439 -0.61242 32,975 84 454 64
2018-01-11 18:33:17 GMT 48.29408 -0.61711 32,975 84 454 64
2018-01-11 18:33:15 GMT 48.29348 -0.62615 32,975 84 454 0
2018-01-11 18:33:13 GMT 48.29329 -0.62890 32,975 84 455 0
2018-01-11 18:33:11 GMT 48.29265 -0.63840 32,975 84 455 0
2018-01-11 18:33:07 GMT 48.29199 -0.64841 32,975 84 455 0
2018-01-11 18:33:05 GMT 48.29171 -0.65289 32,975 84 455 0
2018-01-11 18:33:03 GMT 48.29120 -0.66062 32,975 84 455 0
2018-01-11 18:33:01 GMT 48.29073 -0.66756 32,975 84 455 64
2018-01-11 18:32:58 GMT 48.29017 -0.67559 32,975 84 455 0
2018-01-11 18:32:56 GMT 48.28967 -0.68334 32,975 84 455 -64
2018-01-11 18:32:53 GMT 48.28908 -0.69249 32,975 84 456 -64
2018-01-11 18:32:51 GMT 48.28878 -0.69698 32,975 84 456 -64
2018-01-11 18:32:47 GMT 48.28789 -0.71010 32,975 84 456 0
2018-01-11 18:32:44 GMT 48.28696 -0.72380 32,975 84 456 0
2018-01-11 18:32:41 GMT 48.28668 -0.72842 32,975 84 456 0
2018-01-11 18:32:39 GMT 48.28608 -0.73760 32,975 84 457 0
2018-01-11 18:32:37 GMT 48.28561 -0.74469 32,975 84 457 -64
2018-01-11 18:32:35 GMT 48.28537 -0.74763 32,975 84 457 -64
2018-01-11 18:32:33 GMT 48.28487 -0.75545 32,975 84 457 -64
2018-01-11 18:32:31 GMT 48.28449 -0.76131 32,975 84 457 0
2018-01-11 18:32:29 GMT 48.28407 -0.76724 32,975 84 457 0
2018-01-11 18:32:27 GMT 48.28354 -0.77496 32,975 84 457 0
2018-01-11 18:32:24 GMT 48.28300 -0.78299 32,975 84 457 0
2018-01-11 18:32:22 GMT 48.28258 -0.78928 32,975 84 457 0
2018-01-11 18:32:20 GMT 48.28226 -0.79434 32,975 84 457 0
2018-01-11 18:32:18 GMT 48.28157 -0.80412 32,975 84 458 0
2018-01-11 18:32:16 GMT 48.28137 -0.80728 32,975 84 457 0
2018-01-11 18:32:13 GMT 48.28044 -0.82108 32,975 84 458 0
2018-01-11 18:32:10 GMT 48.28002 -0.82752 32,975 84 458 0
2018-01-11 18:32:07 GMT 48.27919 -0.84038 32,975 84 458 64
2018-01-11 18:32:03 GMT 48.27869 -0.84771 32,950 84 458 64
2018-01-11 18:32:01 GMT 48.27818 -0.85538 32,975 84 458 0
2018-01-11 18:31:57 GMT 48.27728 -0.86908 32,975 84 458 64
2018-01-11 18:31:54 GMT 48.27639 -0.88209 32,975 84 457 -64
2018-01-11 18:31:51 GMT 48.27583 -0.88989 32,975 84 457 0
2018-01-11 18:31:49 GMT 48.27557 -0.89412 32,975 84 457 0
2018-01-11 18:31:47 GMT 48.27512 -0.90067 32,975 84 457 0
2018-01-11 18:31:42 GMT 48.27383 -0.91989 32,975 84 458 0
2018-01-11 18:31:40 GMT 48.27374 -0.92137 32,975 84 458 0
2018-01-11 18:31:38 GMT 48.27318 -0.92950 32,975 84 457 0
2018-01-11 18:31:36 GMT 48.27292 -0.93377 32,975 84 458 0
2018-01-11 18:31:32 GMT 48.27202 -0.94779 32,975 83 456 -64
2018-01-11 18:31:30 GMT 48.27168 -0.95257 32,975 82 456 -64
2018-01-11 18:31:28 GMT 48.27109 -0.96074 32,975 82 455 -64
2018-01-11 18:31:26 GMT 48.27054 -0.96722 32,975 81 454 0
2018-01-11 18:31:21 GMT 48.26880 -0.98490 32,975 80 453 -64
2018-01-11 18:31:19 GMT 48.26820 -0.99053 32,975 80 453 -64
2018-01-11 18:31:17 GMT 48.26784 -0.99405 32,975 80 453 -64
2018-01-11 18:31:14 GMT 48.26701 -1.00166 32,975 80 453 0
2018-01-11 18:31:10 GMT 48.26509 -1.01912 32,975 80 453 0
2018-01-11 18:31:08 GMT 48.26477 -1.02208 32,975 80 453 0
2018-01-11 18:31:06 GMT 48.26382 -1.03098 32,975 80 453 64
2018-01-11 18:31:04 GMT 48.26350 -1.03365 32,975 80 453 0
2018-01-11 18:31:01 GMT 48.26230 -1.04490 32,975 80 453 0
2018-01-11 18:30:59 GMT 48.26175 -1.04983 32,975 80 453 0
2018-01-11 18:30:59 GMT 48.26154 -1.05151 32,975 80 453 0
2018-01-11 18:30:57 GMT 48.26125 -1.05434 32,975 80 453 0
2018-01-11 18:30:55 GMT 48.26038 -1.06236 32,975 80 453 0
2018-01-11 18:30:53 GMT 48.25968 -1.06871 32,975 80 453 0
2018-01-11 18:30:50 GMT 48.25847 -1.07991 32,975 80 452 0
2018-01-11 18:30:48 GMT 48.25795 -1.08469 32,975 80 452 0
2018-01-11 18:30:46 GMT 48.25731 -1.09039 32,975 80 452 0
2018-01-11 18:30:44 GMT 48.25666 -1.09654 32,975 80 452 64
2018-01-11 18:30:41 GMT 48.25582 -1.10434 32,975 80 452 64
2018-01-11 18:30:38 GMT 48.25442 -1.11706 32,975 80 451 0
2018-01-11 18:30:35 GMT 48.25360 -1.12441 32,975 80 451 0
2018-01-11 18:30:32 GMT 48.25261 -1.13333 32,975 80 450 0
2018-01-11 18:30:29 GMT 48.25158 -1.14272 32,975 80 449 64
2018-01-11 18:30:27 GMT 48.25085 -1.14920 32,975 80 449 0
2018-01-11 18:30:25 GMT 48.24985 -1.15828 32,975 80 448 0
2018-01-11 18:30:21 GMT 48.24860 -1.16954 32,975 80 443 0
2018-01-11 18:30:19 GMT 48.24793 -1.17582 32,975 80 447 0
2018-01-11 18:30:17 GMT 48.24758 -1.17908 32,975 80 443 0
2018-01-11 18:30:15 GMT 48.24674 -1.18652 32,975 80 445 64
2018-01-11 18:30:13 GMT 48.24623 -1.19129 32,975 80 445 64
2018-01-11 18:30:08 GMT 48.24445 -1.20709 32,975 80 445 0
2018-01-11 18:30:05 GMT 48.24335 -1.21702 32,975 80 444 -64
2018-01-11 18:30:03 GMT 48.24229 -1.22653 32,975 80 443 0
2018-01-11 18:29:59 GMT 48.24111 -1.23748 32,975 80 443 0
2018-01-11 18:29:57 GMT 48.24037 -1.24413 32,975 80 442 0
2018-01-11 18:29:54 GMT 48.23950 -1.25188 32,975 80 442 0
2018-01-11 18:29:52 GMT 48.23918 -1.25448 32,975 80 442 -64
2018-01-11 18:29:49 GMT 48.23817 -1.26364 32,975 80 442 -64
2018-01-11 18:29:47 GMT 48.23734 -1.27102 32,975 80 441 -64
2018-01-11 18:29:45 GMT 48.23682 -1.27586 32,975 80 441 -64
2018-01-11 18:29:42 GMT 48.23580 -1.28497 32,975 80 441 -64
2018-01-11 18:29:42 GMT 48.23580 -1.28497 32,975 80 441 -64
2018-01-11 18:29:38 GMT 48.23394 -1.30137 32,975 80 440 0
2018-01-11 18:29:36 GMT 48.23380 -1.30275 32,975 80 440 0
2018-01-11 18:29:34 GMT 48.23291 -1.31040 32,975 80 440 0
2018-01-11 18:29:32 GMT 48.23241 -1.31484 32,975 80 439 0
2018-01-11 18:29:28 GMT 48.23110 -1.32667 32,975 80 439 0
2018-01-11 18:29:25 GMT 48.22993 -1.33709 32,975 80 438 0
2018-01-11 18:29:20 GMT 48.22840 -1.35060 32,975 80 439 0
2018-01-11 18:29:16 GMT 48.22682 -1.36484 32,975 80 438 0
2018-01-11 18:29:14 GMT 48.22635 -1.36910 32,975 80 438 0
2018-01-11 18:29:12 GMT 48.22549 -1.37695 32,975 80 438 0
2018-01-11 18:29:06 GMT 48.22348 -1.39477 32,975 80 439 0
2018-01-11 18:29:04 GMT 48.22279 -1.40069 32,975 80 439 0
2018-01-11 18:29:01 GMT 48.22188 -1.40864 32,975 80 439 0
2018-01-11 18:28:55 GMT 48.21982 -1.42710 32,975 80 438 0
2018-01-11 18:28:55 GMT 48.21982 -1.42710 32,975 80 438 0
2018-01-11 18:28:53 GMT 48.21927 -1.43213 32,975 80 437 0
2018-01-11 18:28:51 GMT 48.21839 -1.43964 32,975 80 437 0
2018-01-11 18:28:47 GMT 48.21735 -1.44907 32,975 80 438 0
2018-01-11 18:28:45 GMT 48.21653 -1.45619 32,975 80 438 0
2018-01-11 18:28:43 GMT 48.21601 -1.46104 32,975 80 438 0
2018-01-11 18:28:40 GMT 48.21476 -1.47188 32,975 80 438 0
2018-01-11 18:28:37 GMT 48.21364 -1.48185 32,975 80 438 0
2018-01-11 18:28:35 GMT 48.21300 -1.48759 32,975 80 438 0
2018-01-11 18:28:33 GMT 48.21229 -1.49364 32,975 80 438 0
2018-01-11 18:28:30 GMT 48.21108 -1.50462 32,975 80 438 0
2018-01-11 18:28:26 GMT 48.20992 -1.51467 32,975 80 437 0
2018-01-11 18:28:23 GMT 48.20875 -1.52471 32,975 80 437 0
2018-01-11 18:28:21 GMT 48.20824 -1.52941 32,975 80 437 0
2018-01-11 18:28:19 GMT 48.20782 -1.53287 32,975 80 437 0
2018-01-11 18:28:17 GMT 48.20652 -1.54445 32,975 80 437 0
2018-01-11 18:28:13 GMT 48.20554 -1.55295 32,975 80 437 0
2018-01-11 18:28:11 GMT 48.20508 -1.55709 32,975 80 437 0
2018-01-11 18:28:09 GMT 48.20421 -1.56471 32,975 80 437 0
2018-01-11 18:28:03 GMT 48.20214 -1.58283 32,975 80 436 0
2018-01-11 18:28:01 GMT 48.20160 -1.58752 32,975 80 436 0
2018-01-11 18:27:58 GMT 48.20036 -1.59844 32,975 80 436 0
2018-01-11 18:27:52 GMT 48.19860 -1.61376 32,975 80 436 -64
2018-01-11 18:27:52 GMT 48.19860 -1.61376 32,975 80 436 -64
2018-01-11 18:27:50 GMT 48.19772 -1.62186 32,975 80 436 0
2018-01-11 18:27:48 GMT 48.19716 -1.62654 32,975 80 436 0
2018-01-11 18:27:46 GMT 48.19646 -1.63270 32,975 80 436 -64
2018-01-11 18:27:43 GMT 48.19544 -1.64173 32,975 80 436 0
2018-01-11 18:27:40 GMT 48.19459 -1.64901 32,975 80 436 -64
2018-01-11 18:27:40 GMT 48.19427 -1.65171 32,975 80 436 -64
2018-01-11 18:27:37 GMT 48.19358 -1.65785 32,975 80 436 -64
2018-01-11 18:27:32 GMT 48.19134 -1.67715 32,975 80 436 64
2018-01-11 18:27:30 GMT 48.19102 -1.68004 32,975 80 436 64
2018-01-11 18:27:28 GMT 48.19050 -1.68474 32,975 80 436 0
2018-01-11 18:27:26 GMT 48.18928 -1.69513 32,975 80 436 -64
2018-01-11 18:27:20 GMT 48.18759 -1.70978 32,975 80 435 0
2018-01-11 18:27:18 GMT 48.18697 -1.71553 32,975 80 435 0
2018-01-11 18:27:16 GMT 48.18626 -1.72140 32,975 80 435 0
2018-01-11 18:27:12 GMT 48.18487 -1.73345 32,975 80 435 64
2018-01-11 18:27:09 GMT 48.18380 -1.74271 32,975 80 435 64
2018-01-11 18:27:07 GMT 48.18324 -1.74748 32,975 80 435 0
2018-01-11 18:27:04 GMT 48.18214 -1.75697 32,975 80 435 -128
2018-01-11 18:27:00 GMT 48.18054 -1.77098 32,975 80 435 -64
2018-01-11 18:26:58 GMT 48.17984 -1.77718 32,975 80 435 64
2018-01-11 18:26:55 GMT 48.17914 -1.78296 32,975 80 434 0
2018-01-11 18:26:48 GMT 48.17659 -1.80472 32,975 80 433 -64
2018-01-11 18:26:46 GMT 48.17589 -1.81072 32,975 80 432 -64
2018-01-11 18:26:44 GMT 48.17538 -1.81527 32,975 80 432 -64
2018-01-11 18:26:38 GMT 48.17281 -1.83754 32,975 80 432 0
2018-01-11 18:26:36 GMT 48.17258 -1.83943 32,975 80 432 0
2018-01-11 18:26:34 GMT 48.17184 -1.84570 32,975 80 432 128
2018-01-11 18:26:30 GMT 48.17002 -1.86139 32,975 80 432 128
2018-01-11 18:26:28 GMT 48.16965 -1.86450 32,975 80 432 64
2018-01-11 18:26:26 GMT 48.16900 -1.87013 32,975 80 432 -64
2018-01-11 18:26:26 GMT 48.16900 -1.87013 32,975 80 432 0
2018-01-11 18:26:24 GMT 48.16827 -1.87627 32,975 80 432 0
2018-01-11 18:26:19 GMT 48.16653 -1.89120 32,950 80 432 0
2018-01-11 18:26:16 GMT 48.16555 -1.89977 32,975 80 432 0
2018-01-11 18:26:13 GMT 48.16470 -1.90669 32,975 80 432 0
2018-01-11 18:26:11 GMT 48.16392 -1.91331 32,975 80 432 0
2018-01-11 18:26:09 GMT 48.16292 -1.92204 32,975 80 432 0
2018-01-11 18:26:05 GMT 48.16136 -1.93557 32,975 80 431 0
2018-01-11 18:26:02 GMT 48.16099 -1.93858 32,975 80 431 0
2018-01-11 18:26:00 GMT 48.16026 -1.94479 32,975 80 431 -64
2018-01-11 18:25:57 GMT 48.15907 -1.95502 32,975 80 429 0
2018-01-11 18:25:57 GMT 48.15907 -1.95502 32,975 80 430 -64
2018-01-11 18:25:55 GMT 48.15834 -1.96133 32,975 80 430 0
2018-01-11 18:25:52 GMT 48.15747 -1.96875 32,975 79 429 64
2018-01-11 18:25:49 GMT 48.15637 -1.97809 32,975 79 427 -64
2018-01-11 18:25:47 GMT 48.15578 -1.98303 32,975 79 428 64
2018-01-11 18:25:44 GMT 48.15457 -1.99310 32,975 79 428 -64
2018-01-11 18:25:42 GMT 48.15382 -1.99937 32,975 79 427 -128
2018-01-11 18:25:37 GMT 48.15168 -2.01733 32,975 79 426 0
2018-01-11 18:25:34 GMT 48.15131 -2.02043 32,975 79 426 -128
2018-01-11 18:25:31 GMT 48.14996 -2.03151 32,975 79 425 -192
2018-01-11 18:25:28 GMT 48.14870 -2.04212 32,975 79 425 -128
2018-01-11 18:25:24 GMT 48.14754 -2.05177 33,000 79 424 -256
2018-01-11 18:25:19 GMT 48.14612 -2.06371 33,000 79 424 -320
2018-01-11 18:25:16 GMT 48.14456 -2.07669 33,025 79 424 -512
2018-01-11 18:25:13 GMT 48.14367 -2.08409 33,050 79 425 -576
2018-01-11 18:25:10 GMT 48.14269 -2.09228 33,075 79 425 -576
2018-01-11 18:25:07 GMT 48.14167 -2.10085 33,100 80 426 -576
2018-01-11 18:25:05 GMT 48.14117 -2.10526 33,125 80 426 -576
2018-01-11 18:25:03 GMT 48.14046 -2.11128 33,150 80 427 -576
2018-01-11 18:25:03 GMT 48.14046 -2.11128 33,150 80 427 -576
2018-01-11 18:24:59 GMT 48.13921 -2.12180 33,175 80 427 -512
2018-01-11 18:24:57 GMT 48.13806 -2.13149 33,200 80 428 -576
2018-01-11 18:24:55 GMT 48.13762 -2.13529 33,225 79 429 -576
2018-01-11 18:24:53 GMT 48.13701 -2.14048 33,225 79 429 -576
2018-01-11 18:24:49 GMT 48.13557 -2.15269 33,275 79 430 -576
2018-01-11 18:24:46 GMT 48.13417 -2.16444 33,325 79 430 -576
2018-01-11 18:24:44 GMT 48.13376 -2.16774 33,325 79 430 -640
2018-01-11 18:24:41 GMT 48.13278 -2.17614 33,375 79 430 -576
2018-01-11 18:24:39 GMT 48.13216 -2.18133 33,375 79 430 -576
2018-01-11 18:24:34 GMT 48.12994 -2.19945 33,450 79 430 -576
2018-01-11 18:24:31 GMT 48.12920 -2.20579 33,475 79 430 -576
2018-01-11 18:24:28 GMT 48.12817 -2.21445 33,500 79 430 -576
2018-01-11 18:24:25 GMT 48.12705 -2.22353 33,525 79 430 -576
2018-01-11 18:24:24 GMT 48.12689 -2.22501 33,525 79 430 -576
2018-01-11 18:24:22 GMT 48.12602 -2.23201 33,550 79 430 -576
2018-01-11 18:24:19 GMT 48.12501 -2.24065 33,575 79 431 -576
2018-01-11 18:24:17 GMT 48.12431 -2.24642 33,600 79 431 -576
2018-01-11 18:24:15 GMT 48.12355 -2.25282 33,625 79 432 -576
2018-01-11 18:24:13 GMT 48.12250 -2.26174 33,650 79 433 -576
2018-01-11 18:24:11 GMT 48.12213 -2.26456 33,650 79 436 -576
2018-01-11 18:24:07 GMT 48.12082 -2.27572 33,675 79 434 -576
2018-01-11 18:24:04 GMT 48.11975 -2.28474 33,725 79 435 -640
2018-01-11 18:24:02 GMT 48.11897 -2.29092 33,725 79 435 -640
2018-01-11 18:24:00 GMT 48.11844 -2.29537 33,750 79 436 -576
2018-01-11 18:23:56 GMT 48.11691 -2.30818 33,800 79 436 -576
2018-01-11 18:23:53 GMT 48.11570 -2.31819 33,825 79 436 -640
2018-01-11 18:23:50 GMT 48.11462 -2.32706 33,875 79 437 -576
2018-01-11 18:23:46 GMT 48.11346 -2.33657 33,900 79 437 -512
2018-01-11 18:23:44 GMT 48.11276 -2.34262 33,925 79 437 -512
2018-01-11 18:23:39 GMT 48.11101 -2.35684 33,950 79 436 -192
2018-01-11 18:23:35 GMT 48.10954 -2.36879 33,975 79 435 0
2018-01-11 18:23:33 GMT 48.10876 -2.37518 33,975 79 435 0
2018-01-11 18:23:31 GMT 48.10778 -2.38326 33,975 79 435 0
2018-01-11 18:23:29 GMT 48.10583 -2.39967 33,975 79 435 -64
2018-01-11 18:23:25 GMT 48.10583 -2.39967 33,975 79 435 -64
2018-01-11 18:23:23 GMT 48.10460 -2.40964 33,975 79 435 0
2018-01-11 18:23:20 GMT 48.10405 -2.41438 33,975 79 435 0
2018-01-11 18:23:18 GMT 48.10336 -2.42002 33,975 79 435 64
2018-01-11 18:23:15 GMT 48.10231 -2.42867 33,975 79 436 -64
2018-01-11 18:23:13 GMT 48.10153 -2.43478 33,975 79 436 -64
2018-01-11 18:23:10 GMT 48.10005 -2.44692 33,975 79 436 -64
2018-01-11 18:23:08 GMT 48.09968 -2.44988 33,975 79 435 -64
2018-01-11 18:23:04 GMT 48.09824 -2.46178 33,975 79 435 0
2018-01-11 18:23:02 GMT 48.09718 -2.47014 33,975 79 435 64
2018-01-11 18:22:57 GMT 48.09577 -2.48164 33,975 79 435 0
2018-01-11 18:22:54 GMT 48.09423 -2.49411 33,975 79 435 0
2018-01-11 18:22:50 GMT 48.09306 -2.50372 33,975 79 434 0
2018-01-11 18:22:47 GMT 48.09214 -2.51143 33,975 79 434 0
2018-01-11 18:22:45 GMT 48.09119 -2.51917 33,975 79 433 64
2018-01-11 18:22:43 GMT 48.09042 -2.52538 33,975 79 433 64
2018-01-11 18:22:39 GMT 48.08841 -2.54186 33,975 79 434 64
2018-01-11 18:22:36 GMT 48.08821 -2.54347 33,975 79 434 0
2018-01-11 18:22:33 GMT 48.08679 -2.55510 33,975 79 434 -64
2018-01-11 18:22:29 GMT 48.08539 -2.56665 33,975 79 433 -64
2018-01-11 18:22:27 GMT 48.08482 -2.57094 33,975 79 433 0
2018-01-11 18:22:24 GMT 48.08391 -2.57849 33,975 79 433 0
2018-01-11 18:22:22 GMT 48.08260 -2.58897 33,975 79 433 0
2018-01-11 18:22:19 GMT 48.08167 -2.59665 33,975 79 432 0
2018-01-11 18:22:16 GMT 48.08073 -2.60418 33,975 79 432 0
2018-01-11 18:22:14 GMT 48.08020 -2.60864 33,975 79 432 0
2018-01-11 18:22:11 GMT 48.07878 -2.61989 33,975 79 431 0
2018-01-11 18:22:08 GMT 48.07808 -2.62559 33,975 79 432 -64
2018-01-11 18:22:05 GMT 48.07672 -2.63644 33,975 79 431 -128
2018-01-11 18:22:02 GMT 48.07566 -2.64503 33,975 79 431 0
2018-01-11 18:22:00 GMT 48.07498 -2.65038 33,975 79 430 0
2018-01-11 18:21:58 GMT 48.07445 -2.65475 33,975 79 430 0
2018-01-11 18:21:56 GMT 48.07333 -2.66369 33,975 79 429 -64
2018-01-11 18:21:54 GMT 48.07296 -2.66700 33,975 79 429 -64
2018-01-11 18:21:51 GMT 48.07189 -2.67566 33,975 79 429 0
2018-01-11 18:21:49 GMT 48.07086 -2.68369 33,975 79 429 0
2018-01-11 18:21:47 GMT 48.07021 -2.68905 33,975 79 429 0
2018-01-11 18:21:44 GMT 48.06928 -2.69651 33,975 79 428 0
2018-01-11 18:21:41 GMT 48.06802 -2.70665 33,975 79 428 0
2018-01-11 18:21:39 GMT 48.06723 -2.71292 33,975 79 428 0
2018-01-11 18:21:36 GMT 48.06630 -2.72045 33,975 79 428 0
2018-01-11 18:21:32 GMT 48.06435 -2.73602 33,975 79 428 0
2018-01-11 18:21:28 GMT 48.06323 -2.74489 33,975 79 428 -64
2018-01-11 18:21:23 GMT 48.06174 -2.75707 33,975 79 428 -64
2018-01-11 18:21:21 GMT 48.06095 -2.76320 33,975 79 428 -64
2018-01-11 18:21:19 GMT 48.05951 -2.77482 33,975 79 427 0
2018-01-11 18:21:17 GMT 48.05932 -2.77630 33,975 79 427 0
2018-01-11 18:21:15 GMT 48.05862 -2.78165 33,975 79 426 -64
2018-01-11 18:21:13 GMT 48.05806 -2.78609 33,975 79 427 0
2018-01-11 18:21:10 GMT 48.05681 -2.79623 33,975 79 426 -64
2018-01-11 18:21:08 GMT 48.05606 -2.80194 33,975 79 426 -64
2018-01-11 18:21:06 GMT 48.05498 -2.81065 33,975 79 426 64
2018-01-11 18:21:01 GMT 48.05365 -2.82115 33,975 79 426 -64
2018-01-11 18:20:59 GMT 48.05273 -2.82822 33,975 79 426 0
2018-01-11 18:20:57 GMT 48.05220 -2.83257 33,975 79 426 0
2018-01-11 18:20:53 GMT 48.05062 -2.84518 33,975 79 426 0
2018-01-11 18:20:51 GMT 48.04968 -2.85257 33,975 79 426 -64
2018-01-11 18:20:51 GMT 48.04953 -2.85384 33,975 79 426 -64
2018-01-11 18:20:49 GMT 48.04916 -2.85644 33,975 79 426 -64
2018-01-11 18:20:47 GMT 48.04843 -2.86264 33,975 79 426 -64
2018-01-11 18:20:44 GMT 48.04689 -2.87468 33,975 79 426 0
2018-01-11 18:20:40 GMT 48.04587 -2.88293 33,975 79 426 0
2018-01-11 18:20:38 GMT 48.04494 -2.89039 33,975 79 426 0
2018-01-11 18:20:35 GMT 48.04381 -2.89922 33,975 79 426 0
2018-01-11 18:20:31 GMT 48.04252 -2.90962 33,975 79 426 0
2018-01-11 18:20:29 GMT 48.04177 -2.91546 33,975 79 426 0
2018-01-11 18:20:26 GMT 48.04070 -2.92405 33,975 79 426 0
2018-01-11 18:20:24 GMT 48.04015 -2.92834 33,975 79 426 0
2018-01-11 18:20:21 GMT 48.03909 -2.93644 33,975 79 426 -64
2018-01-11 18:20:19 GMT 48.03836 -2.94241 33,975 79 426 -64
2018-01-11 18:20:17 GMT 48.03758 -2.94849 33,975 79 426 -64
2018-01-11 18:20:15 GMT 48.03685 -2.95422 33,975 79 426 0
2018-01-11 18:20:13 GMT 48.03612 -2.96020 33,975 79 426 0
2018-01-11 18:20:10 GMT 48.03455 -2.97229 33,975 79 425 0
2018-01-11 18:20:07 GMT 48.03383 -2.97812 33,975 79 425 -64
2018-01-11 18:20:04 GMT 48.03241 -2.98920 33,975 79 425 -64
2018-01-11 18:20:02 GMT 48.03190 -2.99314 33,975 79 425 -64
2018-01-11 18:19:59 GMT 48.03072 -3.00222 33,975 79 425 64
2018-01-11 18:19:56 GMT 48.02939 -3.01258 33,975 79 424 0
2018-01-11 18:19:54 GMT 48.02906 -3.01539 33,975 79 425 64
2018-01-11 18:19:51 GMT 48.02802 -3.02351 33,975 79 425 0
2018-01-11 18:19:49 GMT 48.02711 -3.03047 33,975 79 425 0
2018-01-11 18:19:47 GMT 48.02632 -3.03676 33,975 79 425 0
2018-01-11 18:19:44 GMT 48.02543 -3.04385 33,975 79 425 -64
2018-01-11 18:19:42 GMT 48.02431 -3.05251 33,975 79 425 -64
2018-01-11 18:19:40 GMT 48.02335 -3.06017 33,975 79 425 -64
2018-01-11 18:19:37 GMT 48.02259 -3.06610 33,975 79 425 0
2018-01-11 18:19:35 GMT 48.02202 -3.07054 33,975 79 425 0
2018-01-11 18:19:28 GMT 48.01956 -3.08976 33,975 79 424 0
2018-01-11 18:19:28 GMT 48.01956 -3.08976 33,975 79 424 0
2018-01-11 18:19:26 GMT 48.01845 -3.09849 33,975 79 424 0
2018-01-11 18:19:24 GMT 48.01804 -3.10185 33,975 79 424 0
2018-01-11 18:19:19 GMT 48.01575 -3.11964 33,975 79 424 0
2018-01-11 18:19:19 GMT 48.01575 -3.11964 33,975 79 424 0
2018-01-11 18:19:16 GMT 48.01492 -3.12582 33,975 79 424 0
2018-01-11 18:19:14 GMT 48.01412 -3.13237 33,975 79 424 0
2018-01-11 18:19:13 GMT 48.01412 -3.13237 33,975 79 424 0
2018-01-11 18:19:13 GMT 48.01412 -3.13237 33,975 79 424 0
2018-01-11 18:19:09 GMT 48.01263 -3.14364 33,975 79 424 0
2018-01-11 18:19:06 GMT 48.01121 -3.15459 33,975 79 424 -64
2018-01-11 18:19:03 GMT 48.01044 -3.16089 33,975 79 424 -64
2018-01-11 18:19:00 GMT 48.00929 -3.16956 33,975 79 424 0
2018-01-11 18:18:58 GMT 48.00821 -3.17787 33,975 79 424 0
2018-01-11 18:18:55 GMT 48.00746 -3.18371 33,975 79 424 0
2018-01-11 18:18:53 GMT 48.00667 -3.18956 33,975 79 424 -64
2018-01-11 18:18:53 GMT 48.00667 -3.18956 33,975 79 424 -64
2018-01-11 18:18:51 GMT 48.00560 -3.19808 33,975 79 424 -64
2018-01-11 18:18:49 GMT 48.00481 -3.20403 33,975 79 424 0
2018-01-11 18:18:47 GMT 48.00430 -3.20814 33,975 79 424 0
2018-01-11 18:18:45 GMT 48.00355 -3.21371 33,975 79 423 0
2018-01-11 18:18:43 GMT 48.00265 -3.22064 33,975 79 424 0
2018-01-11 18:18:40 GMT 48.00156 -3.22916 33,975 79 423 0
2018-01-11 18:18:37 GMT 48.00080 -3.23526 33,975 79 423 0
2018-01-11 18:18:37 GMT 48.00080 -3.23526 33,975 79 423 0
2018-01-11 18:18:35 GMT 47.99963 -3.24419 33,975 79 423 -64
2018-01-11 18:18:33 GMT 47.99917 -3.24752 33,975 79 423 -64
2018-01-11 18:18:30 GMT 47.99792 -3.25745 33,975 79 424 0
2018-01-11 18:18:28 GMT 47.99745 -3.26118 33,975 79 423 0
2018-01-11 18:18:25 GMT 47.99606 -3.27159 33,975 79 423 0
2018-01-11 18:18:23 GMT 47.99529 -3.27770 33,975 78 423 -64
2018-01-11 18:18:20 GMT 47.99419 -3.28625 33,975 79 423 0
2018-01-11 18:18:18 GMT 47.99345 -3.29188 33,975 78 423 -128
2018-01-11 18:18:16 GMT 47.99272 -3.29755 33,975 79 423 -128
2018-01-11 18:18:15 GMT 47.99224 -3.30132 33,975 79 423 -64
2018-01-11 18:18:14 GMT 47.99204 -3.30263 33,975 78 423 64
2018-01-11 18:18:12 GMT 47.99145 -3.30710 33,975 79 423 0
2018-01-11 18:18:09 GMT 47.99010 -3.31752 33,975 78 423 0
2018-01-11 18:18:07 GMT 47.98935 -3.32322 33,975 78 423 0
2018-01-11 18:18:05 GMT 47.98842 -3.33034 33,975 78 423 0
2018-01-11 18:18:02 GMT 47.98741 -3.33806 33,975 78 423 0
2018-01-11 18:18:00 GMT 47.98665 -3.34393 33,975 79 424 -64
2018-01-11 18:17:58 GMT 47.98605 -3.34836 33,975 79 424 0
2018-01-11 18:17:56 GMT 47.98516 -3.35513 33,975 79 424 0
2018-01-11 18:17:54 GMT 47.98460 -3.35942 33,975 79 424 -64
2018-01-11 18:17:52 GMT 47.98370 -3.36635 33,975 79 424 -64
2018-01-11 18:17:48 GMT 47.98209 -3.37865 33,975 79 424 0
2018-01-11 18:17:46 GMT 47.98137 -3.38413 33,975 79 424 -64
2018-01-11 18:17:46 GMT 47.98137 -3.38413 33,975 79 424 -64
2018-01-11 18:17:44 GMT 47.98065 -3.38949 33,975 79 424 0
2018-01-11 18:17:42 GMT 47.97995 -3.39498 33,975 79 424 64
2018-01-11 18:17:40 GMT 47.97881 -3.40377 33,975 79 424 0
2018-01-11 18:17:38 GMT 47.97839 -3.40707 33,975 79 424 -64
2018-01-11 18:17:36 GMT 47.97767 -3.41252 33,975 79 424 -64
2018-01-11 18:17:36 GMT 47.97767 -3.41252 33,975 79 424 -64
2018-01-11 18:17:33 GMT 47.97655 -3.42104 33,975 79 424 -128
2018-01-11 18:17:31 GMT 47.97604 -3.42506 33,975 79 424 -64
2018-01-11 18:17:28 GMT 47.97478 -3.43471 33,975 79 424 -128
2018-01-11 18:17:26 GMT 47.97423 -3.43913 33,975 79 424 -128
2018-01-11 18:17:26 GMT 47.97423 -3.43913 33,975 79 424 -128
2018-01-11 18:17:24 GMT 47.97327 -3.44614 33,975 78 423 -64
2018-01-11 18:17:21 GMT 47.97208 -3.45520 33,975 78 424 64
2018-01-11 18:17:18 GMT 47.97045 -3.46745 33,975 78 424 0
2018-01-11 18:17:16 GMT 47.97011 -3.47031 33,975 78 424 0
2018-01-11 18:17:16 GMT 47.97011 -3.47031 33,975 78 424 0
2018-01-11 18:17:14 GMT 47.96947 -3.47518 33,975 78 424 0
2018-01-11 18:17:11 GMT 47.96828 -3.48390 33,975 78 424 -64
2018-01-11 18:17:07 GMT 47.96691 -3.49429 33,975 78 424 -64
2018-01-11 18:17:04 GMT 47.96549 -3.50484 33,975 78 424 0
2018-01-11 18:17:00 GMT 47.96416 -3.51494 33,975 78 424 -64
2018-01-11 18:16:58 GMT 47.96347 -3.52023 33,975 78 424 -64
2018-01-11 18:16:56 GMT 47.96251 -3.52757 33,975 78 424 0
2018-01-11 18:16:56 GMT 47.96251 -3.52757 33,975 78 424 0
2018-01-11 18:16:54 GMT 47.96156 -3.53464 33,975 78 424 0
2018-01-11 18:16:52 GMT 47.96095 -3.53908 33,975 78 424 0
2018-01-11 18:16:50 GMT 47.96002 -3.54619 33,975 79 424 0
2018-01-11 18:16:49 GMT 47.95985 -3.54748 33,975 78 424 0
2018-01-11 18:16:46 GMT 47.95848 -3.55772 33,975 79 424 0
2018-01-11 18:16:43 GMT 47.95775 -3.56355 33,975 79 424 0
2018-01-11 18:16:41 GMT 47.95702 -3.56905 33,975 79 424 0
2018-01-11 18:16:39 GMT 47.95639 -3.57373 33,975 79 424 0
2018-01-11 18:16:36 GMT 47.95514 -3.58319 33,975 78 424 0
2018-01-11 18:16:33 GMT 47.95383 -3.59316 33,975 78 424 0
2018-01-11 18:16:29 GMT 47.95244 -3.60352 33,975 78 425 0
2018-01-11 18:16:25 GMT 47.95079 -3.61581 33,975 78 425 0
2018-01-11 18:16:25 GMT 47.95079 -3.61581 33,975 78 425 0
2018-01-11 18:16:23 GMT 47.94997 -3.62199 33,975 78 425 -64
2018-01-11 18:16:20 GMT 47.94878 -3.63091 33,975 78 425 -64
2018-01-11 18:16:18 GMT 47.94815 -3.63563 33,975 78 426 0
2018-01-11 18:16:15 GMT 47.94699 -3.64443 33,975 78 425 -64
2018-01-11 18:16:13 GMT 47.94580 -3.65309 33,975 78 426 0
2018-01-11 18:16:09 GMT 47.94485 -3.66021 33,975 78 426 0
2018-01-11 18:16:07 GMT 47.94392 -3.66711 33,975 78 426 -64
2018-01-11 18:16:05 GMT 47.94303 -3.67394 33,975 78 426 0
2018-01-11 18:16:02 GMT 47.94201 -3.68141 33,975 78 426 0
2018-01-11 18:15:57 GMT 47.93987 -3.69760 33,975 78 426 -64
2018-01-11 18:15:55 GMT 47.93950 -3.70028 33,975 78 426 -64
2018-01-11 18:15:52 GMT 47.93805 -3.71098 33,975 78 426 -64
2018-01-11 18:15:47 GMT 47.93638 -3.72366 33,975 78 426 0
2018-01-11 18:15:45 GMT 47.93563 -3.72930 33,975 78 426 0
2018-01-11 18:15:43 GMT 47.93408 -3.74078 33,975 78 426 128
2018-01-11 18:15:41 GMT 47.93404 -3.74126 33,975 78 426 64
2018-01-11 18:15:38 GMT 47.93285 -3.74998 33,975 78 426 -64
2018-01-11 18:15:35 GMT 47.93156 -3.75931 33,975 78 426 -64
2018-01-11 18:15:32 GMT 47.93001 -3.77092 33,975 78 426 -64
2018-01-11 18:15:29 GMT 47.92916 -3.77718 33,975 78 426 -128
2018-01-11 18:15:26 GMT 47.92786 -3.78699 33,975 78 425 64
2018-01-11 18:15:24 GMT 47.92734 -3.79092 33,975 78 426 0
2018-01-11 18:15:22 GMT 47.92646 -3.79747 33,975 78 425 128
2018-01-11 18:15:18 GMT 47.92483 -3.80937 33,975 78 424 0
2018-01-11 18:15:15 GMT 47.92367 -3.81789 33,975 78 424 0
2018-01-11 18:15:13 GMT 47.92306 -3.82261 33,975 78 424 0
2018-01-11 18:15:10 GMT 47.92148 -3.83423 33,975 78 423 64
2018-01-11 18:15:08 GMT 47.92083 -3.83895 33,975 78 423 64
2018-01-11 18:15:04 GMT 47.91962 -3.84796 33,975 78 423 -64
2018-01-11 18:15:02 GMT 47.91841 -3.85662 33,975 78 423 -128
2018-01-11 18:15:00 GMT 47.91797 -3.85984 33,975 78 422 -128
2018-01-11 18:14:58 GMT 47.91715 -3.86592 33,975 78 422 0
2018-01-11 18:14:54 GMT 47.91561 -3.87740 33,975 78 422 64
2018-01-11 18:14:51 GMT 47.91445 -3.88599 33,975 78 422 0
2018-01-11 18:14:48 GMT 47.91324 -3.89458 33,975 78 421 -64
2018-01-11 18:14:46 GMT 47.91249 -3.90029 33,975 78 421 -64
2018-01-11 18:14:44 GMT 47.91189 -3.90451 33,975 78 421 -64
2018-01-11 18:14:41 GMT 47.91055 -3.91436 33,975 78 421 0
2018-01-11 18:14:39 GMT 47.90998 -3.91867 33,975 78 421 -64
2018-01-11 18:14:37 GMT 47.90900 -3.92590 33,975 78 421 -64
2018-01-11 18:14:34 GMT 47.90803 -3.93310 33,975 78 422 0
2018-01-11 18:14:31 GMT 47.90667 -3.94304 33,975 78 422 -64
2018-01-11 18:14:29 GMT 47.90593 -3.94853 33,975 78 422 128
2018-01-11 18:14:26 GMT 47.90439 -3.95952 33,975 78 422 64
2018-01-11 18:14:23 GMT 47.90382 -3.96380 33,975 78 422 64
2018-01-11 18:14:19 GMT 47.90199 -3.97719 33,975 78 423 -64
2018-01-11 18:14:16 GMT 47.90081 -3.98578 33,975 78 423 -64
2018-01-11 18:14:14 GMT 47.90016 -3.99092 33,975 78 423 -64
2018-01-11 18:14:12 GMT 47.89948 -3.99566 33,975 78 423 0
2018-01-11 18:14:10 GMT 47.89847 -4.00308 33,975 78 423 -64
2018-01-11 18:14:08 GMT 47.89751 -4.01028 33,975 78 423 -64
2018-01-11 18:14:06 GMT 47.89673 -4.01585 33,975 78 423 0
2018-01-11 18:14:03 GMT 47.89590 -4.02189 33,975 78 423 0
2018-01-11 18:14:00 GMT 47.89476 -4.03008 33,975 78 423 64
2018-01-11 18:13:58 GMT 47.89384 -4.03693 33,975 78 424 -64
2018-01-11 18:13:55 GMT 47.89261 -4.04592 33,975 78 424 -64
2018-01-11 18:13:53 GMT 47.89201 -4.05015 33,975 78 424 0
2018-01-11 18:13:53 GMT 47.89201 -4.05015 33,975 78 424 0
2018-01-11 18:13:50 GMT 47.89061 -4.06036 33,975 78 424 -64
2018-01-11 18:13:47 GMT 47.88964 -4.06734 33,975 78 424 0
2018-01-11 18:13:45 GMT 47.88880 -4.07353 33,975 78 424 0
2018-01-11 18:13:43 GMT 47.88819 -4.07797 33,975 78 424 0
2018-01-11 18:13:40 GMT 47.88670 -4.08890 33,975 78 424 0
2018-01-11 18:13:38 GMT 47.88568 -4.09614 33,975 78 424 0
2018-01-11 18:13:35 GMT 47.88414 -4.10751 33,975 78 424 0
2018-01-11 18:13:33 GMT 47.88405 -4.10799 33,975 78 424 0
2018-01-11 18:13:30 GMT 47.88289 -4.11663 33,975 78 424 0
2018-01-11 18:13:26 GMT 47.88117 -4.12907 33,975 78 424 -64
2018-01-11 18:13:24 GMT 47.88043 -4.13443 33,975 78 424 0
2018-01-11 18:13:20 GMT 47.87874 -4.14642 33,975 78 424 -64
2018-01-11 18:13:15 GMT 47.87707 -4.15868 33,975 78 425 -64
2018-01-11 18:13:13 GMT 47.87632 -4.16396 33,975 78 425 0
2018-01-11 18:13:10 GMT 47.87430 -4.17865 33,975 78 425 0
2018-01-11 18:13:06 GMT 47.87288 -4.18903 33,975 78 425 0
2018-01-11 18:13:04 GMT 47.87247 -4.19183 33,975 78 425 0
2018-01-11 18:13:02 GMT 47.87204 -4.19488 33,975 78 425 0
2018-01-11 18:12:59 GMT 47.87060 -4.20544 33,975 78 425 -64
2018-01-11 18:12:54 GMT 47.86812 -4.22314 33,975 78 426 64
2018-01-11 18:12:51 GMT 47.86771 -4.22637 33,975 78 426 64
2018-01-11 18:12:48 GMT 47.86638 -4.23592 33,975 78 426 -64
2018-01-11 18:12:45 GMT 47.86501 -4.24572 33,975 78 426 -64
2018-01-11 18:12:43 GMT 47.86441 -4.25009 33,975 78 426 -64
2018-01-11 18:12:41 GMT 47.86366 -4.25537 33,975 78 426 -64
2018-01-11 18:12:38 GMT 47.86144 -4.27148 33,975 78 425 64
2018-01-11 18:12:34 GMT 47.86087 -4.27551 33,975 78 425 64
2018-01-11 18:12:32 GMT 47.85984 -4.28270 33,975 78 425 64
2018-01-11 18:12:27 GMT 47.85800 -4.29586 33,975 78 425 64
2018-01-11 18:12:23 GMT 47.85635 -4.30749 33,975 78 426 0
2018-01-11 18:12:21 GMT 47.85524 -4.31572 33,975 78 426 0
2018-01-11 18:12:17 GMT 47.85365 -4.32697 33,975 78 426 -128
2018-01-11 18:12:13 GMT 47.85240 -4.33573 33,975 78 426 -128
2018-01-11 18:12:11 GMT 47.85160 -4.34171 33,975 78 426 -128
2018-01-11 18:12:08 GMT 47.85030 -4.35101 33,975 78 426 64
2018-01-11 18:12:03 GMT 47.84816 -4.36608 33,975 78 426 64
2018-01-11 18:12:01 GMT 47.84734 -4.37208 33,975 78 426 64
2018-01-11 18:11:58 GMT 47.84605 -4.38114 33,975 78 426 -64
2018-01-11 18:11:53 GMT 47.84432 -4.39536 33,975 78 426 0
2018-01-11 18:11:50 GMT 47.84308 -4.40222 33,975 78 426 64
2018-01-11 18:11:48 GMT 47.84192 -4.41059 33,975 78 426 0
2018-01-11 18:11:44 GMT 47.84043 -4.42101 33,975 78 426 0
2018-01-11 18:11:42 GMT 47.83919 -4.43003 33,975 78 426 -64
2018-01-11 18:11:40 GMT 47.83905 -4.43120 33,975 78 426 -64
2018-01-11 18:11:37 GMT 47.83759 -4.44158 33,975 78 426 0
2018-01-11 18:11:31 GMT 47.83516 -4.45859 33,975 78 426 0
2018-01-11 18:11:28 GMT 47.83377 -4.46841 33,975 78 426 0
2018-01-11 18:11:23 GMT 47.83182 -4.48208 33,975 78 426 0
2018-01-11 18:11:20 GMT 47.83067 -4.49011 33,975 78 426 64
2018-01-11 18:11:18 GMT 47.82990 -4.49567 33,975 78 426 0
2018-01-11 18:11:16 GMT 47.82912 -4.50137 33,975 78 426 -64
2018-01-11 18:11:12 GMT 47.82761 -4.51195 33,975 78 426 -64
2018-01-11 18:11:10 GMT 47.82660 -4.51895 33,975 78 425 0
2018-01-11 18:11:08 GMT 47.82586 -4.52440 33,975 78 425 0
2018-01-11 18:11:06 GMT 47.82509 -4.52980 33,975 78 425 -64
2018-01-11 18:11:04 GMT 47.82391 -4.53806 33,975 78 425 0
2018-01-11 18:11:01 GMT 47.82307 -4.54401 33,975 78 425 0
2018-01-11 18:10:59 GMT 47.82232 -4.54947 33,975 78 426 64
2018-01-11 18:10:56 GMT 47.82120 -4.55727 33,975 78 426 0
2018-01-11 18:10:50 GMT 47.81863 -4.57533 33,975 78 426 0
2018-01-11 18:10:48 GMT 47.81757 -4.58264 33,975 78 426 0
2018-01-11 18:10:45 GMT 47.81636 -4.59123 33,975 78 426 64
2018-01-11 18:10:42 GMT 47.81502 -4.60066 33,975 78 426 64
2018-01-11 18:10:39 GMT 47.81418 -4.60651 33,975 78 427 -128
2018-01-11 18:10:35 GMT 47.81250 -4.61824 33,975 78 426 -128
2018-01-11 18:10:30 GMT 47.81050 -4.63243 33,975 78 426 64
2018-01-11 18:10:26 GMT 47.80868 -4.64510 33,975 78 426 64
2018-01-11 18:10:22 GMT 47.80682 -4.65807 33,975 78 425 -64
2018-01-11 18:10:19 GMT 47.80617 -4.66257 33,975 78 425 -64
2018-01-11 18:10:17 GMT 47.80519 -4.66954 33,975 78 425 64
2018-01-11 18:10:15 GMT 47.80394 -4.67825 33,975 78 425 64
2018-01-11 18:10:13 GMT 47.80376 -4.67956 33,975 78 425 64
2018-01-11 18:10:10 GMT 47.80217 -4.69074 33,975 78 425 -64
2018-01-11 18:10:08 GMT 47.80119 -4.69748 33,975 77 425 -64
2018-01-11 18:10:04 GMT 47.79988 -4.70658 33,975 77 425 0
2018-01-11 18:09:59 GMT 47.79793 -4.71997 33,975 77 425 -64
2018-01-11 18:09:57 GMT 47.79662 -4.72913 33,975 78 425 -64
2018-01-11 18:09:55 GMT 47.79593 -4.73377 33,975 77 425 0
2018-01-11 18:09:49 GMT 47.79378 -4.74877 33,975 78 425 0
2018-01-11 18:09:46 GMT 47.79258 -4.75729 33,975 78 426 64
2018-01-11 18:09:42 GMT 47.79076 -4.76983 33,975 78 426 0
2018-01-11 18:09:39 GMT 47.78960 -4.77814 33,975 77 426 0
2018-01-11 18:09:34 GMT 47.78769 -4.79131 33,975 77 426 -64
2018-01-11 18:09:32 GMT 47.78677 -4.79752 33,975 78 426 -64
2018-01-11 18:09:29 GMT 47.78536 -4.80757 33,975 78 426 -64
2018-01-11 18:09:26 GMT 47.78429 -4.81490 33,975 77 426 0
2018-01-11 18:09:24 GMT 47.78345 -4.82067 33,975 77 426 0
2018-01-11 18:09:18 GMT 47.78105 -4.83721 33,975 77 426 0
2018-01-11 18:09:14 GMT 47.77931 -4.84948 33,975 77 426 0
2018-01-11 18:09:07 GMT 47.77633 -4.86997 33,975 77 427 0
2018-01-11 18:09:03 GMT 47.77479 -4.88047 33,975 77 427 0
2018-01-11 18:09:00 GMT 47.77358 -4.88899 33,975 77 427 0
2018-01-11 18:08:58 GMT 47.77208 -4.89942 33,975 77 427 0
2018-01-11 18:08:55 GMT 47.77144 -4.90382 33,975 77 427 0
2018-01-11 18:08:53 GMT 47.77032 -4.91138 33,975 77 427 -64
2018-01-11 18:08:48 GMT 47.76842 -4.92455 33,975 77 427 -64
2018-01-11 18:08:45 GMT 47.76711 -4.93335 33,975 77 427 0
2018-01-11 18:08:43 GMT 47.76641 -4.93807 33,975 77 427 0
2018-01-11 18:08:38 GMT 47.76423 -4.95307 33,975 77 427 -64
2018-01-11 18:08:33 GMT 47.76205 -4.96802 33,975 77 427 0
2018-01-11 18:08:28 GMT 47.75994 -4.98265 33,975 77 426 -64
2018-01-11 18:08:24 GMT 47.75785 -4.99688 33,975 77 427 64
2018-01-11 18:08:18 GMT 47.75578 -5.01086 33,975 77 427 64
2018-01-11 18:08:16 GMT 47.75514 -5.01519 33,975 77 427 0
2018-01-11 18:08:14 GMT 47.75431 -5.02118 33,975 77 427 64
2018-01-11 18:08:12 GMT 47.75322 -5.02844 33,975 77 427 -64
2018-01-11 18:08:07 GMT 47.75139 -5.04121 33,975 77 427 -64
2018-01-11 18:08:07 GMT 47.75139 -5.04121 33,975 77 427 -64
2018-01-11 18:08:04 GMT 47.75017 -5.04956 33,975 77 427 -64
2018-01-11 18:08:01 GMT 47.74869 -5.05948 33,975 77 427 64
2018-01-11 18:07:56 GMT 47.74677 -5.07259 33,975 77 426 -64
2018-01-11 18:07:54 GMT 47.74567 -5.08001 33,975 77 426 -64
2018-01-11 18:07:51 GMT 47.74475 -5.08633 33,975 77 426 -64
2018-01-11 18:07:47 GMT 47.74274 -5.09992 33,975 77 426 0
2018-01-11 18:07:44 GMT 47.74183 -5.10597 33,975 77 426 0
2018-01-11 18:07:41 GMT 47.74034 -5.11632 33,975 77 426 0
2018-01-11 18:07:37 GMT 47.73862 -5.12794 33,975 77 426 -64
2018-01-11 18:07:33 GMT 47.73660 -5.14153 33,975 77 426 -64
2018-01-11 18:07:31 GMT 47.73625 -5.14407 33,975 77 426 0
2018-01-11 18:07:26 GMT 47.73425 -5.15759 33,975 77 426 0
2018-01-11 18:07:23 GMT 47.73276 -5.16766 33,975 77 426 0
2018-01-11 18:07:18 GMT 47.73057 -5.18238 33,975 77 427 0
2018-01-11 18:07:16 GMT 47.72992 -5.18685 33,975 77 427 -64
2018-01-11 18:07:13 GMT 47.72850 -5.19640 33,975 77 427 0
2018-01-11 18:07:05 GMT 47.72507 -5.21967 33,975 77 427 0
2018-01-11 18:07:05 GMT 47.72531 -5.21815 33,975 77 427 0
2018-01-11 18:07:02 GMT 47.72410 -5.22632 33,975 77 427 0
2018-01-11 18:06:57 GMT 47.72177 -5.24206 33,975 77 428 -64
2018-01-11 18:06:55 GMT 47.72086 -5.24803 33,975 77 428 -64
2018-01-11 18:06:52 GMT 47.71962 -5.25655 33,975 77 428 0
2018-01-11 18:06:46 GMT 47.71693 -5.27435 33,975 77 428 0
2018-01-11 18:06:44 GMT 47.71623 -5.27893 33,975 77 428 0
2018-01-11 18:06:42 GMT 47.71545 -5.28435 33,975 77 428 0
2018-01-11 18:06:35 GMT 47.71252 -5.30406 33,975 77 429 0
2018-01-11 18:06:33 GMT 47.71138 -5.31175 33,975 77 429 0
2018-01-11 18:06:29 GMT 47.71008 -5.32076 33,975 77 429 0
2018-01-11 18:06:25 GMT 47.70832 -5.33267 33,975 77 429 0
2018-01-11 18:06:23 GMT 47.70735 -5.33922 33,975 77 430 0
2018-01-11 18:06:19 GMT 47.70566 -5.35048 33,975 77 430 0
2018-01-11 18:06:15 GMT 47.70378 -5.36311 33,975 77 430 0
2018-01-11 18:06:12 GMT 47.70268 -5.37062 33,975 77 430 0
2018-01-11 18:06:08 GMT 47.70058 -5.38488 33,975 77 431 0
2018-01-11 18:06:05 GMT 47.69948 -5.39223 33,975 77 431 -64
2018-01-11 18:06:02 GMT 47.69840 -5.39943 33,975 77 431 0
2018-01-11 18:05:58 GMT 47.69663 -5.41112 33,975 77 431 0
2018-01-11 18:05:55 GMT 47.69513 -5.42086 33,975 77 431 0
2018-01-11 18:05:52 GMT 47.69407 -5.42781 33,975 77 431 0
2018-01-11 18:05:50 GMT 47.69323 -5.43330 33,975 77 431 -64
2018-01-11 18:05:45 GMT 47.69078 -5.44984 33,975 78 433 0
2018-01-11 18:05:43 GMT 47.69009 -5.45492 33,975 79 434 0
2018-01-11 18:05:40 GMT 47.68909 -5.46260 33,975 79 435 0
2018-01-11 18:05:35 GMT 47.68700 -5.47950 33,975 80 437 0
2018-01-11 18:05:31 GMT 47.68556 -5.49310 33,975 82 439 0
2018-01-11 18:05:24 GMT 47.68391 -5.51026 33,975 82 441 0
2018-01-11 18:05:21 GMT 47.68300 -5.52097 33,975 83 442 0
2018-01-11 18:05:18 GMT 47.68239 -5.52894 33,975 84 443 0
2018-01-11 18:05:14 GMT 47.68162 -5.54075 33,975 86 446 0
2018-01-11 18:05:12 GMT 47.68126 -5.54741 33,975 86 447 0
2018-01-11 18:05:10 GMT 47.68104 -5.55225 33,975 87 449 0
2018-01-11 18:05:08 GMT 47.68080 -5.55846 33,975 87 449 0
2018-01-11 18:05:04 GMT 47.68048 -5.57179 33,975 88 451 0
2018-01-11 18:05:02 GMT 47.68034 -5.57929 33,975 88 451 0
2018-01-11 18:04:59 GMT 47.68021 -5.58772 33,975 88 451 0
2018-01-11 18:04:52 GMT 47.67987 -5.61007 33,975 88 451 -64
2018-01-11 18:04:49 GMT 47.67973 -5.61944 33,975 88 451 -64
2018-01-11 18:04:43 GMT 47.67947 -5.63640 33,975 88 451 0
2018-01-11 18:04:41 GMT 47.67938 -5.64237 33,975 88 451 0
2018-01-11 18:04:38 GMT 47.67927 -5.65106 33,975 88 451 0
2018-01-11 18:04:33 GMT 47.67899 -5.66669 33,975 88 451 0
2018-01-11 18:04:31 GMT 47.67889 -5.67479 33,975 88 451 0
2018-01-11 18:04:29 GMT 47.67874 -5.68288 33,975 88 451 0
2018-01-11 18:04:23 GMT 47.67848 -5.69937 33,975 88 451 0
2018-01-11 18:04:21 GMT 47.67838 -5.70571 33,975 88 451 0
2018-01-11 18:04:17 GMT 47.67824 -5.71528 33,975 88 452 64
2018-01-11 18:04:13 GMT 47.67801 -5.72999 33,975 88 452 -64
2018-01-11 18:04:10 GMT 47.67782 -5.73916 33,975 88 452 0
2018-01-11 18:04:07 GMT 47.67773 -5.74640 33,975 88 452 64
2018-01-11 18:04:02 GMT 47.67745 -5.76219 33,975 88 452 -64
2018-01-11 18:03:59 GMT 47.67731 -5.77120 33,975 88 452 0
2018-01-11 18:03:57 GMT 47.67717 -5.77916 33,975 88 452 64
2018-01-11 18:03:52 GMT 47.67691 -5.79336 33,975 88 453 -64
2018-01-11 18:03:50 GMT 47.67680 -5.80106 33,975 88 453 -128
2018-01-11 18:03:47 GMT 47.67659 -5.81156 33,975 88 453 -64
2018-01-11 18:03:41 GMT 47.67632 -5.82818 33,975 88 453 0
2018-01-11 18:03:39 GMT 47.67622 -5.83326 33,975 88 453 -64
2018-01-11 18:03:37 GMT 47.67610 -5.84128 33,975 88 453 -64
2018-01-11 18:03:32 GMT 47.67586 -5.85626 33,975 88 454 0
2018-01-11 18:03:29 GMT 47.67573 -5.86437 33,975 88 454 0
2018-01-11 18:03:27 GMT 47.67558 -5.87247 33,975 88 454 -64
2018-01-11 18:03:21 GMT 47.67536 -5.89001 33,975 89 456 0
2018-01-11 18:03:18 GMT 47.67526 -5.90057 33,975 90 458 -64
2018-01-11 18:03:16 GMT 47.67526 -5.90646 33,975 90 460 -64
2018-01-11 18:03:11 GMT 47.67549 -5.92108 33,975 92 464 0
2018-01-11 18:03:09 GMT 47.67567 -5.92891 33,975 93 464 0
2018-01-11 18:03:06 GMT 47.67600 -5.93845 33,975 93 465 -64
2018-01-11 18:02:59 GMT 47.67731 -5.96149 33,975 96 473 -64
2018-01-11 18:02:56 GMT 47.67801 -5.97093 33,975 97 474 -64
2018-01-11 18:02:48 GMT 47.68024 -5.99558 33,975 97 476 0
2018-01-11 18:02:46 GMT 47.68118 -6.00600 33,975 97 476 0
2018-01-11 18:02:38 GMT 47.68313 -6.02748 33,975 97 476 0
2018-01-11 18:02:35 GMT 47.68402 -6.03706 33,975 97 476 64
2018-01-11 18:02:30 GMT 47.68537 -6.05220 33,975 97 476 -64
2018-01-11 18:02:27 GMT 47.68643 -6.06377 33,975 97 476 -64
2018-01-11 18:02:25 GMT 47.68698 -6.07022 33,975 97 476 0
2018-01-11 18:02:20 GMT 47.68834 -6.08544 33,975 97 477 0
2018-01-11 18:02:17 GMT 47.68913 -6.09432 33,975 97 477 0
2018-01-11 18:02:13 GMT 47.69064 -6.11101 33,975 97 477 0
2018-01-11 18:02:10 GMT 47.69137 -6.11939 33,975 97 476 0
2018-01-11 18:02:06 GMT 47.69235 -6.13016 33,975 97 476 0
2018-01-11 18:02:03 GMT 47.69347 -6.14284 33,975 97 476 0
2018-01-11 18:01:59 GMT 47.69453 -6.15523 33,975 97 476 0
2018-01-11 18:01:56 GMT 47.69514 -6.16227 33,975 97 477 -64
2018-01-11 18:01:53 GMT 47.69595 -6.17212 33,975 97 477 0
2018-01-11 18:01:46 GMT 47.69789 -6.19474 33,975 96 477 -64
2018-01-11 18:01:43 GMT 47.69882 -6.20587 33,975 96 477 0
2018-01-11 18:01:36 GMT 47.70068 -6.22833 33,975 97 477 0
2018-01-11 18:01:33 GMT 47.70147 -6.23798 33,975 97 478 -64
2018-01-11 18:01:26 GMT 47.70366 -6.26164 33,975 99 481 -64
2018-01-11 18:01:23 GMT 47.70478 -6.27157 33,975 100 483 0
2018-01-11 18:01:16 GMT 47.70790 -6.29448 33,975 103 487 -64
2018-01-11 18:01:13 GMT 47.70943 -6.30418 33,975 104 489 64
2018-01-11 18:01:05 GMT 47.71381 -6.32777 33,975 107 494 -64
2018-01-11 18:01:02 GMT 47.71628 -6.33953 33,975 107 494 0
2018-01-11 18:00:55 GMT 47.72113 -6.36060 33,975 107 494 0
2018-01-11 18:00:52 GMT 47.72287 -6.37090 33,975 107 494 0
2018-01-11 18:00:45 GMT 47.72795 -6.39459 33,975 108 496 0
2018-01-11 18:00:42 GMT 47.72996 -6.40341 33,975 109 497 0
2018-01-11 18:00:34 GMT 47.73629 -6.42996 33,975 110 500 0
2018-01-11 18:00:32 GMT 47.73793 -6.43648 33,975 110 500 0
2018-01-11 18:00:24 GMT 47.74412 -6.46017 33,975 111 501 0
2018-01-11 18:00:22 GMT 47.74654 -6.46923 33,975 111 501 -64
2018-01-11 18:00:14 GMT 47.75299 -6.49381 33,975 111 500 0
2018-01-11 18:00:12 GMT 47.75519 -6.50222 33,975 111 500 0
2018-01-11 18:00:03 GMT 47.76171 -6.52715 33,975 111 501 0
2018-01-11 18:00:01 GMT 47.76398 -6.53583 33,975 111 501 0
2018-01-11 17:59:54 GMT 47.76995 -6.55877 33,975 111 501 0
2018-01-11 17:59:51 GMT 47.77237 -6.56813 33,975 110 501 0
2018-01-11 17:59:43 GMT 47.77856 -6.59208 33,975 111 501 -64
2018-01-11 17:59:40 GMT 47.78119 -6.60217 33,975 111 501 -64
2018-01-11 17:59:33 GMT 47.78796 -6.62812 33,975 111 501 -64
2018-01-11 17:59:29 GMT 47.79030 -6.63711 33,975 111 501 0
2018-01-11 17:59:23 GMT 47.79579 -6.65828 33,975 111 502 0
2018-01-11 17:59:20 GMT 47.79830 -6.66807 33,975 111 502 0
2018-01-11 17:59:12 GMT 47.80468 -6.69236 33,975 111 502 -64
2018-01-11 17:59:10 GMT 47.80682 -6.70060 33,975 111 502 0
2018-01-11 17:59:02 GMT 47.81348 -6.72624 33,975 111 502 64
2018-01-11 17:59:00 GMT 47.81548 -6.73398 33,975 111 502 -64
2018-01-11 17:58:51 GMT 47.82186 -6.75856 33,975 111 504 0
2018-01-11 17:58:49 GMT 47.82395 -6.76659 33,975 111 504 0
2018-01-11 17:58:41 GMT 47.83076 -6.79264 33,975 111 504 -64
2018-01-11 17:58:38 GMT 47.83289 -6.80082 33,975 111 504 0
2018-01-11 17:58:29 GMT 47.84170 -6.83446 33,975 111 504 0
2018-01-11 17:58:21 GMT 47.84775 -6.85753 33,975 111 505 0
2018-01-11 17:58:17 GMT 47.85137 -6.87139 33,975 111 505 0
2018-01-11 17:58:11 GMT 47.85645 -6.89075 33,975 111 504 0
2018-01-11 17:58:07 GMT 47.85984 -6.90385 33,975 111 504 -64
2018-01-11 17:58:00 GMT 47.86515 -6.92413 33,975 111 504 0
2018-01-11 17:57:57 GMT 47.86912 -6.93945 33,975 111 504 0
2018-01-11 17:57:50 GMT 47.87407 -6.95853 33,975 111 504 0
2018-01-11 17:57:46 GMT 47.87732 -6.97117 33,975 111 503 0
2018-01-11 17:57:40 GMT 47.88235 -6.99053 33,975 111 503 0
2018-01-11 17:57:35 GMT 47.88606 -7.00481 33,975 111 503 -64
2018-01-11 17:57:29 GMT 47.89114 -7.02459 33,975 110 503 0
2018-01-11 17:57:25 GMT 47.89490 -7.03914 33,975 110 502 0
2018-01-11 17:57:19 GMT 47.89934 -7.05638 33,975 110 501 -64
2018-01-11 17:57:15 GMT 47.90309 -7.07094 33,975 110 501 0
2018-01-11 17:57:09 GMT 47.90863 -7.09257 33,975 110 501 0
2018-01-11 17:57:05 GMT 47.91138 -7.10342 33,975 110 501 0
2018-01-11 17:56:58 GMT 47.91682 -7.12470 33,975 110 500 0
2018-01-11 17:56:55 GMT 47.91976 -7.13632 33,975 110 500 -64
2018-01-11 17:56:48 GMT 47.92497 -7.15689 33,975 110 500 0
2018-01-11 17:56:45 GMT 47.92868 -7.17133 33,975 110 500 0
2018-01-11 17:56:38 GMT 47.93289 -7.18808 33,975 110 500 0
2018-01-11 17:56:34 GMT 47.93665 -7.20284 33,975 110 499 0
2018-01-11 17:56:28 GMT 47.94215 -7.22471 33,975 110 499 0
2018-01-11 17:56:23 GMT 47.94513 -7.23654 33,975 110 499 -64
2018-01-11 17:56:16 GMT 47.95095 -7.25985 33,975 110 498 0
2018-01-11 17:56:13 GMT 47.95354 -7.27006 33,975 110 498 0
2018-01-11 17:56:08 GMT 47.95784 -7.28723 33,975 110 498 0
2018-01-11 17:56:04 GMT 47.96175 -7.30295 33,975 110 498 0
2018-01-11 17:55:57 GMT 47.96668 -7.32266 33,975 110 498 0
2018-01-11 17:55:53 GMT 47.96965 -7.33468 33,975 110 498 -64
2018-01-11 17:55:47 GMT 47.97422 -7.35316 33,975 110 497 0
2018-01-11 17:55:41 GMT 47.97894 -7.37210 33,975 110 497 0
2018-01-11 17:55:37 GMT 47.98238 -7.38611 33,975 110 497 0
2018-01-11 17:55:32 GMT 47.98633 -7.40211 33,975 110 497 0
2018-01-11 17:55:27 GMT 47.99057 -7.41941 33,975 110 496 0
2018-01-11 17:55:22 GMT 47.99471 -7.43605 33,975 110 496 0
2018-01-11 17:55:16 GMT 47.99904 -7.45388 33,975 110 496 0
2018-01-11 17:55:12 GMT 48.00211 -7.46638 33,975 110 496 0
2018-01-11 17:55:05 GMT 48.00718 -7.48725 33,975 109 495 0
2018-01-11 17:55:02 GMT 48.01007 -7.49913 33,975 109 496 -64
2018-01-11 17:54:53 GMT 48.01707 -7.52797 33,975 109 496 0
2018-01-11 17:54:51 GMT 48.01872 -7.53477 33,975 109 495 0
2018-01-11 17:54:45 GMT 48.02366 -7.55542 33,975 109 495 -64
2018-01-11 17:54:40 GMT 48.02664 -7.56775 33,975 109 495 0
2018-01-11 17:54:35 GMT 48.03099 -7.58585 33,975 109 496 0
2018-01-11 17:54:31 GMT 48.03415 -7.59917 33,975 109 496 0
2018-01-11 17:54:25 GMT 48.03879 -7.61853 33,975 109 496 0
2018-01-11 17:54:21 GMT 48.04253 -7.63440 33,975 109 497 0
2018-01-11 17:54:15 GMT 48.04652 -7.65127 33,975 109 497 0
2018-01-11 17:54:10 GMT 48.05013 -7.66660 33,975 109 496 0
2018-01-11 17:54:04 GMT 48.05518 -7.68818 33,975 109 497 0
2018-01-11 17:54:00 GMT 48.05846 -7.70210 33,975 109 497 0
2018-01-11 17:53:53 GMT 48.06299 -7.72147 33,975 109 497 0
2018-01-11 17:53:49 GMT 48.06602 -7.73459 33,975 109 497 0
2018-01-11 17:53:44 GMT 48.07004 -7.75161 33,975 109 497 0
2018-01-11 17:53:38 GMT 48.07436 -7.77001 33,975 109 497 0
2018-01-11 17:53:33 GMT 48.07808 -7.78607 33,975 109 497 0
2018-01-11 17:53:29 GMT 48.08185 -7.80208 33,975 109 496 0
2018-01-11 17:53:22 GMT 48.08601 -7.81993 33,975 109 496 0
2018-01-11 17:53:18 GMT 48.08968 -7.83559 33,975 109 496 0
2018-01-11 17:53:12 GMT 48.09358 -7.85227 33,975 109 496 0
2018-01-11 17:53:07 GMT 48.09769 -7.86999 33,975 109 496 0
2018-01-11 17:53:02 GMT 48.10130 -7.88557 33,975 109 496 0
2018-01-11 17:52:57 GMT 48.10555 -7.90375 33,975 109 495 0
2018-01-11 17:52:52 GMT 48.10899 -7.91853 33,975 109 495 0
2018-01-11 17:52:47 GMT 48.11270 -7.93467 33,975 108 494 0
2018-01-11 17:52:40 GMT 48.11802 -7.95776 33,975 108 494 0
2018-01-11 17:52:37 GMT 48.12021 -7.96734 33,975 108 494 0
2018-01-11 17:52:31 GMT 48.12424 -7.98486 33,975 108 493 0
2018-01-11 17:52:26 GMT 48.12789 -8.00108 33,975 108 493 -64
2018-01-11 17:52:21 GMT 48.13206 -8.01940 33,975 108 491 0
2018-01-11 17:52:15 GMT 48.13604 -8.03692 33,975 108 491 0
2018-01-11 17:52:10 GMT 48.13998 -8.05470 33,975 108 491 0
2018-01-11 17:52:05 GMT 48.14319 -8.06946 33,975 107 490 0
2018-01-11 17:51:59 GMT 48.14708 -8.08807 33,975 106 489 -64
2018-01-11 17:51:55 GMT 48.14972 -8.10150 33,975 105 488 -64
2018-01-11 17:51:50 GMT 48.15289 -8.11854 33,975 104 487 0
2018-01-11 17:51:46 GMT 48.15568 -8.13488 33,975 103 487 -64
2018-01-11 17:51:39 GMT 48.15876 -8.15355 33,975 103 486 0
2018-01-11 17:51:35 GMT 48.16127 -8.16913 33,975 103 486 -64
2018-01-11 17:51:29 GMT 48.16425 -8.18742 33,975 103 486 0
2018-01-11 17:51:25 GMT 48.16653 -8.20194 33,975 103 486 0
2018-01-11 17:51:19 GMT 48.16960 -8.22108 33,975 104 486 0
2018-01-11 17:51:15 GMT 48.17216 -8.23608 33,975 105 488 0
2018-01-11 17:51:09 GMT 48.17505 -8.25179 33,975 106 488 0
2018-01-11 17:51:04 GMT 48.17831 -8.26851 33,975 107 489 0
2018-01-11 17:50:59 GMT 48.18203 -8.28622 33,975 108 490 0
2018-01-11 17:50:53 GMT 48.18599 -8.30348 33,975 109 491 0
2018-01-11 17:50:48 GMT 48.19038 -8.32116 33,975 110 491 0
2018-01-11 17:50:43 GMT 48.19437 -8.33686 33,975 110 491 0
2018-01-11 17:50:36 GMT 48.20056 -8.36132 33,975 110 491 0
2018-01-11 17:50:33 GMT 48.20214 -8.36768 33,975 110 490 0
2018-01-11 17:50:28 GMT 48.20615 -8.38344 33,975 110 490 -64
2018-01-11 17:50:23 GMT 48.21057 -8.40109 33,975 110 490 0
2018-01-11 17:50:17 GMT 48.21464 -8.41715 33,975 110 489 0
2018-01-11 17:50:11 GMT 48.21997 -8.43822 33,975 110 488 64
2018-01-11 17:50:07 GMT 48.22309 -8.45051 33,975 110 488 64
2018-01-11 17:50:02 GMT 48.22792 -8.46990 33,975 109 486 -64
2018-01-11 17:49:57 GMT 48.23099 -8.48250 33,975 109 486 -64
2018-01-11 17:49:52 GMT 48.23456 -8.49785 33,975 106 484 0
2018-01-11 17:49:47 GMT 48.23776 -8.51412 33,975 102 481 0
2018-01-11 17:49:41 GMT 48.24045 -8.53255 33,975 98 477 0
2018-01-11 17:49:36 GMT 48.24204 -8.54946 33,975 93 473 0
2018-01-11 17:49:32 GMT 48.24271 -8.56441 33,975 88 468 0
2018-01-11 17:49:26 GMT 48.24262 -8.58342 33,975 85 465 0
2018-01-11 17:49:22 GMT 48.24171 -8.59976 33,975 82 461 0
2018-01-11 17:49:16 GMT 48.23987 -8.61680 33,975 76 456 0
2018-01-11 17:49:10 GMT 48.23748 -8.63171 33,975 73 453 0
2018-01-11 17:49:01 GMT 48.23140 -8.65779 33,975 67 446 0
2018-01-11 17:48:59 GMT 48.22875 -8.66659 33,975 63 441 0
2018-01-11 17:48:49 GMT 48.21974 -8.69019 33,975 55 433 64
2018-01-11 17:48:39 GMT 48.20754 -8.71375 33,975 47 424 0
2018-01-11 17:48:29 GMT 48.19084 -8.73871 33,975 41 417 64
2018-01-11 17:48:18 GMT 48.17748 -8.75526 33,975 36 413 64
2018-01-11 17:48:09 GMT 48.16086 -8.77230 33,975 30 407 64
2018-01-11 17:47:58 GMT 48.14423 -8.78540 33,975 21 399 0
2018-01-11 17:47:47 GMT 48.12608 -8.79427 33,975 10 390 64
2018-01-11 17:47:37 GMT 48.10735 -8.79819 33,975 0 385 64
2018-01-11 17:47:26 GMT 48.08828 -8.79681 33,975 350 379 -64
2018-01-11 17:47:15 GMT 48.06942 -8.78984 33,975 340 377 64
2018-01-11 17:47:05 GMT 48.05313 -8.77864 33,975 329 376 0
2018-01-11 17:46:56 GMT 48.04023 -8.76547 33,975 320 378 0
2018-01-11 17:46:45 GMT 48.02747 -8.74731 33,975 308 382 64
2018-01-11 17:46:35 GMT 48.01626 -8.72420 33,950 300 387 64
2018-01-11 17:46:25 GMT 48.00838 -8.70035 33,950 290 394 0
2018-01-11 17:46:14 GMT 48.00271 -8.67145 33,975 280 400 -64
2018-01-11 17:46:04 GMT 48.00059 -8.64137 33,975 271 408 0
2018-01-11 17:45:54 GMT 48.00059 -8.61699 33,975 270 409 64
2018-01-11 17:45:44 GMT 48.00066 -8.58722 33,975 270 409 0
2018-01-11 17:45:33 GMT 48.00071 -8.55828 33,975 270 409 0
2018-01-11 17:45:23 GMT 48.00076 -8.52941 33,975 270 409 64
2018-01-11 17:45:15 GMT 48.00080 -8.50630 33,975 270 409 0
2018-01-11 17:45:12 GMT 48.00078 -8.49902 33,975 270 409 0
2018-01-11 17:45:09 GMT 48.00078 -8.49126 33,975 270 409 0
2018-01-11 17:45:03 GMT 48.00080 -8.47236 33,975 270 409 64
2018-01-11 17:44:59 GMT 48.00080 -8.46180 33,975 270 409 0
2018-01-11 17:44:53 GMT 48.00078 -8.44389 33,975 270 409 64
2018-01-11 17:44:49 GMT 48.00078 -8.43221 33,975 270 409 0
2018-01-11 17:44:42 GMT 48.00082 -8.41402 33,975 270 409 64
2018-01-11 17:44:39 GMT 48.00080 -8.40539 33,975 270 409 0
2018-01-11 17:44:32 GMT 48.00085 -8.38609 33,975 270 409 64
2018-01-11 17:44:29 GMT 48.00082 -8.37632 33,975 270 409 64
2018-01-11 17:44:21 GMT 48.00087 -8.35318 33,975 270 409 64
2018-01-11 17:44:19 GMT 48.00087 -8.34755 33,975 270 409 64
2018-01-11 17:44:12 GMT 48.00085 -8.32778 33,975 270 409 64
2018-01-11 17:44:08 GMT 48.00085 -8.31919 33,975 270 409 0
2018-01-11 17:44:02 GMT 48.00082 -8.29832 33,975 270 409 0
2018-01-11 17:43:57 GMT 48.00080 -8.28827 33,975 270 409 64
2018-01-11 17:43:51 GMT 48.00076 -8.26982 33,975 270 409 0
2018-01-11 17:43:45 GMT 48.00078 -8.25389 33,975 270 409 0
2018-01-11 17:43:41 GMT 48.00073 -8.23597 33,975 270 409 64
2018-01-11 17:43:37 GMT 48.00076 -8.23038 33,975 270 409 64
2018-01-11 17:43:30 GMT 48.00071 -8.21059 33,975 270 409 64
2018-01-11 17:43:25 GMT 48.00069 -8.19807 33,975 271 409 0
2018-01-11 17:43:19 GMT 48.00066 -8.18115 33,975 271 409 64
2018-01-11 17:43:17 GMT 48.00066 -8.17432 33,975 271 409 64
2018-01-11 17:43:10 GMT 48.00064 -8.15199 33,975 271 410 0
2018-01-11 17:43:06 GMT 48.00062 -8.14453 33,975 270 410 0
2018-01-11 17:42:59 GMT 48.00057 -8.12228 33,975 270 410 64
2018-01-11 17:42:54 GMT 48.00057 -8.11052 33,975 270 411 64
2018-01-11 17:42:49 GMT 48.00055 -8.09425 33,975 270 411 64
2018-01-11 17:42:46 GMT 48.00055 -8.08601 33,975 270 411 64
2018-01-11 17:42:38 GMT 48.00050 -8.06444 33,975 271 411 0
2018-01-11 17:42:35 GMT 48.00048 -8.05622 33,975 271 411 0
2018-01-11 17:42:29 GMT 48.00032 -8.03499 33,975 271 412 0
2018-01-11 17:42:25 GMT 48.00029 -8.02636 33,975 270 413 0
2018-01-11 17:42:17 GMT 48.00055 -8.00388 33,975 268 415 0
2018-01-11 17:42:15 GMT 48.00071 -7.99791 33,975 268 415 64
2018-01-11 17:42:08 GMT 48.00156 -7.97607 33,975 266 418 0
2018-01-11 17:42:04 GMT 48.00220 -7.96452 33,975 266 418 0
2018-01-11 17:41:57 GMT 48.00320 -7.94682 33,975 266 419 0
2018-01-11 17:41:53 GMT 48.00383 -7.93586 33,975 266 419 64
2018-01-11 17:41:47 GMT 48.00490 -7.91702 33,975 266 419 64
2018-01-11 17:41:43 GMT 48.00541 -7.90797 33,975 266 419 64
2018-01-11 17:41:37 GMT 48.00658 -7.88748 33,975 266 420 64
2018-01-11 17:41:32 GMT 48.00723 -7.87631 33,975 266 420 0
2018-01-11 17:41:25 GMT 48.00839 -7.85565 33,975 266 420 64
2018-01-11 17:41:23 GMT 48.00876 -7.84875 33,975 266 420 64
2018-01-11 17:41:15 GMT 48.01002 -7.82705 33,975 266 420 64
2018-01-11 17:41:12 GMT 48.01057 -7.81718 33,975 266 420 64
2018-01-11 17:41:05 GMT 48.01165 -7.79783 33,975 266 420 0
2018-01-11 17:41:03 GMT 48.01207 -7.79029 33,975 266 420 0
2018-01-11 17:40:56 GMT 48.01332 -7.76788 33,975 266 420 0
2018-01-11 17:40:52 GMT 48.01382 -7.75848 33,975 266 420 0
2018-01-11 17:40:45 GMT 48.01491 -7.73923 33,975 266 420 64
2018-01-11 17:40:41 GMT 48.01556 -7.72698 33,975 266 420 0
2018-01-11 17:40:34 GMT 48.01657 -7.70869 33,975 266 420 0
2018-01-11 17:40:31 GMT 48.01707 -7.69977 33,975 266 420 0
2018-01-11 17:40:24 GMT 48.01817 -7.67958 33,975 266 419 0
2018-01-11 17:40:22 GMT 48.01859 -7.67240 33,975 266 419 0
2018-01-11 17:40:14 GMT 48.01973 -7.65095 33,975 266 419 64
2018-01-11 17:40:11 GMT 48.02019 -7.64236 33,975 266 419 64
2018-01-11 17:40:03 GMT 48.02161 -7.61696 33,975 266 419 64
2018-01-11 17:40:01 GMT 48.02184 -7.61215 33,975 266 419 64
2018-01-11 17:39:54 GMT 48.02298 -7.59148 33,975 266 419 0
2018-01-11 17:39:51 GMT 48.02343 -7.58261 33,975 266 419 64
2018-01-11 17:39:43 GMT 48.02455 -7.56169 33,975 266 419 0
2018-01-11 17:39:41 GMT 48.02499 -7.55392 33,975 266 418 0
2018-01-11 17:39:33 GMT 48.02613 -7.53240 33,975 266 418 64
2018-01-11 17:39:31 GMT 48.02655 -7.52465 33,975 266 418 64
2018-01-11 17:39:22 GMT 48.02780 -7.50063 33,975 266 418 0
2018-01-11 17:39:20 GMT 48.02822 -7.49317 33,975 266 418 64
2018-01-11 17:39:13 GMT 48.02925 -7.47345 33,975 266 418 64
2018-01-11 17:39:10 GMT 48.02971 -7.46493 33,975 266 418 64
2018-01-11 17:39:03 GMT 48.03076 -7.44461 33,975 266 418 0
2018-01-11 17:38:58 GMT 48.03140 -7.43239 33,975 266 418 0
2018-01-11 17:38:52 GMT 48.03251 -7.41204 33,975 266 417 0
2018-01-11 17:38:49 GMT 48.03282 -7.40575 33,975 266 417 0
2018-01-11 17:38:42 GMT 48.03392 -7.38474 33,975 266 417 0
2018-01-11 17:38:38 GMT 48.03446 -7.37436 33,975 266 417 64
2018-01-11 17:38:32 GMT 48.03548 -7.35514 33,975 266 417 64
2018-01-11 17:38:28 GMT 48.03590 -7.34647 33,975 266 417 64
2018-01-11 17:38:21 GMT 48.03697 -7.32619 33,975 266 417 64
2018-01-11 17:38:16 GMT 48.03777 -7.31063 33,975 266 417 0
2018-01-11 17:38:12 GMT 48.03865 -7.29351 33,975 266 417 64
2018-01-11 17:38:08 GMT 48.03886 -7.28902 33,975 266 417 64
2018-01-11 17:38:01 GMT 48.04001 -7.26677 33,975 266 416 64
2018-01-11 17:37:58 GMT 48.04037 -7.25908 33,975 266 417 64
2018-01-11 17:37:51 GMT 48.04147 -7.23848 33,975 266 417 0
2018-01-11 17:37:48 GMT 48.04202 -7.22715 33,975 266 417 64
2018-01-11 17:37:41 GMT 48.04307 -7.20668 33,975 266 417 -64
2018-01-11 17:37:37 GMT 48.04340 -7.19999 33,975 266 417 0
2018-01-11 17:37:30 GMT 48.04452 -7.17844 33,975 266 417 0
2018-01-11 17:37:27 GMT 48.04489 -7.17111 33,975 266 417 128
2018-01-11 17:37:20 GMT 48.04596 -7.14901 33,950 266 419 -64
2018-01-11 17:37:17 GMT 48.04637 -7.14084 33,975 266 419 0
2018-01-11 17:37:10 GMT 48.04740 -7.11879 33,975 266 420 -64
2018-01-11 17:37:07 GMT 48.04778 -7.11168 33,975 266 421 0
2018-01-11 17:36:59 GMT 48.04889 -7.08852 33,975 266 421 -64
2018-01-11 17:36:56 GMT 48.04926 -7.08144 33,975 266 422 0
2018-01-11 17:36:49 GMT 48.05035 -7.05920 34,000 266 424 64
2018-01-11 17:36:45 GMT 48.05089 -7.04900 33,975 266 425 64
2018-01-11 17:36:38 GMT 48.05192 -7.02893 33,975 266 428 128
2018-01-11 17:36:35 GMT 48.05252 -7.01632 33,975 266 430 64
2018-01-11 17:36:28 GMT 48.05360 -6.99451 33,975 266 434 128
2018-01-11 17:36:25 GMT 48.05388 -6.98847 33,975 266 436 128
2018-01-11 17:36:17 GMT 48.05502 -6.96602 33,950 266 438 64
2018-01-11 17:36:14 GMT 48.05544 -6.95723 33,975 266 439 64
2018-01-11 17:36:08 GMT 48.05649 -6.93588 33,975 266 440 0
2018-01-11 17:36:05 GMT 48.05685 -6.92822 33,975 266 440 0
2018-01-11 17:35:56 GMT 48.05809 -6.90271 33,975 266 440 0
2018-01-11 17:35:54 GMT 48.05837 -6.89694 33,975 266 440 0
2018-01-11 17:35:47 GMT 48.05951 -6.87329 33,975 266 440 0
2018-01-11 17:35:44 GMT 48.05987 -6.86501 33,975 266 440 64
2018-01-11 17:35:36 GMT 48.06097 -6.84146 33,975 267 440 64
2018-01-11 17:35:34 GMT 48.06130 -6.83535 33,975 267 440 64
2018-01-11 17:35:24 GMT 48.06272 -6.80526 33,975 266 440 64
2018-01-11 17:35:15 GMT 48.06409 -6.77609 33,975 267 440 0
2018-01-11 17:35:13 GMT 48.06427 -6.77266 33,975 267 440 0
2018-01-11 17:35:05 GMT 48.06542 -6.74758 33,975 267 440 0
2018-01-11 17:35:03 GMT 48.06573 -6.74121 33,975 267 440 0
2018-01-11 17:34:53 GMT 48.06709 -6.71145 33,975 266 440 0
2018-01-11 17:34:43 GMT 48.06857 -6.68024 33,975 267 440 64
2018-01-11 17:34:34 GMT 48.06985 -6.65236 33,975 267 439 64
2018-01-11 17:34:32 GMT 48.07003 -6.64905 33,975 267 439 64
2018-01-11 17:34:24 GMT 48.07123 -6.62208 33,975 267 439 64
2018-01-11 17:34:22 GMT 48.07142 -6.61764 33,975 267 440 0
2018-01-11 17:34:14 GMT 48.07263 -6.59095 33,975 267 440 64
2018-01-11 17:34:12 GMT 48.07283 -6.58637 33,975 267 440 64
2018-01-11 17:34:02 GMT 48.07417 -6.55609 33,975 267 440 0
2018-01-11 17:33:51 GMT 48.07567 -6.52272 33,975 267 442 64
2018-01-11 17:33:41 GMT 48.07696 -6.49362 33,975 267 442 64
2018-01-11 17:33:33 GMT 48.07827 -6.46440 33,975 267 443 64
2018-01-11 17:33:30 GMT 48.07845 -6.45975 33,975 267 443 64
2018-01-11 17:33:27 GMT 48.07892 -6.45010 33,975 267 444 0
2018-01-11 17:33:20 GMT 48.07985 -6.42890 33,975 267 444 0
2018-01-11 17:33:16 GMT 48.08038 -6.41684 33,975 267 445 0
2018-01-11 17:33:12 GMT 48.08097 -6.40306 33,975 267 445 64
2018-01-11 17:33:10 GMT 48.08120 -6.39785 33,975 267 445 0
2018-01-11 17:33:07 GMT 48.08171 -6.38566 33,975 267 445 0
2018-01-11 17:33:00 GMT 48.08250 -6.36728 33,975 267 445 0
2018-01-11 17:32:57 GMT 48.08292 -6.35827 33,975 267 446 64
2018-01-11 17:32:51 GMT 48.08386 -6.33609 33,975 267 446 64
2018-01-11 17:32:49 GMT 48.08390 -6.33481 33,975 267 446 64
2018-01-11 17:32:47 GMT 48.08432 -6.32580 33,975 267 446 128
2018-01-11 17:32:41 GMT 48.08510 -6.30718 33,950 267 447 0
2018-01-11 17:32:39 GMT 48.08525 -6.30411 33,975 267 447 0
2018-01-11 17:32:35 GMT 48.08595 -6.28777 33,975 267 447 0
2018-01-11 17:32:31 GMT 48.08646 -6.27552 33,975 267 447 192
2018-01-11 17:32:29 GMT 48.08660 -6.27242 33,975 267 447 192
2018-01-11 17:32:26 GMT 48.08702 -6.26305 33,950 267 448 0
2018-01-11 17:32:20 GMT 48.08786 -6.24362 33,975 267 447 64
2018-01-11 17:32:18 GMT 48.08807 -6.23838 33,975 267 447 64
2018-01-11 17:32:16 GMT 48.08832 -6.23214 33,975 267 447 64
2018-01-11 17:32:09 GMT 48.08926 -6.20954 33,975 267 447 0
2018-01-11 17:32:05 GMT 48.08972 -6.19876 33,975 267 447 0
2018-01-11 17:31:58 GMT 48.09060 -6.17720 33,975 267 447 64
2018-01-11 17:31:56 GMT 48.09093 -6.16960 33,975 267 447 64
2018-01-11 17:31:48 GMT 48.09197 -6.14479 33,975 267 447 64
2018-01-11 17:31:45 GMT 48.09228 -6.13734 33,975 267 447 0
2018-01-11 17:31:38 GMT 48.09325 -6.11423 33,975 267 447 0
2018-01-11 17:31:35 GMT 48.09361 -6.10510 33,975 267 447 0
2018-01-11 17:31:28 GMT 48.09448 -6.08327 33,975 267 447 64
2018-01-11 17:31:23 GMT 48.09507 -6.06917 33,975 267 447 64
2018-01-11 17:31:19 GMT 48.09572 -6.05340 33,975 267 447 0
2018-01-11 17:31:17 GMT 48.09582 -6.05030 33,975 267 447 0
2018-01-11 17:31:13 GMT 48.09638 -6.03671 33,975 267 447 0
2018-01-11 17:31:07 GMT 48.09705 -6.01962 33,975 267 447 0
2018-01-11 17:31:05 GMT 48.09737 -6.01186 33,975 267 447 0
2018-01-11 17:30:57 GMT 48.09833 -5.98818 33,975 267 447 64
2018-01-11 17:30:55 GMT 48.09865 -5.98020 33,975 267 447 64
2018-01-11 17:30:48 GMT 48.09945 -5.95931 33,975 267 447 64
2018-01-11 17:30:45 GMT 48.09987 -5.94952 33,975 267 447 64
2018-01-11 17:30:36 GMT 48.10089 -5.92403 33,975 267 448 0
2018-01-11 17:30:34 GMT 48.10122 -5.91557 33,975 267 448 0
2018-01-11 17:30:27 GMT 48.10204 -5.89471 33,975 267 448 64
2018-01-11 17:30:25 GMT 48.10226 -5.88908 33,975 267 448 64
2018-01-11 17:30:22 GMT 48.10263 -5.87940 33,975 267 448 64
2018-01-11 17:30:16 GMT 48.10341 -5.86038 33,975 267 448 0
2018-01-11 17:30:14 GMT 48.10364 -5.85413 33,975 267 448 64
2018-01-11 17:30:06 GMT 48.10451 -5.83154 33,975 267 448 64
2018-01-11 17:30:04 GMT 48.10485 -5.82318 33,975 267 448 0
2018-01-11 17:29:56 GMT 48.10573 -5.79930 33,975 267 449 0
2018-01-11 17:29:54 GMT 48.10602 -5.79206 33,975 267 449 0
2018-01-11 17:29:45 GMT 48.10708 -5.76409 33,975 267 449 0
2018-01-11 17:29:43 GMT 48.10731 -5.75761 33,975 267 449 0
2018-01-11 17:29:35 GMT 48.10826 -5.73294 33,975 267 448 64
2018-01-11 17:29:32 GMT 48.10863 -5.72374 33,975 267 448 64
2018-01-11 17:29:25 GMT 48.10945 -5.70197 33,975 267 448 0
2018-01-11 17:29:22 GMT 48.10974 -5.69402 33,975 267 448 0
2018-01-11 17:29:14 GMT 48.11073 -5.66764 33,975 267 448 0
2018-01-11 17:29:12 GMT 48.11087 -5.66297 33,975 267 448 0
2018-01-11 17:29:05 GMT 48.11174 -5.63976 33,975 267 448 0
2018-01-11 17:29:02 GMT 48.11197 -5.63373 33,975 267 448 0
2018-01-11 17:28:55 GMT 48.11295 -5.60697 33,975 267 448 0
2018-01-11 17:28:52 GMT 48.11311 -5.60234 33,975 267 448 64
2018-01-11 17:28:48 GMT 48.11360 -5.58943 33,975 267 448 64
2018-01-11 17:28:44 GMT 48.11406 -5.57613 33,975 267 448 64
2018-01-11 17:28:42 GMT 48.11425 -5.57127 33,975 267 448 64
2018-01-11 17:28:40 GMT 48.11453 -5.56380 33,975 267 448 0
2018-01-11 17:28:34 GMT 48.11523 -5.54465 33,975 267 448 64
2018-01-11 17:28:32 GMT 48.11540 -5.54040 33,975 267 448 64
2018-01-11 17:28:30 GMT 48.11568 -5.53271 33,975 267 448 64
2018-01-11 17:28:22 GMT 48.11650 -5.50930 33,975 267 448 0
2018-01-11 17:28:19 GMT 48.11696 -5.49591 33,975 267 449 64
2018-01-11 17:28:12 GMT 48.11765 -5.47778 33,975 267 449 0
2018-01-11 17:28:09 GMT 48.11792 -5.46961 33,975 267 449 0
2018-01-11 17:28:01 GMT 48.11881 -5.44492 33,975 268 450 128
2018-01-11 17:27:59 GMT 48.11911 -5.43700 33,950 268 450 64
2018-01-11 17:27:52 GMT 48.11988 -5.41443 33,950 268 450 0
2018-01-11 17:27:48 GMT 48.12035 -5.40177 33,975 268 451 0
2018-01-11 17:27:41 GMT 48.12105 -5.38168 33,975 268 451 0
2018-01-11 17:27:37 GMT 48.12145 -5.36957 33,975 268 451 0
2018-01-11 17:27:31 GMT 48.12221 -5.34745 33,975 268 451 64
2018-01-11 17:27:28 GMT 48.12250 -5.33956 33,975 268 451 64
2018-01-11 17:27:23 GMT 48.12310 -5.32288 33,975 268 450 0
2018-01-11 17:27:20 GMT 48.12332 -5.31553 33,975 268 450 0
2018-01-11 17:27:17 GMT 48.12361 -5.30724 33,975 268 450 64
2018-01-11 17:27:14 GMT 48.12401 -5.29596 33,975 268 450 64
2018-01-11 17:27:11 GMT 48.12431 -5.28710 33,975 268 450 0
2018-01-11 17:27:07 GMT 48.12474 -5.27426 33,975 268 450 0
2018-01-11 17:27:02 GMT 48.12528 -5.25844 33,975 268 449 64
2018-01-11 17:27:00 GMT 48.12543 -5.25524 33,975 268 449 64
2018-01-11 17:26:55 GMT 48.12612 -5.23421 33,975 268 449 64
2018-01-11 17:26:52 GMT 48.12626 -5.22963 33,975 268 449 128
2018-01-11 17:26:50 GMT 48.12649 -5.22315 33,975 268 449 128
2018-01-11 17:26:44 GMT 48.12710 -5.20407 33,975 268 448 0
2018-01-11 17:26:42 GMT 48.12740 -5.19447 33,975 268 448 64
2018-01-11 17:26:40 GMT 48.12753 -5.19111 33,975 268 448 128
2018-01-11 17:26:34 GMT 48.12826 -5.16872 33,975 268 448 0
2018-01-11 17:26:30 GMT 48.12854 -5.16076 33,975 268 448 64
2018-01-11 17:26:25 GMT 48.12904 -5.14483 33,975 268 448 64
2018-01-11 17:26:23 GMT 48.12924 -5.13893 33,975 268 448 64
2018-01-11 17:26:21 GMT 48.12946 -5.13144 33,975 268 448 128
2018-01-11 17:26:19 GMT 48.12959 -5.12698 33,975 268 448 64
2018-01-11 17:26:13 GMT 48.13027 -5.10667 33,975 268 448 64
2018-01-11 17:26:10 GMT 48.13054 -5.09794 33,975 268 447 64
2018-01-11 17:26:05 GMT 48.13101 -5.08251 33,975 268 447 0
2018-01-11 17:26:03 GMT 48.13124 -5.07630 33,975 268 447 64
2018-01-11 17:26:01 GMT 48.13152 -5.06660 33,975 268 447 128
2018-01-11 17:25:59 GMT 48.13157 -5.06491 33,975 268 447 128
2018-01-11 17:25:54 GMT 48.13204 -5.05019 33,975 268 447 0
2018-01-11 17:25:52 GMT 48.13231 -5.04230 33,975 268 447 0
2018-01-11 17:25:49 GMT 48.13255 -5.03449 33,975 268 447 0
2018-01-11 17:25:44 GMT 48.13307 -5.01787 33,975 268 447 64
2018-01-11 17:25:42 GMT 48.13334 -5.01040 33,975 268 447 0
2018-01-11 17:25:38 GMT 48.13362 -5.00111 33,975 268 447 64
2018-01-11 17:25:34 GMT 48.13408 -4.98690 33,975 268 446 128
2018-01-11 17:25:32 GMT 48.13426 -4.98100 33,975 268 446 64
2018-01-11 17:25:29 GMT 48.13454 -4.97200 33,975 268 446 0
2018-01-11 17:25:22 GMT 48.13520 -4.94998 33,975 268 446 0
2018-01-11 17:25:19 GMT 48.13553 -4.94068 33,975 268 446 128
2018-01-11 17:25:18 GMT 48.13557 -4.93786 33,975 268 446 128
2018-01-11 17:25:12 GMT 48.13618 -4.91850 33,975 268 446 0
2018-01-11 17:25:09 GMT 48.13650 -4.90709 33,975 268 446 0
2018-01-11 17:25:08 GMT 48.13650 -4.90709 33,975 268 446 0
2018-01-11 17:25:02 GMT 48.13705 -4.88892 33,975 268 446 64
2018-01-11 17:24:58 GMT 48.13744 -4.87582 33,975 268 445 64
2018-01-11 17:24:58 GMT 48.13744 -4.87582 33,975 268 445 64
2018-01-11 17:24:53 GMT 48.13802 -4.85733 33,975 268 445 128
2018-01-11 17:24:48 GMT 48.13837 -4.84525 33,975 268 445 0
2018-01-11 17:24:48 GMT 48.13837 -4.84525 33,975 268 445 0
2018-01-11 17:24:45 GMT 48.13861 -4.83652 33,975 268 445 0
2018-01-11 17:24:42 GMT 48.13888 -4.82694 33,975 268 446 0
2018-01-11 17:24:39 GMT 48.13916 -4.81750 33,975 268 446 64
2018-01-11 17:24:37 GMT 48.13930 -4.81263 33,975 268 446 64
2018-01-11 17:24:35 GMT 48.13953 -4.80511 33,975 268 446 128
2018-01-11 17:24:32 GMT 48.13985 -4.79512 33,975 268 446 64
2018-01-11 17:24:30 GMT 48.13995 -4.79208 33,975 268 446 64
2018-01-11 17:24:28 GMT 48.14026 -4.78194 33,975 268 446 0
2018-01-11 17:24:27 GMT 48.14026 -4.78194 33,975 268 446 0
2018-01-11 17:24:21 GMT 48.14085 -4.76134 33,975 268 446 64
2018-01-11 17:24:19 GMT 48.14108 -4.75358 33,975 268 446 64
2018-01-11 17:24:17 GMT 48.14117 -4.75049 33,975 268 446 64
2018-01-11 17:24:16 GMT 48.14125 -4.74757 33,975 268 446 64
2018-01-11 17:24:10 GMT 48.14182 -4.72797 33,975 268 446 0
2018-01-11 17:24:07 GMT 48.14209 -4.71856 33,975 268 447 64
2018-01-11 17:24:07 GMT 48.14209 -4.71856 33,975 268 447 64
2018-01-11 17:24:02 GMT 48.14260 -4.70109 33,975 268 447 64
2018-01-11 17:23:59 GMT 48.14273 -4.69631 33,975 268 447 64
2018-01-11 17:23:56 GMT 48.14307 -4.68511 33,975 268 447 0
2018-01-11 17:23:56 GMT 48.14307 -4.68511 33,975 268 447 0
2018-01-11 17:23:51 GMT 48.14351 -4.66926 33,975 268 447 0
2018-01-11 17:23:49 GMT 48.14363 -4.66454 33,975 268 447 0
2018-01-11 17:23:46 GMT 48.14395 -4.65454 33,975 268 447 0
2018-01-11 17:23:41 GMT 48.14438 -4.63884 33,975 268 447 64
2018-01-11 17:23:37 GMT 48.14470 -4.62715 33,975 268 447 64
2018-01-11 17:23:35 GMT 48.14484 -4.62222 33,975 268 448 64
2018-01-11 17:23:31 GMT 48.14529 -4.60698 33,975 268 448 0
2018-01-11 17:23:27 GMT 48.14558 -4.59602 33,975 268 448 0
2018-01-11 17:23:25 GMT 48.14572 -4.59116 33,975 268 448 0
2018-01-11 17:23:20 GMT 48.14619 -4.57306 33,975 268 448 0
2018-01-11 17:23:17 GMT 48.14642 -4.56517 33,975 268 448 0
2018-01-11 17:23:15 GMT 48.14670 -4.55573 33,975 268 448 64
2018-01-11 17:23:12 GMT 48.14693 -4.54630 33,975 268 449 0
2018-01-11 17:23:09 GMT 48.14707 -4.54186 33,975 268 448 128
2018-01-11 17:23:06 GMT 48.14735 -4.53123 33,975 268 448 64
2018-01-11 17:23:04 GMT 48.14749 -4.52531 33,975 268 449 0
2018-01-11 17:23:01 GMT 48.14777 -4.51579 33,975 268 449 0
2018-01-11 17:22:59 GMT 48.14795 -4.50769 33,975 268 449 0
2018-01-11 17:22:56 GMT 48.14818 -4.49931 33,975 268 449 0
2018-01-11 17:22:54 GMT 48.14836 -4.49409 33,975 268 449 0
2018-01-11 17:22:50 GMT 48.14870 -4.48130 33,975 268 449 0
2018-01-11 17:22:46 GMT 48.14903 -4.46848 33,975 268 449 64
2018-01-11 17:22:44 GMT 48.14914 -4.46402 33,975 268 449 128
2018-01-11 17:22:42 GMT 48.14932 -4.45750 33,975 268 449 64
2018-01-11 17:22:40 GMT 48.14955 -4.44994 33,975 268 449 64
2018-01-11 17:22:34 GMT 48.15001 -4.43140 33,975 268 450 0
2018-01-11 17:22:32 GMT 48.15014 -4.42679 33,975 268 450 0
2018-01-11 17:22:30 GMT 48.15037 -4.41746 33,975 268 450 0
2018-01-11 17:22:28 GMT 48.15052 -4.41256 33,975 268 450 0
2018-01-11 17:22:24 GMT 48.15084 -4.39974 33,975 268 450 0
2018-01-11 17:22:22 GMT 48.15097 -4.39494 33,975 268 451 64
2018-01-11 17:22:19 GMT 48.15121 -4.38587 33,975 268 451 64
2018-01-11 17:22:17 GMT 48.15145 -4.37671 33,975 268 451 64
2018-01-11 17:22:14 GMT 48.15163 -4.36890 33,975 268 451 0
2018-01-11 17:22:12 GMT 48.15175 -4.36384 33,975 268 451 0
2018-01-11 17:22:09 GMT 48.15210 -4.34988 33,975 268 453 0
2018-01-11 17:22:07 GMT 48.15219 -4.34713 33,975 268 453 0
2018-01-11 17:22:05 GMT 48.15228 -4.34256 33,975 268 452 64
2018-01-11 17:22:01 GMT 48.15266 -4.32820 33,975 268 452 0
2018-01-11 17:21:59 GMT 48.15284 -4.32185 33,975 268 453 0
2018-01-11 17:21:56 GMT 48.15312 -4.30994 33,975 268 453 0
2018-01-11 17:21:54 GMT 48.15331 -4.30277 33,975 268 454 0
2018-01-11 17:21:51 GMT 48.15345 -4.29798 33,975 268 454 64
2018-01-11 17:21:48 GMT 48.15367 -4.28975 33,975 268 455 64
2018-01-11 17:21:45 GMT 48.15395 -4.27869 33,975 268 456 64
2018-01-11 17:21:43 GMT 48.15413 -4.27217 33,950 268 456 64
2018-01-11 17:21:38 GMT 48.15452 -4.25720 33,950 268 457 0
2018-01-11 17:21:36 GMT 48.15471 -4.24868 33,950 268 458 0
2018-01-11 17:21:34 GMT 48.15480 -4.24544 33,950 268 458 -64
2018-01-11 17:21:32 GMT 48.15500 -4.23763 33,950 268 458 -64
2018-01-11 17:21:29 GMT 48.15526 -4.22734 33,975 268 458 -64
2018-01-11 17:21:27 GMT 48.15537 -4.22363 33,975 269 459 -64
2018-01-11 17:21:25 GMT 48.15555 -4.21456 33,975 269 459 0
2018-01-11 17:21:23 GMT 48.15573 -4.20791 33,975 269 459 64
2018-01-11 17:21:21 GMT 48.15582 -4.20333 33,975 268 461 64
2018-01-11 17:21:19 GMT 48.15610 -4.19213 33,975 269 460 0
2018-01-11 17:21:17 GMT 48.15615 -4.19044 33,975 269 460 0
2018-01-11 17:21:15 GMT 48.15643 -4.17931 33,975 269 460 0
2018-01-11 17:21:12 GMT 48.15652 -4.17502 33,975 269 460 0
2018-01-11 17:21:08 GMT 48.15685 -4.16199 33,975 269 461 64
2018-01-11 17:21:06 GMT 48.15701 -4.15558 33,975 268 461 128
2018-01-11 17:21:04 GMT 48.15717 -4.14790 33,975 268 461 128
2018-01-11 17:21:01 GMT 48.15745 -4.13832 33,975 268 461 128
2018-01-11 17:20:58 GMT 48.15765 -4.12880 33,950 269 461 64
2018-01-11 17:20:56 GMT 48.15778 -4.12403 33,950 269 461 64
2018-01-11 17:20:54 GMT 48.15797 -4.11644 33,950 269 462 64
2018-01-11 17:20:52 GMT 48.15815 -4.10966 33,950 269 462 64
2018-01-11 17:20:50 GMT 48.15829 -4.10297 33,950 269 462 0
2018-01-11 17:20:48 GMT 48.15848 -4.09593 33,950 269 462 0
2018-01-11 17:20:46 GMT 48.15857 -4.09058 33,950 269 462 -64
2018-01-11 17:20:44 GMT 48.15871 -4.08492 33,950 269 462 0
2018-01-11 17:20:41 GMT 48.15894 -4.07552 33,975 269 462 64
2018-01-11 17:20:40 GMT 48.15898 -4.07250 33,975 269 463 0
2018-01-11 17:20:38 GMT 48.15916 -4.06419 33,975 269 463 0
2018-01-11 17:20:35 GMT 48.15939 -4.05464 33,975 269 463 64
2018-01-11 17:20:33 GMT 48.15950 -4.05107 33,975 269 463 64
2018-01-11 17:20:30 GMT 48.15969 -4.04205 33,975 269 463 0
2018-01-11 17:20:27 GMT 48.15994 -4.03136 33,975 269 463 -64
2018-01-11 17:20:25 GMT 48.16008 -4.02470 33,975 269 463 0
2018-01-11 17:20:23 GMT 48.16025 -4.01945 33,975 269 463 0
2018-01-11 17:20:20 GMT 48.16049 -4.00790 33,975 269 463 64
2018-01-11 17:20:18 GMT 48.16072 -3.99839 33,975 269 463 0
2018-01-11 17:20:15 GMT 48.16090 -3.99158 33,975 269 463 64
2018-01-11 17:20:13 GMT 48.16099 -3.98688 33,975 269 463 64
2018-01-11 17:20:10 GMT 48.16122 -3.97607 33,975 269 463 128
2018-01-11 17:20:08 GMT 48.16136 -3.96973 33,975 269 463 64
2018-01-11 17:20:06 GMT 48.16154 -3.96170 33,975 269 463 0
2018-01-11 17:20:03 GMT 48.16174 -3.95334 33,975 269 463 0
2018-01-11 17:20:00 GMT 48.16197 -3.94373 33,975 269 463 0
2018-01-11 17:19:56 GMT 48.16223 -3.93163 33,975 269 463 0
2018-01-11 17:19:56 GMT 48.16223 -3.93163 33,975 269 463 0
2018-01-11 17:19:53 GMT 48.16243 -3.92183 33,975 269 463 128
2018-01-11 17:19:49 GMT 48.16269 -3.91036 33,975 269 463 0
2018-01-11 17:19:47 GMT 48.16287 -3.90134 33,975 269 463 0
2018-01-11 17:19:43 GMT 48.16318 -3.88909 33,950 269 464 0
2018-01-11 17:19:40 GMT 48.16342 -3.87747 33,975 269 464 64
2018-01-11 17:19:39 GMT 48.16342 -3.87747 33,975 269 464 64
2018-01-11 17:19:36 GMT 48.16360 -3.86768 33,975 269 464 64
2018-01-11 17:19:34 GMT 48.16378 -3.86097 33,975 269 465 0
2018-01-11 17:19:32 GMT 48.16388 -3.85606 33,975 269 465 64
2018-01-11 17:19:29 GMT 48.16411 -3.84399 33,975 269 465 0
2018-01-11 17:19:28 GMT 48.16420 -3.84050 33,950 269 465 0
2018-01-11 17:19:26 GMT 48.16434 -3.83395 33,975 269 465 64
2018-01-11 17:19:22 GMT 48.16462 -3.82086 33,975 269 465 64
2018-01-11 17:19:18 GMT 48.16489 -3.80888 33,975 269 466 0
2018-01-11 17:19:16 GMT 48.16504 -3.80235 33,975 269 466 0
2018-01-11 17:19:14 GMT 48.16516 -3.79458 33,975 269 466 64
2018-01-11 17:19:11 GMT 48.16530 -3.78852 33,975 269 466 64
2018-01-11 17:19:09 GMT 48.16553 -3.77831 33,975 269 465 0
2018-01-11 17:19:06 GMT 48.16566 -3.77035 33,975 269 465 -64
2018-01-11 17:19:04 GMT 48.16583 -3.76246 33,975 269 465 64
2018-01-11 17:19:02 GMT 48.16594 -3.75753 33,975 269 465 64
2018-01-11 17:19:01 GMT 48.16602 -3.75422 33,975 269 465 64
2018-01-11 17:18:58 GMT 48.16620 -3.74460 33,975 269 464 64
2018-01-11 17:18:56 GMT 48.16640 -3.73683 33,975 269 463 0
2018-01-11 17:18:54 GMT 48.16653 -3.73007 33,975 269 463 64
2018-01-11 17:18:51 GMT 48.16663 -3.72387 33,975 269 463 64
2018-01-11 17:18:48 GMT 48.16686 -3.71287 33,975 269 462 64
2018-01-11 17:18:46 GMT 48.16704 -3.70340 33,975 269 462 64
2018-01-11 17:18:44 GMT 48.16714 -3.69842 33,975 269 462 0
2018-01-11 17:18:41 GMT 48.16732 -3.69032 33,975 269 461 0
2018-01-11 17:18:38 GMT 48.16751 -3.68078 33,975 269 461 0
2018-01-11 17:18:36 GMT 48.16759 -3.67641 33,975 269 461 64
2018-01-11 17:18:34 GMT 48.16777 -3.66619 33,975 269 461 64
2018-01-11 17:18:31 GMT 48.16793 -3.65968 33,975 269 461 64
2018-01-11 17:18:28 GMT 48.16811 -3.64847 33,975 269 460 0
2018-01-11 17:18:26 GMT 48.16825 -3.64341 33,975 269 460 64
2018-01-11 17:18:23 GMT 48.16846 -3.63267 33,975 269 459 64
2018-01-11 17:18:20 GMT 48.16859 -3.62366 33,975 269 459 64
2018-01-11 17:18:16 GMT 48.16890 -3.60713 33,975 269 458 64
2018-01-11 17:18:16 GMT 48.16890 -3.60713 33,975 269 458 64
2018-01-11 17:18:14 GMT 48.16895 -3.60402 33,975 269 458 64
2018-01-11 17:18:11 GMT 48.16910 -3.59591 33,975 269 458 64
2018-01-11 17:18:08 GMT 48.16928 -3.58610 33,975 269 456 64
2018-01-11 17:18:06 GMT 48.16942 -3.57957 33,975 269 457 64
2018-01-11 17:18:04 GMT 48.16951 -3.57468 33,950 269 457 64
2018-01-11 17:17:59 GMT 48.16992 -3.55330 33,975 269 456 0
2018-01-11 17:17:57 GMT 48.16992 -3.55154 33,975 269 456 0
2018-01-11 17:17:55 GMT 48.17011 -3.54164 33,975 269 456 64
2018-01-11 17:17:53 GMT 48.17020 -3.53689 33,975 269 456 64
2018-01-11 17:17:49 GMT 48.17043 -3.52499 33,975 269 456 64
2018-01-11 17:17:47 GMT 48.17053 -3.51873 33,975 269 456 64
2018-01-11 17:17:44 GMT 48.17072 -3.51049 33,975 269 456 64
2018-01-11 17:17:42 GMT 48.17086 -3.50269 33,975 269 457 -64
2018-01-11 17:17:40 GMT 48.17088 -3.49936 33,950 269 456 64
2018-01-11 17:17:38 GMT 48.17107 -3.49069 33,975 269 456 0
2018-01-11 17:17:34 GMT 48.17128 -3.47840 33,975 269 457 -64
2018-01-11 17:17:32 GMT 48.17142 -3.47175 33,975 269 456 128
2018-01-11 17:17:30 GMT 48.17152 -3.46576 33,975 269 457 0
2018-01-11 17:17:28 GMT 48.17162 -3.45900 33,975 269 456 64
2018-01-11 17:17:26 GMT 48.17180 -3.45076 33,975 269 456 128
2018-01-11 17:17:24 GMT 48.17188 -3.44602 33,975 269 456 128
2018-01-11 17:17:19 GMT 48.17212 -3.43229 33,975 269 456 128
2018-01-11 17:17:15 GMT 48.17239 -3.41788 33,950 269 456 128
2018-01-11 17:17:13 GMT 48.17249 -3.41292 33,950 269 456 128
2018-01-11 17:17:09 GMT 48.17272 -3.39955 33,950 269 457 192
2018-01-11 17:17:07 GMT 48.17281 -3.39340 33,950 269 457 192
2018-01-11 17:17:04 GMT 48.17303 -3.37949 33,925 269 458 128
2018-01-11 17:17:00 GMT 48.17317 -3.37132 33,925 269 458 128
2018-01-11 17:16:57 GMT 48.17336 -3.36217 33,925 269 458 128
2018-01-11 17:16:55 GMT 48.17347 -3.35567 33,925 269 458 128
2018-01-11 17:16:53 GMT 48.17358 -3.34921 33,925 269 458 128
2018-01-11 17:16:51 GMT 48.17374 -3.33970 33,925 269 458 128
2018-01-11 17:16:49 GMT 48.17374 -3.33804 33,900 269 458 128
2018-01-11 17:16:47 GMT 48.17390 -3.33041 33,900 269 458 128
2018-01-11 17:16:45 GMT 48.17403 -3.32228 33,900 269 458 128
2018-01-11 17:16:43 GMT 48.17409 -3.31759 33,900 269 458 128
2018-01-11 17:16:39 GMT 48.17430 -3.30378 33,900 269 459 192
2018-01-11 17:16:37 GMT 48.17436 -3.30055 33,900 269 459 128
2018-01-11 17:16:34 GMT 48.17454 -3.29062 33,900 269 459 192
2018-01-11 17:16:32 GMT 48.17463 -3.28433 33,875 269 459 128
2018-01-11 17:16:29 GMT 48.17482 -3.27343 33,875 269 459 128
2018-01-11 17:16:26 GMT 48.17500 -3.26364 33,875 269 459 64
2018-01-11 17:16:24 GMT 48.17509 -3.25687 33,875 269 459 64
2018-01-11 17:16:22 GMT 48.17519 -3.25217 33,875 269 459 64
2018-01-11 17:16:18 GMT 48.17542 -3.23766 33,875 269 459 128
2018-01-11 17:16:15 GMT 48.17551 -3.22969 33,875 269 459 128
2018-01-11 17:16:13 GMT 48.17570 -3.21928 33,875 269 458 128
2018-01-11 17:16:09 GMT 48.17583 -3.20935 33,850 269 458 192
2018-01-11 17:16:04 GMT 48.17607 -3.19514 33,850 269 457 256
2018-01-11 17:16:02 GMT 48.17617 -3.18726 33,825 269 457 256
2018-01-11 17:15:58 GMT 48.17640 -3.17382 33,825 269 457 192
2018-01-11 17:15:54 GMT 48.17656 -3.16181 33,800 269 457 256
2018-01-11 17:15:52 GMT 48.17665 -3.15674 33,800 269 457 256
2018-01-11 17:15:50 GMT 48.17679 -3.14913 33,800 269 458 320
2018-01-11 17:15:48 GMT 48.17691 -3.14252 33,800 269 457 256
2018-01-11 17:15:42 GMT 48.17719 -3.12380 33,750 269 458 320
2018-01-11 17:15:39 GMT 48.17743 -3.10962 33,750 269 458 128
2018-01-11 17:15:38 GMT 48.17743 -3.10962 33,750 269 458 128
2018-01-11 17:15:35 GMT 48.17756 -3.10111 33,750 269 458 128
2018-01-11 17:15:32 GMT 48.17770 -3.09040 33,725 269 459 192
2018-01-11 17:15:31 GMT 48.17770 -3.09040 33,725 269 459 192
2018-01-11 17:15:29 GMT 48.17780 -3.08463 33,725 269 459 192
2018-01-11 17:15:26 GMT 48.17789 -3.07554 33,725 269 459 256
2018-01-11 17:15:22 GMT 48.17817 -3.05622 33,700 269 458 320
2018-01-11 17:15:20 GMT 48.17816 -3.05448 33,700 269 458 256
2018-01-11 17:15:16 GMT 48.17835 -3.04300 33,675 269 458 192
2018-01-11 17:15:12 GMT 48.17853 -3.02941 33,675 269 457 320
2018-01-11 17:15:10 GMT 48.17862 -3.02300 33,650 269 457 384
2018-01-11 17:15:08 GMT 48.17877 -3.01336 33,625 269 457 384
2018-01-11 17:15:05 GMT 48.17887 -3.00650 33,625 269 457 320
2018-01-11 17:15:01 GMT 48.17905 -2.99312 33,600 269 458 384
2018-01-11 17:15:00 GMT 48.17908 -2.99166 33,600 269 458 448
2018-01-11 17:14:59 GMT 48.17912 -2.98849 33,600 269 458 448
2018-01-11 17:14:56 GMT 48.17929 -2.97910 33,575 269 458 512
2018-01-11 17:14:52 GMT 48.17944 -2.96793 33,550 269 458 512
2018-01-11 17:14:50 GMT 48.17956 -2.95836 33,525 269 459 512
2018-01-11 17:14:46 GMT 48.17972 -2.94610 33,475 269 459 640
2018-01-11 17:14:44 GMT 48.17980 -2.93957 33,475 269 459 640
2018-01-11 17:14:42 GMT 48.17990 -2.93455 33,450 269 459 640
2018-01-11 17:14:40 GMT 48.17999 -2.92532 33,425 270 459 640
2018-01-11 17:14:37 GMT 48.18008 -2.92027 33,400 269 460 576
2018-01-11 17:14:35 GMT 48.18022 -2.90783 33,375 270 460 448
2018-01-11 17:14:33 GMT 48.18026 -2.90480 33,350 270 460 512
2018-01-11 17:14:31 GMT 48.18036 -2.89714 33,350 270 460 512
2018-01-11 17:14:29 GMT 48.18040 -2.89244 33,325 270 460 512
2018-01-11 17:14:27 GMT 48.18050 -2.88729 33,325 270 460 512
2018-01-11 17:14:24 GMT 48.18063 -2.87391 33,275 270 460 512
2018-01-11 17:14:22 GMT 48.18068 -2.87208 33,275 269 459 512
2018-01-11 17:14:20 GMT 48.18077 -2.86375 33,250 269 459 512
2018-01-11 17:14:20 GMT 48.18077 -2.86519 33,250 269 459 512
2018-01-11 17:14:19 GMT 48.18087 -2.85659 33,250 269 459 512
2018-01-11 17:14:18 GMT 48.18091 -2.85525 33,250 269 459 512
2018-01-11 17:14:16 GMT 48.18096 -2.84871 33,225 269 459 512
2018-01-11 17:14:13 GMT 48.18105 -2.84215 33,200 269 459 512
2018-01-11 17:14:10 GMT 48.18119 -2.83259 33,175 270 459 512
2018-01-11 17:14:09 GMT 48.18127 -2.82743 33,150 270 459 512
2018-01-11 17:14:08 GMT 48.18129 -2.82450 33,150 270 459 512
2018-01-11 17:14:06 GMT 48.18133 -2.82016 33,150 270 459 512
2018-01-11 17:14:04 GMT 48.18147 -2.80961 33,125 269 458 512
2018-01-11 17:14:00 GMT 48.18155 -2.80257 33,100 269 458 512
2018-01-11 17:13:58 GMT 48.18169 -2.79461 33,075 269 458 512
2018-01-11 17:13:58 GMT 48.18169 -2.79461 33,075 269 458 512
2018-01-11 17:13:56 GMT 48.18173 -2.78834 33,050 270 459 512
2018-01-11 17:13:52 GMT 48.18194 -2.77195 33,000 270 460 512
2018-01-11 17:13:50 GMT 48.18198 -2.76856 33,000 270 459 512
2018-01-11 17:13:48 GMT 48.18205 -2.76208 32,975 270 460 512
2018-01-11 17:13:48 GMT 48.18205 -2.76208 32,975 270 460 512
2018-01-11 17:13:46 GMT 48.18212 -2.75619 32,975 270 460 512
2018-01-11 17:13:44 GMT 48.18219 -2.75158 32,950 270 460 512
2018-01-11 17:13:41 GMT 48.18233 -2.74214 32,925 270 460 512
2018-01-11 17:13:38 GMT 48.18247 -2.72876 32,900 270 461 384
2018-01-11 17:13:35 GMT 48.18260 -2.71806 32,875 270 461 320
2018-01-11 17:13:30 GMT 48.18278 -2.70256 32,850 270 461 448
2018-01-11 17:13:27 GMT 48.18287 -2.69541 32,850 270 461 448
2018-01-11 17:13:24 GMT 48.18296 -2.68601 32,825 270 460 512
2018-01-11 17:13:19 GMT 48.18315 -2.67134 32,775 270 460 640
2018-01-11 17:13:17 GMT 48.18324 -2.66144 32,750 270 460 640
2018-01-11 17:13:14 GMT 48.18333 -2.65363 32,725 270 460 576
2018-01-11 17:13:10 GMT 48.18343 -2.64351 32,700 270 460 576
2018-01-11 17:13:07 GMT 48.18352 -2.63221 32,650 270 460 640
2018-01-11 17:13:05 GMT 48.18357 -2.62667 32,625 270 459 512
2018-01-11 17:13:02 GMT 48.18371 -2.61677 32,600 270 459 0
2018-01-11 17:12:59 GMT 48.18384 -2.60249 32,575 270 459 640
2018-01-11 17:12:55 GMT 48.18394 -2.59530 32,550 270 459 640
2018-01-11 17:12:53 GMT 48.18399 -2.58880 32,525 270 459 640
2018-01-11 17:12:49 GMT 48.18413 -2.57593 32,500 270 458 512
2018-01-11 17:12:47 GMT 48.18417 -2.57008 32,475 270 458 512
2018-01-11 17:12:45 GMT 48.18425 -2.56341 32,450 270 458 512
2018-01-11 17:12:45 GMT 48.18425 -2.56341 32,450 270 458 576
2018-01-11 17:12:43 GMT 48.18434 -2.55545 32,425 270 457 576
2018-01-11 17:12:38 GMT 48.18448 -2.53834 32,375 270 458 1280
2018-01-11 17:12:35 GMT 48.18454 -2.53018 32,350 270 458 1216
2018-01-11 17:12:32 GMT 48.18466 -2.52045 32,275 270 458 1408
2018-01-11 17:12:29 GMT 48.18475 -2.51094 32,200 270 459 1408
2018-01-11 17:12:27 GMT 48.18485 -2.50516 32,175 270 460 1216
2018-01-11 17:12:24 GMT 48.18489 -2.49714 32,100 270 460 1152
2018-01-11 17:12:22 GMT 48.18498 -2.48946 32,075 270 461 896
2018-01-11 17:12:20 GMT 48.18507 -2.47960 32,025 270 461 512
2018-01-11 17:12:18 GMT 48.18512 -2.47629 32,000 270 461 512
2018-01-11 17:12:14 GMT 48.18520 -2.46434 31,975 270 462 0
2018-01-11 17:12:11 GMT 48.18530 -2.45594 31,950 270 462 0
2018-01-11 17:12:08 GMT 48.18539 -2.44573 31,950 270 462 0
2018-01-11 17:12:04 GMT 48.18553 -2.43256 31,975 270 462 0
2018-01-11 17:12:02 GMT 48.18557 -2.42458 31,975 270 462 0
2018-01-11 17:11:58 GMT 48.18571 -2.41345 31,950 270 463 0
2018-01-11 17:11:54 GMT 48.18581 -2.39974 31,975 270 463 0
2018-01-11 17:11:52 GMT 48.18590 -2.39143 31,975 270 464 0
2018-01-11 17:11:49 GMT 48.18599 -2.38319 31,975 270 464 0
2018-01-11 17:11:45 GMT 48.18608 -2.37206 31,975 270 464 128
2018-01-11 17:11:43 GMT 48.18613 -2.36671 31,950 270 466 -64
2018-01-11 17:11:41 GMT 48.18617 -2.35840 31,950 270 465 0
2018-01-11 17:11:38 GMT 48.18622 -2.34883 31,950 270 465 0
2018-01-11 17:11:36 GMT 48.18626 -2.34424 31,975 270 466 0
2018-01-11 17:11:33 GMT 48.18636 -2.33164 31,950 270 466 0
2018-01-11 17:11:31 GMT 48.18640 -2.32642 31,975 270 466 -64
2018-01-11 17:11:29 GMT 48.18645 -2.32144 31,950 270 466 -128
2018-01-11 17:11:27 GMT 48.18650 -2.31327 31,975 270 466 0
2018-01-11 17:11:23 GMT 48.18668 -2.29628 31,975 270 467 64
2018-01-11 17:11:21 GMT 48.18664 -2.29622 31,975 270 467 64
2018-01-11 17:11:18 GMT 48.18677 -2.28431 31,975 270 467 128
2018-01-11 17:11:16 GMT 48.18683 -2.27981 31,950 270 467 64
2018-01-11 17:11:13 GMT 48.18691 -2.26748 31,950 270 467 64
2018-01-11 17:11:11 GMT 48.18695 -2.26156 31,950 270 467 0
2018-01-11 17:11:07 GMT 48.18704 -2.24811 31,950 270 468 -64
2018-01-11 17:11:04 GMT 48.18709 -2.23854 31,975 270 467 64
2018-01-11 17:11:02 GMT 48.18715 -2.23174 31,950 270 468 -64
2018-01-11 17:11:00 GMT 48.18720 -2.22827 31,975 270 468 -64
2018-01-11 17:10:55 GMT 48.18729 -2.21114 31,975 270 468 0
2018-01-11 17:10:55 GMT 48.18729 -2.20926 31,950 270 467 0
2018-01-11 17:10:55 GMT 48.18729 -2.21114 31,975 270 467 64
2018-01-11 17:10:53 GMT 48.18736 -2.20107 31,975 270 467 0
2018-01-11 17:10:51 GMT 48.18738 -2.19813 31,975 270 467 0
2018-01-11 17:10:49 GMT 48.18743 -2.19112 31,975 270 467 -64
2018-01-11 17:10:46 GMT 48.18748 -2.18042 31,975 270 467 0
2018-01-11 17:10:44 GMT 48.18755 -2.17402 31,975 270 467 0
2018-01-11 17:10:41 GMT 48.18759 -2.16445 31,975 270 467 0
2018-01-11 17:10:39 GMT 48.18764 -2.15980 31,975 270 467 0
2018-01-11 17:10:37 GMT 48.18766 -2.15354 31,975 270 467 64
2018-01-11 17:10:34 GMT 48.18776 -2.14038 31,975 270 467 0
2018-01-11 17:10:31 GMT 48.18780 -2.13287 31,975 270 467 0
2018-01-11 17:10:29 GMT 48.18785 -2.12614 31,975 270 467 64
2018-01-11 17:10:27 GMT 48.18790 -2.12101 31,975 270 467 0
2018-01-11 17:10:25 GMT 48.18796 -2.11290 31,975 270 467 0
2018-01-11 17:10:22 GMT 48.18800 -2.10346 31,975 270 467 0
2018-01-11 17:10:20 GMT 48.18800 -2.09818 31,975 270 467 64
2018-01-11 17:10:18 GMT 48.18808 -2.08892 31,975 270 467 0
2018-01-11 17:10:15 GMT 48.18814 -2.07635 31,975 270 468 64
2018-01-11 17:10:10 GMT 48.18822 -2.06464 31,975 270 468 64
2018-01-11 17:10:08 GMT 48.18827 -2.05791 31,975 270 468 64
2018-01-11 17:10:04 GMT 48.18836 -2.04534 31,975 270 469 0
2018-01-11 17:10:00 GMT 48.18846 -2.03001 31,975 270 469 64
2018-01-11 17:09:57 GMT 48.18850 -2.02214 31,950 270 469 64
2018-01-11 17:09:53 GMT 48.18855 -2.01050 31,975 270 470 64
2018-01-11 17:09:50 GMT 48.18860 -1.99915 31,950 270 470 0
2018-01-11 17:09:48 GMT 48.18864 -1.99286 31,975 270 470 0
2018-01-11 17:09:47 GMT 48.18864 -1.99134 31,975 270 470 0
2018-01-11 17:09:45 GMT 48.18869 -1.98520 31,950 270 470 0
2018-01-11 17:09:42 GMT 48.18874 -1.97486 31,975 270 471 64
2018-01-11 17:09:40 GMT 48.18878 -1.96518 31,975 270 471 64
2018-01-11 17:09:37 GMT 48.18883 -1.95839 31,950 270 471 64
2018-01-11 17:09:35 GMT 48.18887 -1.95169 31,950 270 471 64
2018-01-11 17:09:33 GMT 48.18892 -1.94324 31,950 270 471 0
2018-01-11 17:09:31 GMT 48.18892 -1.93822 31,975 270 471 0
2018-01-11 17:09:29 GMT 48.18897 -1.93212 31,950 270 471 0
2018-01-11 17:09:27 GMT 48.18897 -1.92405 31,975 270 471 -64
2018-01-11 17:09:25 GMT 48.18901 -1.91944 31,950 270 471 -64
2018-01-11 17:09:23 GMT 48.18906 -1.90909 31,975 270 471 64
2018-01-11 17:09:19 GMT 48.18911 -1.89760 31,975 270 470 64
2018-01-11 17:09:16 GMT 48.18915 -1.88864 31,975 270 470 0
2018-01-11 17:09:14 GMT 48.18919 -1.88204 31,975 270 470 0
2018-01-11 17:09:11 GMT 48.18924 -1.87380 31,975 270 470 0
2018-01-11 17:09:08 GMT 48.18928 -1.86211 31,975 270 470 64
2018-01-11 17:09:06 GMT 48.18929 -1.85597 31,975 270 470 64
2018-01-11 17:09:04 GMT 48.18934 -1.84968 31,975 270 470 0
2018-01-11 17:09:01 GMT 48.18934 -1.83876 31,975 270 471 0
2018-01-11 17:08:58 GMT 48.18938 -1.82739 31,975 270 471 -64
2018-01-11 17:08:55 GMT 48.18939 -1.82055 31,975 270 471 64
2018-01-11 17:08:53 GMT 48.18942 -1.81549 31,975 270 471 64
2018-01-11 17:08:51 GMT 48.18943 -1.80696 31,975 270 471 64
2018-01-11 17:08:48 GMT 48.18947 -1.79838 31,975 270 471 64
2018-01-11 17:08:46 GMT 48.18953 -1.79120 31,975 270 471 64
2018-01-11 17:08:43 GMT 48.18953 -1.78159 31,975 270 471 0
2018-01-11 17:08:41 GMT 48.18957 -1.77458 31,975 270 471 0
2018-01-11 17:08:37 GMT 48.18962 -1.76374 31,975 270 471 64
2018-01-11 17:08:34 GMT 48.18965 -1.75260 31,975 270 471 64
2018-01-11 17:08:32 GMT 48.18965 -1.74767 31,975 270 472 64
2018-01-11 17:08:29 GMT 48.18970 -1.73669 31,975 270 472 -64
2018-01-11 17:08:27 GMT 48.18971 -1.72659 31,975 270 472 -64
2018-01-11 17:08:25 GMT 48.18974 -1.72338 31,975 270 472 0
2018-01-11 17:08:23 GMT 48.18976 -1.71705 31,975 270 472 64
2018-01-11 17:08:21 GMT 48.18976 -1.71206 31,975 270 471 0
2018-01-11 17:08:19 GMT 48.18979 -1.70380 31,975 270 472 64
2018-01-11 17:08:17 GMT 48.18981 -1.69710 31,975 270 472 0
2018-01-11 17:08:15 GMT 48.18981 -1.69052 31,975 270 472 0
2018-01-11 17:08:13 GMT 48.18984 -1.68422 31,975 270 472 0
2018-01-11 17:08:10 GMT 48.18985 -1.67151 31,950 270 472 64
2018-01-11 17:08:08 GMT 48.18990 -1.66494 31,950 270 472 0
2018-01-11 17:08:06 GMT 48.18990 -1.66024 31,950 270 472 0
2018-01-11 17:08:04 GMT 48.18995 -1.65380 31,975 270 472 0
2018-01-11 17:08:01 GMT 48.18997 -1.64351 31,975 270 472 0
2018-01-11 17:07:58 GMT 48.18997 -1.63668 31,975 270 472 64
2018-01-11 17:07:56 GMT 48.18997 -1.63013 31,975 270 472 0
2018-01-11 17:07:54 GMT 48.18999 -1.62164 31,975 270 472 0
2018-01-11 17:07:50 GMT 48.19004 -1.60892 31,975 270 472 0
2018-01-11 17:07:48 GMT 48.19004 -1.60046 31,975 270 471 0
2018-01-11 17:07:46 GMT 48.19004 -1.59576 31,975 270 471 0
2018-01-11 17:07:44 GMT 48.19006 -1.58703 31,975 270 471 0
2018-01-11 17:07:42 GMT 48.19009 -1.58246 31,975 270 471 -64
2018-01-11 17:07:39 GMT 48.19006 -1.56703 31,975 270 471 0
2018-01-11 17:07:35 GMT 48.19009 -1.56020 31,975 270 471 0
2018-01-11 17:07:32 GMT 48.19009 -1.54690 31,975 270 471 0
2018-01-11 17:07:30 GMT 48.19009 -1.54307 31,975 270 471 0
2018-01-11 17:07:26 GMT 48.19011 -1.52647 31,975 270 471 64
2018-01-11 17:07:23 GMT 48.19013 -1.51669 31,975 270 471 0
2018-01-11 17:07:20 GMT 48.19013 -1.51069 31,975 270 471 64
2018-01-11 17:07:18 GMT 48.19013 -1.50426 31,975 270 471 0
2018-01-11 17:07:16 GMT 48.19015 -1.49456 31,975 270 471 0
2018-01-11 17:07:14 GMT 48.19013 -1.49270 31,975 270 471 64
2018-01-11 17:07:11 GMT 48.19015 -1.47780 31,975 270 471 0
2018-01-11 17:07:09 GMT 48.19018 -1.47484 31,975 270 471 0
2018-01-11 17:07:07 GMT 48.19018 -1.46855 31,975 270 471 64
2018-01-11 17:07:05 GMT 48.19020 -1.46217 31,975 270 471 0
2018-01-11 17:07:04 GMT 48.19018 -1.45909 31,975 270 471 0
2018-01-11 17:07:02 GMT 48.19022 -1.45179 31,975 270 471 64
2018-01-11 17:06:59 GMT 48.19022 -1.44217 31,975 270 471 64
2018-01-11 17:06:57 GMT 48.19020 -1.43597 31,975 270 471 64
2018-01-11 17:06:55 GMT 48.19022 -1.42981 31,975 270 471 64
2018-01-11 17:06:53 GMT 48.19020 -1.42217 31,975 270 471 64
2018-01-11 17:06:50 GMT 48.19022 -1.41037 31,975 270 471 64
2018-01-11 17:06:48 GMT 48.19020 -1.40745 31,975 270 472 0
2018-01-11 17:06:46 GMT 48.19020 -1.40217 31,975 270 472 64
2018-01-11 17:06:44 GMT 48.19020 -1.39357 31,950 270 472 64
2018-01-11 17:06:43 GMT 48.19020 -1.39033 31,975 270 472 64
2018-01-11 17:06:41 GMT 48.19020 -1.38512 31,975 270 472 64
2018-01-11 17:06:39 GMT 48.19025 -1.37442 31,950 270 472 0
2018-01-11 17:06:36 GMT 48.19022 -1.36780 31,950 270 472 0
2018-01-11 17:06:33 GMT 48.19022 -1.35970 31,975 270 472 0
2018-01-11 17:06:29 GMT 48.19025 -1.34245 31,975 270 472 64
2018-01-11 17:06:27 GMT 48.19022 -1.33889 31,975 270 472 64
2018-01-11 17:06:25 GMT 48.19025 -1.33104 31,975 270 472 0
2018-01-11 17:06:23 GMT 48.19022 -1.32616 31,975 270 472 0
2018-01-11 17:06:17 GMT 48.19022 -1.30311 31,975 270 471 0
2018-01-11 17:06:15 GMT 48.19020 -1.29730 31,975 270 471 64
2018-01-11 17:06:12 GMT 48.19020 -1.29047 31,975 270 471 64
2018-01-11 17:06:07 GMT 48.19022 -1.27391 31,975 270 470 0
2018-01-11 17:06:04 GMT 48.19018 -1.25938 31,975 271 470 64
2018-01-11 17:06:02 GMT 48.19018 -1.25461 31,975 271 470 64
2018-01-11 17:05:58 GMT 48.19018 -1.24196 31,975 271 470 64
2018-01-11 17:05:55 GMT 48.19015 -1.23371 31,975 271 469 0
2018-01-11 17:05:53 GMT 48.19013 -1.22526 31,975 270 469 0
2018-01-11 17:05:51 GMT 48.19011 -1.22188 31,975 270 469 0
2018-01-11 17:05:46 GMT 48.19011 -1.20350 31,975 270 469 64
2018-01-11 17:05:44 GMT 48.19011 -1.19772 31,975 270 469 0
2018-01-11 17:05:42 GMT 48.19011 -1.19237 31,975 270 468 -64
2018-01-11 17:05:37 GMT 48.19009 -1.17604 31,975 270 468 -64
2018-01-11 17:05:34 GMT 48.19009 -1.16759 31,975 271 467 0
2018-01-11 17:05:31 GMT 48.19004 -1.15826 31,975 271 467 128
2018-01-11 17:05:29 GMT 48.19004 -1.15104 31,975 271 466 64
2018-01-11 17:05:27 GMT 48.19002 -1.14258 31,975 271 466 0
2018-01-11 17:05:24 GMT 48.19002 -1.13110 31,975 271 466 0
2018-01-11 17:05:21 GMT 48.18999 -1.12241 31,975 271 465 0
2018-01-11 17:05:18 GMT 48.18997 -1.11434 31,975 271 465 0
2018-01-11 17:05:15 GMT 48.18995 -1.10449 31,975 271 464 0
2018-01-11 17:05:12 GMT 48.18993 -1.09546 31,975 271 464 64
2018-01-11 17:05:10 GMT 48.18990 -1.09039 31,975 271 464 64
2018-01-11 17:05:06 GMT 48.18985 -1.07586 31,975 271 464 64
2018-01-11 17:05:02 GMT 48.18979 -1.06272 31,975 271 463 0
2018-01-11 17:05:00 GMT 48.18976 -1.05693 31,975 271 463 0
2018-01-11 17:04:57 GMT 48.18976 -1.04905 31,975 271 463 64
2018-01-11 17:04:55 GMT 48.18971 -1.04276 31,975 271 463 64
2018-01-11 17:04:52 GMT 48.18970 -1.03257 31,975 271 463 64
2018-01-11 17:04:52 GMT 48.18970 -1.03257 31,975 271 463 0
2018-01-11 17:04:50 GMT 48.18967 -1.02614 31,975 271 463 0
2018-01-11 17:04:45 GMT 48.18965 -1.00954 31,975 271 462 0
2018-01-11 17:04:42 GMT 48.18962 -0.99672 31,950 271 462 0
2018-01-11 17:04:40 GMT 48.18962 -0.99209 31,975 271 462 0
2018-01-11 17:04:34 GMT 48.18953 -0.97533 31,975 271 461 0
2018-01-11 17:04:31 GMT 48.18947 -0.96328 31,975 271 461 64
2018-01-11 17:04:29 GMT 48.18947 -0.95813 31,975 271 461 64
2018-01-11 17:04:26 GMT 48.18942 -0.94708 31,975 271 461 0
2018-01-11 17:04:23 GMT 48.18938 -0.93856 31,975 271 460 0
2018-01-11 17:04:21 GMT 48.18938 -0.93320 31,975 271 460 0
2018-01-11 17:04:19 GMT 48.18933 -0.92504 31,975 271 460 0
2018-01-11 17:04:15 GMT 48.18929 -0.91432 31,975 271 460 0
2018-01-11 17:04:13 GMT 48.18924 -0.90306 31,975 271 459 64
2018-01-11 17:04:10 GMT 48.18919 -0.89503 31,975 271 459 64
2018-01-11 17:04:07 GMT 48.18915 -0.88743 31,975 271 459 0
2018-01-11 17:04:05 GMT 48.18915 -0.88095 31,975 271 459 -64
2018-01-11 17:04:03 GMT 48.18911 -0.87450 31,975 271 459 0
2018-01-11 17:04:01 GMT 48.18906 -0.86655 31,975 271 459 64
2018-01-11 17:03:59 GMT 48.18906 -0.85862 31,975 271 459 0
2018-01-11 17:03:54 GMT 48.18897 -0.84609 31,975 271 459 0
2018-01-11 17:03:52 GMT 48.18897 -0.84002 31,975 271 459 0
2018-01-11 17:03:50 GMT 48.18892 -0.83510 31,975 271 459 0
2018-01-11 17:03:48 GMT 48.18887 -0.82764 31,975 271 459 0
2018-01-11 17:03:44 GMT 48.18883 -0.81422 31,975 271 459 0
2018-01-11 17:03:41 GMT 48.18878 -0.80395 31,975 271 459 64
2018-01-11 17:03:39 GMT 48.18874 -0.79860 31,975 271 459 64
2018-01-11 17:03:37 GMT 48.18874 -0.79299 31,975 271 459 64
2018-01-11 17:03:33 GMT 48.18864 -0.78059 31,975 271 460 0
2018-01-11 17:03:31 GMT 48.18860 -0.77235 31,975 271 460 0
2018-01-11 17:03:29 GMT 48.18855 -0.76275 31,975 271 460 0
2018-01-11 17:03:27 GMT 48.18855 -0.75770 31,975 271 460 0
2018-01-11 17:03:24 GMT 48.18846 -0.74855 31,975 271 460 64
2018-01-11 17:03:21 GMT 48.18842 -0.73968 31,975 271 460 64
2018-01-11 17:03:18 GMT 48.18837 -0.72960 31,975 271 460 64
2018-01-11 17:03:16 GMT 48.18836 -0.72633 31,975 271 460 64
2018-01-11 17:03:13 GMT 48.18828 -0.71637 31,975 271 460 64
2018-01-11 17:03:10 GMT 48.18823 -0.70693 31,975 271 461 0
2018-01-11 17:03:08 GMT 48.18822 -0.70016 31,950 271 461 0
2018-01-11 17:03:06 GMT 48.18819 -0.69369 31,950 271 461 0
2018-01-11 17:03:03 GMT 48.18808 -0.68144 31,975 271 461 0
2018-01-11 17:03:00 GMT 48.18804 -0.67371 31,975 271 461 0
2018-01-11 17:02:57 GMT 48.18794 -0.66200 31,975 271 462 0
2018-01-11 17:02:50 GMT 48.18782 -0.64164 31,975 271 462 0
2018-01-11 17:02:47 GMT 48.18776 -0.63229 31,975 271 462 0
2018-01-11 17:02:47 GMT 48.18776 -0.63229 31,975 271 462 0
2018-01-11 17:02:45 GMT 48.18773 -0.62692 31,975 271 462 0
2018-01-11 17:02:40 GMT 48.18759 -0.60861 31,975 271 463 0
2018-01-11 17:02:35 GMT 48.18750 -0.58953 31,975 271 463 0
2018-01-11 17:02:31 GMT 48.18741 -0.58164 31,975 271 463 0
2018-01-11 17:02:29 GMT 48.18741 -0.57650 31,975 271 463 0
2018-01-11 17:02:27 GMT 48.18732 -0.56819 31,975 271 463 0
2018-01-11 17:02:25 GMT 48.18727 -0.56016 31,975 271 463 0
2018-01-11 17:02:23 GMT 48.18727 -0.55636 31,975 271 463 0
2018-01-11 17:02:21 GMT 48.18722 -0.54939 31,975 271 463 64
2018-01-11 17:02:19 GMT 48.18718 -0.54284 31,975 271 464 64
2018-01-11 17:02:16 GMT 48.18706 -0.53125 31,975 271 464 64
2018-01-11 17:02:14 GMT 48.18704 -0.52615 31,975 271 464 0
2018-01-11 17:02:12 GMT 48.18701 -0.52098 31,975 271 465 0
2018-01-11 17:02:10 GMT 48.18695 -0.51601 31,975 271 464 0
2018-01-11 17:02:08 GMT 48.18692 -0.50978 31,975 271 464 0
2018-01-11 17:02:05 GMT 48.18683 -0.49561 31,975 271 465 64
2018-01-11 17:02:01 GMT 48.18668 -0.48079 31,975 271 465 64
2018-01-11 17:01:58 GMT 48.18664 -0.47632 31,975 271 465 64
2018-01-11 17:01:55 GMT 48.18658 -0.46650 31,975 271 465 0
2018-01-11 17:01:55 GMT 48.18659 -0.46836 31,975 271 465 0
2018-01-11 17:01:53 GMT 48.18654 -0.45854 31,950 271 466 0
2018-01-11 17:01:50 GMT 48.18645 -0.44878 31,975 271 466 0
2018-01-11 17:01:48 GMT 48.18640 -0.44396 31,975 271 466 64
2018-01-11 17:01:45 GMT 48.18631 -0.43461 31,975 271 466 64
2018-01-11 17:01:43 GMT 48.18626 -0.42642 31,975 271 466 64
2018-01-11 17:01:39 GMT 48.18617 -0.41396 31,975 271 467 0
2018-01-11 17:01:36 GMT 48.18608 -0.40700 31,975 271 467 0
2018-01-11 17:01:34 GMT 48.18603 -0.39883 31,975 271 467 0
2018-01-11 17:01:32 GMT 48.18599 -0.39197 31,975 271 467 64
2018-01-11 17:01:28 GMT 48.18585 -0.37628 31,975 271 467 64
2018-01-11 17:01:24 GMT 48.18576 -0.36614 31,975 271 467 64
2018-01-11 17:01:22 GMT 48.18572 -0.36114 31,975 271 468 64
2018-01-11 17:01:22 GMT 48.18567 -0.35607 31,950 271 467 64
2018-01-11 17:01:19 GMT 48.18558 -0.34621 31,950 271 468 0
2018-01-11 17:01:17 GMT 48.18558 -0.34480 31,975 271 468 0
2018-01-11 17:01:16 GMT 48.18553 -0.34044 31,975 271 468 0
2018-01-11 17:01:14 GMT 48.18549 -0.33403 31,975 271 468 0
2018-01-11 17:01:11 GMT 48.18539 -0.32417 31,975 271 468 0
2018-01-11 17:01:08 GMT 48.18529 -0.31434 31,975 271 469 0
2018-01-11 17:01:06 GMT 48.18529 -0.30964 31,975 271 469 0
2018-01-11 17:01:03 GMT 48.18512 -0.29452 31,975 271 469 0
2018-01-11 17:01:01 GMT 48.18507 -0.29114 31,975 271 469 0
2018-01-11 17:00:59 GMT 48.18501 -0.28449 31,975 271 469 0
2018-01-11 17:00:56 GMT 48.18494 -0.27649 31,975 271 469 0
2018-01-11 17:00:54 GMT 48.18485 -0.26860 31,975 271 469 0
2018-01-11 17:00:50 GMT 48.18473 -0.25579 31,975 271 469 0
2018-01-11 17:00:48 GMT 48.18466 -0.24888 31,975 271 469 0
2018-01-11 17:00:46 GMT 48.18462 -0.24226 31,975 271 469 0
2018-01-11 17:00:44 GMT 48.18454 -0.23621 31,975 271 469 0
2018-01-11 17:00:42 GMT 48.18448 -0.22684 31,975 271 469 0
2018-01-11 17:00:40 GMT 48.18439 -0.22043 31,975 271 469 0
2018-01-11 17:00:38 GMT 48.18434 -0.21691 31,975 271 469 0
2018-01-11 17:00:36 GMT 48.18427 -0.21011 31,975 271 470 64
2018-01-11 17:00:34 GMT 48.18420 -0.20029 31,975 271 470 64
2018-01-11 17:00:32 GMT 48.18413 -0.19609 31,975 271 470 0
2018-01-11 17:00:30 GMT 48.18408 -0.19125 31,975 271 470 0
2018-01-11 17:00:27 GMT 48.18399 -0.18192 31,975 271 470 64
2018-01-11 17:00:25 GMT 48.18393 -0.17691 31,975 271 470 64
2018-01-11 17:00:23 GMT 48.18388 -0.16895 31,975 271 470 0
2018-01-11 17:00:21 GMT 48.18375 -0.15874 31,975 271 470 0
2018-01-11 17:00:19 GMT 48.18371 -0.15518 31,975 271 470 0
2018-01-11 17:00:16 GMT 48.18361 -0.14485 31,975 271 470 0
2018-01-11 17:00:13 GMT 48.18352 -0.13613 31,975 271 470 64
2018-01-11 17:00:08 GMT 48.18333 -0.12150 31,975 271 469 0
2018-01-11 17:00:06 GMT 48.18324 -0.11449 31,975 271 469 0
2018-01-11 17:00:04 GMT 48.18315 -0.10712 31,975 271 469 64
2018-01-11 17:00:02 GMT 48.18310 -0.10247 31,975 271 469 0
2018-01-11 17:00:00 GMT 48.18301 -0.09295 31,975 271 469 0
2018-01-11 16:59:58 GMT 48.18292 -0.08810 31,975 271 469 64
2018-01-11 16:59:56 GMT 48.18282 -0.07828 31,975 271 469 0
2018-01-11 16:59:54 GMT 48.18279 -0.07493 31,975 271 469 0
2018-01-11 16:59:52 GMT 48.18273 -0.06881 31,975 271 469 0
2018-01-11 16:59:49 GMT 48.18264 -0.05934 31,975 271 469 64
2018-01-11 16:59:47 GMT 48.18254 -0.05074 31,975 271 469 0
2018-01-11 16:59:45 GMT 48.18247 -0.04423 31,975 271 469 0
2018-01-11 16:59:42 GMT 48.18237 -0.03606 31,975 271 468 0
2018-01-11 16:59:38 GMT 48.18214 -0.02014 31,975 271 468 0
2018-01-11 16:59:37 GMT 48.18210 -0.01676 31,975 271 468 0
2018-01-11 16:59:35 GMT 48.18210 -0.01387 31,975 271 468 0
2018-01-11 16:59:33 GMT 48.18196 -0.00563 31,975 271 468 0
2018-01-11 16:59:31 GMT 48.18191 0.00056 31,975 271 467 0
2018-01-11 16:59:31 GMT 48.18194 -0.00130 31,975 271 468 0
2018-01-11 16:59:28 GMT 48.18178 0.01232 31,975 271 467 0
2018-01-11 16:59:25 GMT 48.18169 0.01909 31,975 271 467 64
2018-01-11 16:59:23 GMT 48.18157 0.02689 31,975 271 467 64
2018-01-11 16:59:21 GMT 48.18152 0.03260 31,975 271 466 64
2018-01-11 16:59:17 GMT 48.18138 0.04503 31,975 272 465 0
2018-01-11 16:59:15 GMT 48.18129 0.04987 31,975 271 466 64
2018-01-11 16:59:13 GMT 48.18119 0.05992 31,975 271 466 64
2018-01-11 16:59:11 GMT 48.18114 0.06465 31,975 271 466 0
2018-01-11 16:59:08 GMT 48.18100 0.07416 31,975 271 466 64
2018-01-11 16:59:06 GMT 48.18087 0.08319 31,975 271 466 64
2018-01-11 16:59:04 GMT 48.18082 0.08796 31,975 271 466 0
2018-01-11 16:59:02 GMT 48.18077 0.09338 31,975 271 466 0
2018-01-11 16:59:00 GMT 48.18068 0.09815 31,975 271 466 0
2018-01-11 16:58:56 GMT 48.18045 0.11745 31,975 272 465 64
2018-01-11 16:58:52 GMT 48.18031 0.12796 31,975 272 465 64
2018-01-11 16:58:50 GMT 48.18026 0.13111 31,975 272 465 64
2018-01-11 16:58:45 GMT 48.18004 0.14846 31,975 272 465 0
2018-01-11 16:58:43 GMT 48.17998 0.15301 31,975 272 466 -64
2018-01-11 16:58:40 GMT 48.17981 0.16325 31,975 272 466 0
2018-01-11 16:58:36 GMT 48.17967 0.17613 31,975 272 466 64
2018-01-11 16:58:34 GMT 48.17952 0.18525 31,975 272 466 64
2018-01-11 16:58:31 GMT 48.17944 0.19304 31,975 272 466 64
2018-01-11 16:58:29 GMT 48.17933 0.20000 31,975 272 466 0
2018-01-11 16:58:25 GMT 48.17912 0.21437 31,975 272 466 64
2018-01-11 16:58:22 GMT 48.17905 0.22204 31,975 272 467 64
2018-01-11 16:58:20 GMT 48.17894 0.22952 31,975 272 467 64
2018-01-11 16:58:15 GMT 48.17871 0.24571 31,975 272 467 0
2018-01-11 16:58:13 GMT 48.17863 0.25269 31,950 272 467 0
2018-01-11 16:58:09 GMT 48.17844 0.26586 31,975 272 467 0
2018-01-11 16:58:07 GMT 48.17835 0.27155 31,975 272 467 0
2018-01-11 16:58:04 GMT 48.17821 0.28001 31,975 272 467 0
2018-01-11 16:58:01 GMT 48.17812 0.28825 31,975 272 467 0
2018-01-11 16:57:58 GMT 48.17789 0.30342 31,975 272 467 0
2018-01-11 16:57:54 GMT 48.17770 0.31687 31,975 272 467 64
2018-01-11 16:57:51 GMT 48.17761 0.32323 31,975 272 467 64
2018-01-11 16:57:49 GMT 48.17752 0.32916 31,950 272 467 0
2018-01-11 16:57:45 GMT 48.17728 0.34246 31,975 272 467 0
2018-01-11 16:57:43 GMT 48.17715 0.35184 31,975 272 467 0
2018-01-11 16:57:41 GMT 48.17706 0.35846 31,975 272 467 0
2018-01-11 16:57:39 GMT 48.17702 0.36156 31,975 272 467 0
2018-01-11 16:57:37 GMT 48.17691 0.36819 31,975 272 467 0
2018-01-11 16:57:35 GMT 48.17682 0.37476 31,975 272 467 0
2018-01-11 16:57:32 GMT 48.17654 0.39103 31,975 272 467 64
2018-01-11 16:57:30 GMT 48.17654 0.39103 31,975 272 467 64
2018-01-11 16:57:28 GMT 48.17647 0.39537 31,975 272 467 64
2018-01-11 16:57:25 GMT 48.17631 0.40657 31,975 272 467 64
2018-01-11 16:57:22 GMT 48.17617 0.41611 31,975 272 467 64
2018-01-11 16:57:20 GMT 48.17603 0.42637 31,975 272 467 0
2018-01-11 16:57:18 GMT 48.17596 0.42973 31,975 272 467 0
2018-01-11 16:57:15 GMT 48.17579 0.43952 31,950 272 467 0
2018-01-11 16:57:13 GMT 48.17570 0.44661 31,975 272 467 0
2018-01-11 16:57:09 GMT 48.17551 0.45755 31,975 272 467 0
2018-01-11 16:57:07 GMT 48.17542 0.46388 31,975 272 467 0
2018-01-11 16:57:02 GMT 48.17514 0.48037 31,975 272 467 -64
2018-01-11 16:56:59 GMT 48.17496 0.49308 31,975 272 467 0
2018-01-11 16:56:57 GMT 48.17491 0.49598 31,975 272 467 64
2018-01-11 16:56:52 GMT 48.17463 0.51231 31,975 272 467 64
2018-01-11 16:56:50 GMT 48.17450 0.51875 31,975 272 467 0
2018-01-11 16:56:48 GMT 48.17436 0.52868 31,975 272 467 0
2018-01-11 16:56:46 GMT 48.17432 0.52995 31,975 272 467 0
2018-01-11 16:56:42 GMT 48.17400 0.54868 31,975 272 467 0
2018-01-11 16:56:37 GMT 48.17379 0.56117 31,975 272 467 0
2018-01-11 16:56:35 GMT 48.17370 0.56739 31,950 272 467 0
2018-01-11 16:56:31 GMT 48.17349 0.57946 31,975 272 467 64
2018-01-11 16:56:29 GMT 48.17337 0.58741 31,975 272 468 64
2018-01-11 16:56:25 GMT 48.17314 0.59970 31,975 272 468 0
2018-01-11 16:56:21 GMT 48.17291 0.61263 31,975 272 468 0
2018-01-11 16:56:19 GMT 48.17281 0.61939 31,975 272 468 0
2018-01-11 16:56:14 GMT 48.17254 0.63489 31,975 272 468 0
2018-01-11 16:56:11 GMT 48.17235 0.64581 31,975 272 468 0
2018-01-11 16:56:08 GMT 48.17221 0.65425 31,975 272 469 0
2018-01-11 16:56:06 GMT 48.17202 0.66388 31,975 272 469 0
2018-01-11 16:56:05 GMT 48.17198 0.66566 31,975 272 469 0
2018-01-11 16:56:04 GMT 48.17198 0.66742 31,975 272 469 0
2018-01-11 16:56:01 GMT 48.17175 0.67918 31,975 272 469 0
2018-01-11 16:55:59 GMT 48.17160 0.68773 31,975 272 469 64
2018-01-11 16:55:55 GMT 48.17139 0.70144 31,975 272 469 64
2018-01-11 16:55:53 GMT 48.17130 0.70439 31,975 272 469 0
2018-01-11 16:55:51 GMT 48.17114 0.71317 31,975 272 469 0
2018-01-11 16:55:47 GMT 48.17097 0.72221 31,975 272 469 0
2018-01-11 16:55:44 GMT 48.17077 0.73334 31,975 272 469 0
2018-01-11 16:55:44 GMT 48.17077 0.73334 31,975 272 469 0
2018-01-11 16:55:42 GMT 48.17067 0.73955 31,975 272 469 0
2018-01-11 16:55:40 GMT 48.17056 0.74580 31,975 272 469 0
2018-01-11 16:55:38 GMT 48.17043 0.75101 31,975 272 470 64
2018-01-11 16:55:36 GMT 48.17035 0.75755 31,975 272 470 0
2018-01-11 16:55:34 GMT 48.17010 0.76862 31,975 272 470 64
2018-01-11 16:55:34 GMT 48.17010 0.76862 31,975 272 470 64
2018-01-11 16:55:32 GMT 48.17010 0.76996 31,975 272 470 64
2018-01-11 16:55:29 GMT 48.16983 0.78343 31,975 272 470 0
2018-01-11 16:55:27 GMT 48.16979 0.78682 31,975 272 470 0
2018-01-11 16:55:22 GMT 48.16951 0.80316 31,975 272 470 0
2018-01-11 16:55:22 GMT 48.16951 0.80316 31,975 272 470 0
2018-01-11 16:55:19 GMT 48.16932 0.81263 31,975 272 470 64
2018-01-11 16:55:16 GMT 48.16914 0.82202 31,950 272 470 64
2018-01-11 16:55:13 GMT 48.16890 0.83344 31,950 272 471 64
2018-01-11 16:55:11 GMT 48.16881 0.83858 31,950 272 471 64
2018-01-11 16:55:08 GMT 48.16862 0.84869 31,950 272 471 0
2018-01-11 16:55:06 GMT 48.16848 0.85520 31,950 272 471 0
2018-01-11 16:55:03 GMT 48.16825 0.86640 31,950 272 471 0
2018-01-11 16:55:01 GMT 48.16809 0.87334 31,950 272 471 0
2018-01-11 16:54:57 GMT 48.16786 0.88665 31,950 272 471 0
2018-01-11 16:54:53 GMT 48.16754 0.90278 31,975 272 471 0
2018-01-11 16:54:51 GMT 48.16745 0.90567 31,975 272 471 0
2018-01-11 16:54:48 GMT 48.16727 0.91497 31,975 272 471 0
2018-01-11 16:54:46 GMT 48.16718 0.92010 31,975 272 471 0
2018-01-11 16:54:44 GMT 48.16699 0.92863 31,975 272 471 0
2018-01-11 16:54:42 GMT 48.16685 0.93511 31,975 272 470 0
2018-01-11 16:54:40 GMT 48.16672 0.94215 31,975 272 470 0
2018-01-11 16:54:40 GMT 48.16676 0.94020 31,975 272 470 0
2018-01-11 16:54:38 GMT 48.16658 0.94813 31,975 272 470 0
2018-01-11 16:54:36 GMT 48.16644 0.95516 31,975 272 470 64
2018-01-11 16:54:33 GMT 48.16631 0.96187 31,975 272 470 0
2018-01-11 16:54:30 GMT 48.16603 0.97447 31,975 272 470 0
2018-01-11 16:54:28 GMT 48.16589 0.98088 31,975 272 469 0
2018-01-11 16:54:25 GMT 48.16566 0.99243 31,975 272 469 -64
2018-01-11 16:54:20 GMT 48.16541 1.00568 31,975 272 469 0
2018-01-11 16:54:18 GMT 48.16523 1.01334 31,975 272 468 64
2018-01-11 16:54:15 GMT 48.16504 1.02281 31,975 272 468 64
2018-01-11 16:54:10 GMT 48.16462 1.04247 31,975 272 468 64
2018-01-11 16:54:08 GMT 48.16453 1.04883 31,975 272 468 64
2018-01-11 16:54:04 GMT 48.16434 1.05757 31,975 272 468 64
2018-01-11 16:54:01 GMT 48.16411 1.06927 31,975 272 468 64
2018-01-11 16:53:57 GMT 48.16388 1.08060 31,975 272 468 0
2018-01-11 16:53:53 GMT 48.16355 1.09415 31,975 272 468 0
2018-01-11 16:53:49 GMT 48.16333 1.10448 31,975 272 468 0
2018-01-11 16:53:47 GMT 48.16313 1.11461 31,975 272 468 64
2018-01-11 16:53:45 GMT 48.16299 1.12111 31,975 272 468 64
2018-01-11 16:53:41 GMT 48.16269 1.13335 31,975 272 468 64
2018-01-11 16:53:39 GMT 48.16257 1.13882 31,975 272 468 64
2018-01-11 16:53:36 GMT 48.16237 1.14807 31,975 272 469 64
2018-01-11 16:53:34 GMT 48.16223 1.15483 31,975 272 469 0
2018-01-11 16:53:31 GMT 48.16205 1.16392 31,975 272 469 0
2018-01-11 16:53:28 GMT 48.16182 1.17413 31,975 272 469 64
2018-01-11 16:53:28 GMT 48.16182 1.17413 31,975 272 469 0
2018-01-11 16:53:26 GMT 48.16164 1.18075 31,975 272 469 64
2018-01-11 16:53:25 GMT 48.16159 1.18349 31,975 272 469 0
2018-01-11 16:53:23 GMT 48.16146 1.19014 31,975 272 469 64
2018-01-11 16:53:21 GMT 48.16127 1.19671 31,975 272 469 0
2018-01-11 16:53:19 GMT 48.16109 1.20652 31,975 272 469 0
2018-01-11 16:53:18 GMT 48.16109 1.20652 31,975 272 469 0
2018-01-11 16:53:15 GMT 48.16090 1.21450 31,975 272 469 0
2018-01-11 16:53:13 GMT 48.16063 1.22575 31,975 272 469 0
2018-01-11 16:53:10 GMT 48.16052 1.23199 31,975 272 469 0
2018-01-11 16:53:08 GMT 48.16036 1.23843 31,975 272 469 64
2018-01-11 16:53:05 GMT 48.16006 1.25160 31,975 272 469 64
2018-01-11 16:53:02 GMT 48.15990 1.25828 31,975 272 469 64
2018-01-11 16:53:00 GMT 48.15976 1.26501 31,950 272 469 0
2018-01-11 16:52:57 GMT 48.15955 1.27286 31,950 272 469 0
2018-01-11 16:52:55 GMT 48.15936 1.28272 31,975 272 469 64
2018-01-11 16:52:53 GMT 48.15927 1.28582 31,975 272 469 0
2018-01-11 16:52:51 GMT 48.15912 1.29261 31,975 272 469 0
2018-01-11 16:52:49 GMT 48.15890 1.30258 31,975 272 469 0
2018-01-11 16:52:46 GMT 48.15875 1.30916 31,975 272 469 0
2018-01-11 16:52:46 GMT 48.15875 1.30916 31,975 272 469 0
2018-01-11 16:52:44 GMT 48.15857 1.31602 31,975 272 469 0
2018-01-11 16:52:42 GMT 48.15843 1.32179 31,975 272 469 64
2018-01-11 16:52:39 GMT 48.15820 1.33106 31,975 272 469 0
2018-01-11 16:52:37 GMT 48.15792 1.34280 31,975 272 469 64
2018-01-11 16:52:34 GMT 48.15783 1.34794 31,975 272 469 0
2018-01-11 16:52:32 GMT 48.15756 1.35812 31,975 272 469 0
2018-01-11 16:52:29 GMT 48.15743 1.36409 31,975 272 469 0
2018-01-11 16:52:25 GMT 48.15703 1.38118 31,975 272 469 64
2018-01-11 16:52:22 GMT 48.15680 1.39040 31,975 272 469 0
2018-01-11 16:52:17 GMT 48.15646 1.40495 31,975 272 469 0
2018-01-11 16:52:15 GMT 48.15629 1.41203 31,975 273 469 0
2018-01-11 16:52:15 GMT 48.15633 1.41019 31,975 273 469 0
2018-01-11 16:52:15 GMT 48.15633 1.41019 31,975 273 469 0
2018-01-11 16:52:13 GMT 48.15615 1.41696 31,975 273 469 0
2018-01-11 16:52:09 GMT 48.15587 1.42928 31,975 273 469 0
2018-01-11 16:52:07 GMT 48.15568 1.43543 31,975 273 469 0
2018-01-11 16:52:04 GMT 48.15537 1.44903 31,975 272 469 0
2018-01-11 16:52:02 GMT 48.15531 1.45210 31,975 272 469 0
2018-01-11 16:52:00 GMT 48.15512 1.46012 31,975 272 469 0
2018-01-11 16:51:55 GMT 48.15471 1.47682 31,975 273 469 64
2018-01-11 16:51:53 GMT 48.15454 1.48364 31,975 273 469 64
2018-01-11 16:51:50 GMT 48.15436 1.49029 31,975 273 469 64
2018-01-11 16:51:48 GMT 48.15422 1.49661 31,975 273 469 0
2018-01-11 16:51:45 GMT 48.15390 1.51014 31,975 273 469 0
2018-01-11 16:51:43 GMT 48.15373 1.51541 31,975 273 469 0
2018-01-11 16:51:41 GMT 48.15354 1.52407 31,975 273 469 0
2018-01-11 16:51:38 GMT 48.15335 1.53069 31,975 273 469 0
2018-01-11 16:51:34 GMT 48.15298 1.54421 31,975 273 469 0
2018-01-11 16:51:32 GMT 48.15280 1.55113 31,975 273 469 0
2018-01-11 16:51:30 GMT 48.15266 1.55635 31,975 273 470 64
2018-01-11 16:51:28 GMT 48.15247 1.56421 31,975 273 470 64
2018-01-11 16:51:24 GMT 48.15221 1.57564 31,975 273 470 0
2018-01-11 16:51:22 GMT 48.15202 1.58189 31,975 273 470 0
2018-01-11 16:51:20 GMT 48.15179 1.59034 31,975 273 470 0
2018-01-11 16:51:19 GMT 48.15173 1.59330 31,975 273 470 0
2018-01-11 16:51:16 GMT 48.15149 1.60140 31,975 273 470 0
2018-01-11 16:51:12 GMT 48.15106 1.61787 31,975 273 470 0
2018-01-11 16:51:09 GMT 48.15089 1.62443 31,975 273 470 0
2018-01-11 16:51:07 GMT 48.15070 1.63229 31,975 273 470 64
2018-01-11 16:51:03 GMT 48.15037 1.64541 31,975 273 470 64
2018-01-11 16:51:01 GMT 48.15019 1.65175 31,975 273 470 0
2018-01-11 16:50:56 GMT 48.14972 1.66971 31,975 273 470 0
2018-01-11 16:50:53 GMT 48.14954 1.67640 31,975 273 470 0
2018-01-11 16:50:50 GMT 48.14928 1.68654 31,975 273 470 0
2018-01-11 16:50:48 GMT 48.14907 1.69380 31,975 273 470 0
2018-01-11 16:50:45 GMT 48.14887 1.70226 31,950 273 470 0
2018-01-11 16:50:42 GMT 48.14861 1.71246 31,975 273 470 0
2018-01-11 16:50:39 GMT 48.14836 1.72073 31,975 273 470 0
2018-01-11 16:50:37 GMT 48.14813 1.72904 31,975 273 470 0
2018-01-11 16:50:35 GMT 48.14791 1.73838 31,975 273 470 0
2018-01-11 16:50:31 GMT 48.14763 1.74758 31,975 273 470 0
2018-01-11 16:50:29 GMT 48.14745 1.75458 31,975 273 470 0
2018-01-11 16:50:26 GMT 48.14717 1.76454 31,975 273 470 0
2018-01-11 16:50:23 GMT 48.14684 1.77767 31,975 273 470 0
2018-01-11 16:50:21 GMT 48.14675 1.78070 31,975 273 470 0
2018-01-11 16:50:18 GMT 48.14644 1.79125 31,975 273 469 0
2018-01-11 16:50:16 GMT 48.14628 1.79774 31,975 273 469 0
2018-01-11 16:50:15 GMT 48.14616 1.80100 31,975 273 469 0
2018-01-11 16:50:12 GMT 48.14594 1.81027 31,975 273 469 0
2018-01-11 16:50:10 GMT 48.14572 1.81648 31,975 273 469 0
2018-01-11 16:50:08 GMT 48.14557 1.82304 31,975 273 469 0
2018-01-11 16:50:05 GMT 48.14529 1.83176 31,975 273 469 64
2018-01-11 16:50:02 GMT 48.14498 1.84408 31,975 273 469 64
2018-01-11 16:50:00 GMT 48.14484 1.84887 31,975 273 469 0
2018-01-11 16:49:58 GMT 48.14456 1.85838 31,975 273 469 0
2018-01-11 16:49:54 GMT 48.14432 1.86725 31,975 273 469 0
2018-01-11 16:49:50 GMT 48.14397 1.87969 31,975 273 469 64
2018-01-11 16:49:47 GMT 48.14360 1.89198 31,975 273 469 64
2018-01-11 16:49:44 GMT 48.14339 1.90021 31,975 273 469 0
2018-01-11 16:49:41 GMT 48.14307 1.91148 31,975 273 469 0
2018-01-11 16:49:41 GMT 48.14307 1.91148 31,975 273 469 0
2018-01-11 16:49:37 GMT 48.14269 1.92487 31,975 273 469 0
2018-01-11 16:49:35 GMT 48.14251 1.93000 31,975 273 469 0
2018-01-11 16:49:33 GMT 48.14232 1.93697 31,975 273 469 64
2018-01-11 16:49:30 GMT 48.14209 1.94575 31,975 273 469 64
2018-01-11 16:49:26 GMT 48.14159 1.96243 31,975 273 469 0
2018-01-11 16:49:24 GMT 48.14153 1.96409 31,975 273 469 0
2018-01-11 16:49:22 GMT 48.14117 1.97603 31,975 273 469 0
2018-01-11 16:49:19 GMT 48.14099 1.98255 31,975 273 469 0
2018-01-11 16:49:14 GMT 48.14060 1.99648 31,975 273 469 0
2018-01-11 16:49:12 GMT 48.14040 2.00356 31,975 273 469 0
2018-01-11 16:49:09 GMT 48.14009 2.01338 31,975 273 469 0
2018-01-11 16:49:03 GMT 48.13948 2.03432 31,975 273 469 0
2018-01-11 16:49:01 GMT 48.13916 2.04423 31,975 273 469 0
2018-01-11 16:48:59 GMT 48.13907 2.04717 31,975 273 469 0
2018-01-11 16:48:54 GMT 48.13851 2.06656 31,975 273 470 0
2018-01-11 16:48:50 GMT 48.13823 2.07585 31,975 273 470 64
2018-01-11 16:48:48 GMT 48.13809 2.08071 31,975 273 470 64
2018-01-11 16:48:42 GMT 48.13747 2.10148 31,975 273 470 0
2018-01-11 16:48:40 GMT 48.13725 2.11001 31,975 273 470 0
2018-01-11 16:48:38 GMT 48.13711 2.11409 31,975 273 470 0
2018-01-11 16:48:36 GMT 48.13678 2.12536 31,975 273 470 0
2018-01-11 16:48:33 GMT 48.13646 2.13564 31,975 273 470 0
2018-01-11 16:48:31 GMT 48.13637 2.13842 31,975 273 470 0
2018-01-11 16:48:29 GMT 48.13614 2.14529 31,975 273 470 0
2018-01-11 16:48:29 GMT 48.13614 2.14529 31,975 273 470 0
2018-01-11 16:48:27 GMT 48.13599 2.15015 31,975 273 470 0
2018-01-11 16:48:25 GMT 48.13576 2.15811 31,975 273 470 64
2018-01-11 16:48:23 GMT 48.13557 2.16381 31,975 273 470 64
2018-01-11 16:48:20 GMT 48.13515 2.17741 31,975 273 470 0
2018-01-11 16:48:17 GMT 48.13492 2.18572 31,975 273 470 0
2018-01-11 16:48:14 GMT 48.13463 2.19390 31,975 273 470 0
2018-01-11 16:48:10 GMT 48.13432 2.20396 31,975 273 470 0
2018-01-11 16:48:08 GMT 48.13408 2.21227 31,975 273 470 0
2018-01-11 16:48:06 GMT 48.13394 2.21725 31,975 273 470 64
2018-01-11 16:48:02 GMT 48.13334 2.23600 31,975 273 470 64
2018-01-11 16:48:00 GMT 48.13329 2.23783 31,975 273 470 64
2018-01-11 16:47:58 GMT 48.13301 2.24628 31,975 273 470 64
2018-01-11 16:47:58 GMT 48.13301 2.24628 31,975 273 470 64
2018-01-11 16:47:56 GMT 48.13287 2.25121 31,975 273 470 0
2018-01-11 16:47:53 GMT 48.13261 2.25893 31,975 273 470 0
2018-01-11 16:47:50 GMT 48.13222 2.27008 31,950 273 470 0
2018-01-11 16:47:48 GMT 48.13204 2.27656 31,975 273 470 0
2018-01-11 16:47:45 GMT 48.13171 2.28671 31,975 273 470 0
2018-01-11 16:47:40 GMT 48.13106 2.30657 31,975 273 470 0
2018-01-11 16:47:38 GMT 48.13097 2.30981 31,975 273 470 64
2018-01-11 16:47:35 GMT 48.13065 2.31997 31,975 273 470 0
2018-01-11 16:47:33 GMT 48.13045 2.32614 31,975 273 470 0
2018-01-11 16:47:31 GMT 48.13022 2.33319 31,975 273 470 0
2018-01-11 16:47:28 GMT 48.12989 2.34319 31,975 273 470 0
2018-01-11 16:47:24 GMT 48.12957 2.35354 31,975 273 470 0
2018-01-11 16:47:19 GMT 48.12891 2.37366 31,975 273 470 64
2018-01-11 16:47:16 GMT 48.12868 2.38067 31,975 273 470 0
2018-01-11 16:47:14 GMT 48.12849 2.38616 31,975 273 470 0
2018-01-11 16:47:08 GMT 48.12770 2.40875 31,975 273 470 0
2018-01-11 16:47:04 GMT 48.12733 2.42023 31,975 273 471 0
2018-01-11 16:47:04 GMT 48.12733 2.42023 31,975 273 470 0
2018-01-11 16:47:02 GMT 48.12701 2.43009 31,975 273 471 64
2018-01-11 16:47:00 GMT 48.12691 2.43284 31,975 273 471 64
2018-01-11 16:46:57 GMT 48.12657 2.44260 31,975 273 471 64
2018-01-11 16:46:54 GMT 48.12620 2.45448 31,975 273 471 64
2018-01-11 16:46:45 GMT 48.12533 2.48150 31,975 273 471 0
2018-01-11 16:46:40 GMT 48.12482 2.49608 31,950 273 471 0
2018-01-11 16:46:38 GMT 48.12460 2.50289 31,975 273 471 0
2018-01-11 16:46:34 GMT 48.12415 2.51656 31,975 273 471 0
2018-01-11 16:46:31 GMT 48.12373 2.52830 31,975 273 471 0
2018-01-11 16:46:27 GMT 48.12318 2.54402 31,975 273 471 0
2018-01-11 16:46:25 GMT 48.12309 2.54725 31,975 273 471 0
2018-01-11 16:46:18 GMT 48.12230 2.57024 31,975 273 471 0
2018-01-11 16:46:15 GMT 48.12193 2.58087 31,975 273 471 0
2018-01-11 16:46:10 GMT 48.12145 2.59449 31,975 273 470 0
2018-01-11 16:46:08 GMT 48.12117 2.60252 31,975 273 470 0
2018-01-11 16:46:04 GMT 48.12068 2.61573 31,975 273 470 0
2018-01-11 16:46:00 GMT 48.12021 2.62930 31,975 273 470 0
2018-01-11 16:45:56 GMT 48.11975 2.64362 31,975 273 470 0
2018-01-11 16:45:52 GMT 48.11939 2.65306 31,975 273 470 0
2018-01-11 16:45:48 GMT 48.11881 2.67003 31,975 273 470 0
2018-01-11 16:45:45 GMT 48.11835 2.68249 31,975 273 470 0
2018-01-11 16:45:42 GMT 48.11816 2.68714 31,975 273 470 0
2018-01-11 16:45:40 GMT 48.11798 2.69362 31,975 273 470 0
2018-01-11 16:45:35 GMT 48.11742 2.70868 31,975 273 470 0
2018-01-11 16:45:32 GMT 48.11705 2.71939 31,975 273 470 0
2018-01-11 16:45:30 GMT 48.11677 2.72686 31,975 273 470 0
2018-01-11 16:45:25 GMT 48.11621 2.74320 31,975 274 469 64
2018-01-11 16:45:22 GMT 48.11579 2.75517 31,975 274 469 0
2018-01-11 16:45:18 GMT 48.11549 2.76347 31,975 274 469 0
2018-01-11 16:45:14 GMT 48.11499 2.77762 31,975 274 469 0
2018-01-11 16:45:12 GMT 48.11472 2.78421 31,975 274 469 0
2018-01-11 16:45:10 GMT 48.11458 2.78884 31,975 274 469 0
2018-01-11 16:45:08 GMT 48.11412 2.80110 31,975 274 469 0
2018-01-11 16:45:02 GMT 48.11355 2.81602 31,975 274 469 64
2018-01-11 16:45:02 GMT 48.11351 2.81764 31,975 274 469 64
2018-01-11 16:45:00 GMT 48.11339 2.82095 31,975 274 469 64
2018-01-11 16:44:58 GMT 48.11313 2.82849 31,975 274 469 0
2018-01-11 16:44:52 GMT 48.11238 2.84821 31,975 274 469 64
2018-01-11 16:44:52 GMT 48.11238 2.84821 31,975 274 469 0
2018-01-11 16:44:49 GMT 48.11197 2.85933 31,975 274 469 0
2018-01-11 16:44:47 GMT 48.11188 2.86278 31,975 274 469 0
2018-01-11 16:44:44 GMT 48.11137 2.87588 31,975 274 469 64
2018-01-11 16:44:42 GMT 48.11115 2.88206 31,975 274 469 64
2018-01-11 16:44:42 GMT 48.11115 2.88206 31,975 274 469 64
2018-01-11 16:44:39 GMT 48.11078 2.89181 31,975 274 469 64
2018-01-11 16:44:37 GMT 48.11057 2.89807 31,975 274 469 0
2018-01-11 16:44:34 GMT 48.11025 2.90638 31,975 274 470 0
2018-01-11 16:44:32 GMT 48.10995 2.91405 31,975 274 470 0
2018-01-11 16:44:32 GMT 48.10995 2.91405 31,975 274 470 0
2018-01-11 16:44:30 GMT 48.10969 2.92103 31,975 274 470 0
2018-01-11 16:44:27 GMT 48.10931 2.93108 31,975 274 470 0
2018-01-11 16:44:25 GMT 48.10913 2.93617 31,975 274 470 64
2018-01-11 16:44:22 GMT 48.10872 2.94743 31,975 274 470 64
2018-01-11 16:44:22 GMT 48.10872 2.94743 31,975 274 470 64
2018-01-11 16:44:19 GMT 48.10839 2.95567 31,975 274 471 0
2018-01-11 16:44:16 GMT 48.10801 2.96546 31,975 274 470 0
2018-01-11 16:44:12 GMT 48.10739 2.98217 31,975 274 471 0
2018-01-11 16:44:12 GMT 48.10739 2.98217 31,975 274 471 0
2018-01-11 16:44:07 GMT 48.10693 2.99432 31,975 274 471 0
2018-01-11 16:44:04 GMT 48.10652 3.00421 31,975 274 471 0
2018-01-11 16:44:01 GMT 48.10615 3.01413 31,975 274 471 0
2018-01-11 16:44:01 GMT 48.10615 3.01413 31,975 274 471 0
2018-01-11 16:43:56 GMT 48.10556 3.03030 31,975 274 471 0
2018-01-11 16:43:53 GMT 48.10503 3.04406 31,975 274 471 0
2018-01-11 16:43:46 GMT 48.10423 3.06443 31,975 274 471 0
2018-01-11 16:43:44 GMT 48.10405 3.06951 31,975 274 471 0
2018-01-11 16:43:39 GMT 48.10341 3.08640 31,975 274 471 0
2018-01-11 16:43:34 GMT 48.10285 3.10054 31,975 274 472 0
2018-01-11 16:43:32 GMT 48.10254 3.10831 31,975 274 472 0
2018-01-11 16:43:26 GMT 48.10182 3.12674 31,975 274 472 64
2018-01-11 16:43:24 GMT 48.10153 3.13419 31,975 274 472 0
2018-01-11 16:43:21 GMT 48.10117 3.14357 31,975 274 472 64
2018-01-11 16:43:18 GMT 48.10062 3.15706 31,950 274 472 64
2018-01-11 16:43:14 GMT 48.10025 3.16695 31,950 274 472 0
2018-01-11 16:43:12 GMT 48.09996 3.17378 31,950 274 472 0
2018-01-11 16:43:09 GMT 48.09947 3.18597 31,950 274 472 0
2018-01-11 16:43:03 GMT 48.09889 3.20118 31,975 274 472 0
2018-01-11 16:43:00 GMT 48.09842 3.21302 31,975 274 472 0
2018-01-11 16:42:52 GMT 48.09737 3.23946 31,975 274 472 0
2018-01-11 16:42:47 GMT 48.09677 3.25436 31,975 274 472 64
2018-01-11 16:42:39 GMT 48.09563 3.28196 31,975 274 472 0
2018-01-11 16:42:29 GMT 48.09414 3.31766 31,975 274 472 0
2018-01-11 16:42:20 GMT 48.09297 3.34554 31,975 274 471 0
2018-01-11 16:42:17 GMT 48.09279 3.35083 31,975 274 471 0
2018-01-11 16:42:15 GMT 48.09238 3.35969 31,975 274 471 0
2018-01-11 16:42:10 GMT 48.09181 3.37358 31,975 274 471 0
2018-01-11 16:42:05 GMT 48.09091 3.39484 31,975 274 471 0
2018-01-11 16:41:59 GMT 48.09032 3.40935 31,975 274 471 0
2018-01-11 16:41:55 GMT 48.08972 3.42389 31,975 274 471 0
2018-01-11 16:41:49 GMT 48.08897 3.44224 31,975 274 471 0
2018-01-11 16:41:42 GMT 48.08789 3.46701 31,975 274 471 0
2018-01-11 16:41:40 GMT 48.08771 3.47140 31,975 274 471 0
2018-01-11 16:41:38 GMT 48.08730 3.48098 31,975 274 471 0
2018-01-11 16:41:32 GMT 48.08646 3.50126 31,975 274 471 0
2018-01-11 16:41:31 GMT 48.08646 3.50126 31,975 274 471 0
2018-01-11 16:41:29 GMT 48.08613 3.50894 31,975 274 471 0
2018-01-11 16:41:26 GMT 48.08567 3.51971 31,975 274 471 0
2018-01-11 16:41:22 GMT 48.08502 3.53506 31,975 274 471 0
2018-01-11 16:41:19 GMT 48.08469 3.54302 31,975 274 471 64
2018-01-11 16:41:16 GMT 48.08432 3.55196 31,975 274 471 64
2018-01-11 16:41:12 GMT 48.08377 3.56465 31,975 274 471 0
2018-01-11 16:41:08 GMT 48.08322 3.57763 31,975 274 471 0
2018-01-11 16:41:01 GMT 48.08221 3.59994 31,975 274 471 0
2018-01-11 16:40:58 GMT 48.08171 3.61218 31,975 274 472 0
2018-01-11 16:40:56 GMT 48.08139 3.61887 31,975 274 472 0
2018-01-11 16:40:50 GMT 48.08073 3.63408 31,975 274 472 64
2018-01-11 16:40:47 GMT 48.08022 3.64605 31,975 274 472 0
2018-01-11 16:40:37 GMT 48.07873 3.68000 31,975 274 473 0
2018-01-11 16:40:34 GMT 48.07841 3.68756 31,975 274 473 0
2018-01-11 16:40:29 GMT 48.07773 3.70281 31,975 274 473 0
2018-01-11 16:40:25 GMT 48.07718 3.71571 31,975 274 473 0
2018-01-11 16:40:19 GMT 48.07622 3.73669 31,975 274 473 64
2018-01-11 16:40:14 GMT 48.07535 3.75629 31,975 274 473 0
2018-01-11 16:40:08 GMT 48.07448 3.77483 31,950 274 473 0
2018-01-11 16:40:05 GMT 48.07397 3.78575 31,975 274 473 0
2018-01-11 16:39:59 GMT 48.07324 3.80261 31,975 274 472 0
2018-01-11 16:39:53 GMT 48.07242 3.82050 31,975 274 472 0
2018-01-11 16:39:48 GMT 48.07164 3.83780 31,975 274 472 0
2018-01-11 16:39:41 GMT 48.07068 3.85979 31,975 274 472 0
2018-01-11 16:39:39 GMT 48.07040 3.86578 31,975 274 472 0
2018-01-11 16:39:36 GMT 48.06993 3.87634 31,975 274 472 0
2018-01-11 16:39:34 GMT 48.06949 3.88614 31,975 275 472 0
2018-01-11 16:39:32 GMT 48.06942 3.88754 31,975 274 472 0
2018-01-11 16:39:29 GMT 48.06891 3.89853 31,975 275 472 0
2018-01-11 16:39:27 GMT 48.06849 3.90670 31,975 275 472 0
2018-01-11 16:39:25 GMT 48.06825 3.91196 31,975 275 472 0
2018-01-11 16:39:23 GMT 48.06789 3.92008 31,975 274 472 64
2018-01-11 16:39:16 GMT 48.06688 3.94059 31,975 274 472 64
2018-01-11 16:39:13 GMT 48.06644 3.95092 31,975 274 472 0
2018-01-11 16:39:11 GMT 48.06607 3.95881 31,975 274 472 0
2018-01-11 16:39:05 GMT 48.06519 3.97732 31,975 274 472 0
2018-01-11 16:39:00 GMT 48.06444 3.99353 31,975 274 472 0
2018-01-11 16:38:56 GMT 48.06381 4.00713 31,975 275 472 0
2018-01-11 16:38:54 GMT 48.06356 4.01212 31,975 275 472 0
2018-01-11 16:38:51 GMT 48.06309 4.02255 31,975 275 472 0
2018-01-11 16:38:46 GMT 48.06221 4.04091 31,975 275 472 64
2018-01-11 16:38:43 GMT 48.06180 4.04963 31,950 275 472 64
2018-01-11 16:38:41 GMT 48.06160 4.05318 31,975 275 472 -64
2018-01-11 16:38:39 GMT 48.06123 4.06163 31,975 275 472 -64
2018-01-11 16:38:34 GMT 48.06053 4.07607 31,975 275 472 0
2018-01-11 16:38:32 GMT 48.06011 4.08544 31,975 275 472 64
2018-01-11 16:38:30 GMT 48.05969 4.09406 31,975 275 472 64
2018-01-11 16:38:25 GMT 48.05890 4.11001 31,975 275 472 0
2018-01-11 16:38:19 GMT 48.05823 4.12495 31,975 275 472 0
2018-01-11 16:38:13 GMT 48.05722 4.14569 31,975 275 472 0
2018-01-11 16:38:11 GMT 48.05699 4.15051 31,975 275 472 64
2018-01-11 16:38:07 GMT 48.05621 4.16657 31,975 275 472 0
2018-01-11 16:38:04 GMT 48.05562 4.17865 31,975 275 472 0
2018-01-11 16:37:59 GMT 48.05498 4.19149 31,975 275 472 0
2018-01-11 16:37:55 GMT 48.05443 4.20290 31,975 274 473 0
2018-01-11 16:37:51 GMT 48.05370 4.21806 31,975 275 473 0
2018-01-11 16:37:47 GMT 48.05308 4.23129 31,975 275 473 64
2018-01-11 16:37:40 GMT 48.05210 4.25143 31,975 275 473 64
2018-01-11 16:37:38 GMT 48.05173 4.25861 31,975 275 473 0
2018-01-11 16:37:36 GMT 48.05131 4.26678 31,975 275 473 0
2018-01-11 16:37:31 GMT 48.05054 4.28302 31,950 275 473 0
2018-01-11 16:37:29 GMT 48.05026 4.28845 31,950 275 473 0
2018-01-11 16:37:29 GMT 48.05001 4.29333 31,950 275 473 0
2018-01-11 16:37:26 GMT 48.04959 4.30178 31,950 275 473 0
2018-01-11 16:37:23 GMT 48.04926 4.30939 31,950 275 473 0
2018-01-11 16:37:18 GMT 48.04852 4.32401 31,950 275 473 0
2018-01-11 16:37:15 GMT 48.04788 4.33610 31,950 275 473 0
2018-01-11 16:37:12 GMT 48.04742 4.34516 31,950 275 473 0
2018-01-11 16:37:09 GMT 48.04706 4.35326 31,950 275 473 0
2018-01-11 16:37:06 GMT 48.04647 4.36453 31,975 275 472 0
2018-01-11 16:37:04 GMT 48.04615 4.37129 31,975 275 472 0
2018-01-11 16:36:59 GMT 48.04541 4.38540 31,975 275 472 64
2018-01-11 16:36:57 GMT 48.04504 4.39281 31,975 275 472 64
2018-01-11 16:36:54 GMT 48.04463 4.40112 31,975 275 472 0
2018-01-11 16:36:52 GMT 48.04413 4.41087 31,975 275 472 0
2018-01-11 16:36:48 GMT 48.04354 4.42277 31,975 275 472 0
2018-01-11 16:36:45 GMT 48.04293 4.43474 31,975 275 472 0
2018-01-11 16:36:42 GMT 48.04252 4.44348 31,975 275 472 0
2018-01-11 16:36:39 GMT 48.04198 4.45358 31,975 275 472 0
2018-01-11 16:36:37 GMT 48.04177 4.45827 31,975 275 472 0
2018-01-11 16:36:33 GMT 48.04089 4.47573 31,975 275 471 0
2018-01-11 16:36:28 GMT 48.04028 4.48848 31,975 275 471 0
2018-01-11 16:36:26 GMT 48.04009 4.49172 31,975 275 471 0
2018-01-11 16:36:24 GMT 48.03968 4.50130 31,975 275 471 0
2018-01-11 16:36:20 GMT 48.03916 4.51130 31,975 275 471 64
2018-01-11 16:36:18 GMT 48.03859 4.52396 31,975 275 471 64
2018-01-11 16:36:16 GMT 48.03845 4.52719 31,975 275 471 64
2018-01-11 16:36:14 GMT 48.03804 4.53550 31,975 275 471 64
2018-01-11 16:36:10 GMT 48.03758 4.54539 31,975 275 471 64
2018-01-11 16:36:06 GMT 48.03685 4.55987 31,975 275 471 0
2018-01-11 16:36:03 GMT 48.03630 4.56949 31,975 276 471 0
2018-01-11 16:36:00 GMT 48.03589 4.57725 31,975 276 470 0
2018-01-11 16:35:54 GMT 48.03474 4.59560 31,975 276 471 0
2018-01-11 16:35:52 GMT 48.03409 4.60567 31,975 276 471 0
2018-01-11 16:35:50 GMT 48.03381 4.60975 31,975 276 471 0
2018-01-11 16:35:46 GMT 48.03269 4.62665 31,975 276 471 64
2018-01-11 16:35:44 GMT 48.03264 4.62813 31,975 276 471 64
2018-01-11 16:35:42 GMT 48.03209 4.63650 31,975 276 471 64
2018-01-11 16:35:40 GMT 48.03163 4.64296 31,975 276 471 0
2018-01-11 16:35:35 GMT 48.03062 4.65896 31,975 276 471 0
2018-01-11 16:35:33 GMT 48.03003 4.66802 31,975 276 471 0
2018-01-11 16:35:31 GMT 48.02981 4.67151 31,975 276 471 0
2018-01-11 16:35:25 GMT 48.02834 4.69350 31,975 276 472 0
2018-01-11 16:35:21 GMT 48.02728 4.70970 31,975 276 472 0
2018-01-11 16:35:18 GMT 48.02669 4.71814 31,975 276 472 0
2018-01-11 16:35:15 GMT 48.02613 4.72722 31,950 276 472 0
2018-01-11 16:35:13 GMT 48.02600 4.72900 31,975 276 472 0
2018-01-11 16:35:11 GMT 48.02548 4.73680 31,975 276 472 0
2018-01-11 16:35:09 GMT 48.02504 4.74362 31,975 276 472 0
2018-01-11 16:35:04 GMT 48.02394 4.75990 31,950 276 472 0
2018-01-11 16:35:01 GMT 48.02334 4.76933 31,950 276 472 0
2018-01-11 16:34:57 GMT 48.02234 4.78427 31,975 276 472 -64
2018-01-11 16:34:51 GMT 48.02129 4.80138 31,975 276 471 0
2018-01-11 16:34:46 GMT 48.02019 4.81888 31,975 276 472 64
2018-01-11 16:34:43 GMT 48.01955 4.82842 31,975 277 471 64
2018-01-11 16:34:40 GMT 48.01904 4.83536 31,975 277 471 0
2018-01-11 16:34:33 GMT 48.01654 4.86265 31,975 280 470 0
2018-01-11 16:34:31 GMT 48.01617 4.86568 31,975 281 470 0
2018-01-11 16:34:29 GMT 48.01547 4.87208 31,975 283 470 64
2018-01-11 16:34:29 GMT 48.01523 4.87370 31,975 282 470 0
2018-01-11 16:34:24 GMT 48.01314 4.88948 31,975 284 469 64
2018-01-11 16:34:22 GMT 48.01221 4.89575 31,975 284 469 64
2018-01-11 16:34:20 GMT 48.01123 4.90187 31,975 285 469 64
2018-01-11 16:34:15 GMT 48.00844 4.91744 31,975 286 469 0
2018-01-11 16:34:13 GMT 48.00723 4.92366 31,975 288 468 0
2018-01-11 16:34:11 GMT 48.00590 4.92998 31,975 289 468 0
2018-01-11 16:34:08 GMT 48.00430 4.93719 31,975 289 468 0
2018-01-11 16:34:06 GMT 48.00285 4.94350 31,975 289 468 0
2018-01-11 16:34:03 GMT 48.00043 4.95427 31,975 289 468 0
2018-01-11 16:34:00 GMT 47.99803 4.96486 31,975 289 468 0
2018-01-11 16:33:58 GMT 47.99661 4.97103 31,975 289 468 64
2018-01-11 16:33:53 GMT 47.99318 4.98614 31,975 289 468 0
2018-01-11 16:33:49 GMT 47.99075 4.99679 31,975 289 468 64
2018-01-11 16:33:45 GMT 47.98718 5.01251 31,950 289 468 64
2018-01-11 16:33:41 GMT 47.98521 5.02110 31,975 289 468 0
2018-01-11 16:33:39 GMT 47.98375 5.02762 31,950 289 468 0
2018-01-11 16:33:36 GMT 47.98158 5.03709 31,975 289 468 64
2018-01-11 16:33:32 GMT 47.97874 5.04963 31,950 289 468 0
2018-01-11 16:33:28 GMT 47.97627 5.06033 31,975 289 468 0
2018-01-11 16:33:26 GMT 47.97399 5.07040 31,950 289 468 0
2018-01-11 16:33:22 GMT 47.97115 5.08287 31,975 289 468 -64
2018-01-11 16:33:17 GMT 47.96828 5.09546 31,975 289 467 0
2018-01-11 16:33:15 GMT 47.96696 5.10132 31,975 289 467 0
2018-01-11 16:33:10 GMT 47.96398 5.11428 31,975 289 467 64
2018-01-11 16:33:07 GMT 47.96132 5.12588 31,975 292 465 0
2018-01-11 16:33:05 GMT 47.95976 5.13213 31,975 292 465 0
2018-01-11 16:33:00 GMT 47.95663 5.14414 31,975 294 463 0
2018-01-11 16:32:58 GMT 47.95406 5.15315 31,975 296 461 0
2018-01-11 16:32:56 GMT 47.95234 5.15886 31,975 296 461 0
2018-01-11 16:32:54 GMT 47.95102 5.16289 31,975 299 459 0
2018-01-11 16:32:50 GMT 47.94736 5.17386 31,975 299 458 64
2018-01-11 16:32:47 GMT 47.94411 5.18266 31,975 301 457 64
2018-01-11 16:32:44 GMT 47.93980 5.19331 31,975 307 455 0
2018-01-11 16:32:39 GMT 47.93541 5.20299 31,975 307 455 0
2018-01-11 16:32:36 GMT 47.93088 5.21189 31,975 309 453 64
2018-01-11 16:32:34 GMT 47.92827 5.21682 31,975 308 453 64
2018-01-11 16:32:30 GMT 47.92287 5.22717 31,975 308 452 0
2018-01-11 16:32:26 GMT 47.91748 5.23773 31,975 307 451 64
2018-01-11 16:32:23 GMT 47.91361 5.24555 31,975 306 450 64
2018-01-11 16:32:20 GMT 47.90991 5.25325 31,975 305 448 64
2018-01-11 16:32:14 GMT 47.90428 5.26520 31,950 305 447 64
2018-01-11 16:32:11 GMT 47.90021 5.27412 31,950 304 447 64
2018-01-11 16:32:09 GMT 47.89792 5.27928 31,950 304 446 64
2018-01-11 16:32:06 GMT 47.89453 5.28690 31,950 303 445 0
2018-01-11 16:32:04 GMT 47.89224 5.29225 31,950 303 445 0
2018-01-11 16:32:01 GMT 47.88904 5.29981 31,950 302 444 0
2018-01-11 16:31:58 GMT 47.88577 5.30774 31,950 302 444 64
2018-01-11 16:31:54 GMT 47.88103 5.31964 31,950 300 442 192
2018-01-11 16:31:52 GMT 47.87952 5.32349 31,950 300 442 320
2018-01-11 16:31:47 GMT 47.87457 5.33668 31,925 299 441 576
2018-01-11 16:31:44 GMT 47.87218 5.34316 31,900 299 441 896
2018-01-11 16:31:42 GMT 47.86934 5.35105 31,875 299 441 896
2018-01-11 16:31:39 GMT 47.86569 5.36092 31,800 299 442 1024
2018-01-11 16:31:33 GMT 47.86101 5.37393 31,700 299 442 960
2018-01-11 16:31:28 GMT 47.85496 5.39048 31,625 299 442 704
2018-01-11 16:31:26 GMT 47.85388 5.39333 31,600 299 442 832
2018-01-11 16:31:22 GMT 47.84990 5.40418 31,550 299 442 704
2018-01-11 16:31:18 GMT 47.84602 5.41471 31,500 299 443 896
2018-01-11 16:31:16 GMT 47.84473 5.41818 31,500 299 443 896
2018-01-11 16:31:13 GMT 47.84074 5.42910 31,425 299 443 896
2018-01-11 16:31:09 GMT 47.83666 5.44020 31,375 299 443 960
2018-01-11 16:31:02 GMT 47.83066 5.45661 31,275 299 443 960
2018-01-11 16:31:00 GMT 47.82861 5.46213 31,225 299 443 960
2018-01-11 16:30:53 GMT 47.82143 5.48156 31,125 299 443 1024
2018-01-11 16:30:51 GMT 47.82028 5.48472 31,100 299 443 1024
2018-01-11 16:30:41 GMT 47.81013 5.51225 30,925 299 444 1024
2018-01-11 16:30:35 GMT 47.80417 5.52832 30,800 299 444 1024
2018-01-11 16:30:32 GMT 47.80100 5.53697 30,750 299 444 1024
2018-01-11 16:30:30 GMT 47.79951 5.54105 30,725 299 444 1024
2018-01-11 16:30:25 GMT 47.79448 5.55464 30,625 299 445 1024
2018-01-11 16:30:21 GMT 47.78983 5.56725 30,550 299 445 1024
2018-01-11 16:30:17 GMT 47.78671 5.57584 30,500 299 445 832
2018-01-11 16:30:14 GMT 47.78303 5.58577 30,425 299 445 832
2018-01-11 16:30:12 GMT 47.78055 5.59245 30,400 299 445 832
2018-01-11 16:30:10 GMT 47.77945 5.59541 30,375 299 445 832
2018-01-11 16:30:01 GMT 47.77037 5.62000 30,275 299 445 768
2018-01-11 16:29:59 GMT 47.76897 5.62383 30,250 299 444 704
2018-01-11 16:29:51 GMT 47.76050 5.64677 30,125 299 443 768
2018-01-11 16:29:49 GMT 47.75899 5.65082 30,125 299 443 768
2018-01-11 16:29:47 GMT 47.75696 5.65620 30,075 299 443 768
2018-01-11 16:29:43 GMT 47.75259 5.66803 30,025 299 443 896
2018-01-11 16:29:41 GMT 47.75047 5.67368 30,000 299 443 832
2018-01-11 16:29:39 GMT 47.74858 5.67880 29,975 299 443 832
2018-01-11 16:29:34 GMT 47.74383 5.69160 29,900 299 443 896
2018-01-11 16:29:30 GMT 47.73862 5.70564 29,825 299 443 832
2018-01-11 16:29:27 GMT 47.73706 5.70987 29,800 299 443 832
2018-01-11 16:29:27 GMT 47.73706 5.70987 29,800 299 443 832
2018-01-11 16:29:23 GMT 47.73262 5.72176 29,725 299 443 832
2018-01-11 16:29:20 GMT 47.72964 5.72978 29,675 299 442 960
2018-01-11 16:29:17 GMT 47.72713 5.73651 29,650 299 442 960
2018-01-11 16:29:11 GMT 47.71977 5.75634 29,525 299 443 1024
2018-01-11 16:29:07 GMT 47.71744 5.76254 29,475 299 443 1088
2018-01-11 16:29:05 GMT 47.71534 5.76825 29,450 299 443 1088
2018-01-11 16:29:00 GMT 47.70976 5.78318 29,325 299 443 1216
2018-01-11 16:28:57 GMT 47.70735 5.78959 29,275 299 443 1216
2018-01-11 16:28:57 GMT 47.70683 5.79106 29,275 299 443 1216
2018-01-11 16:28:55 GMT 47.70470 5.79673 29,225 299 444 1216
2018-01-11 16:28:53 GMT 47.70268 5.80219 29,200 299 443 1216
2018-01-11 16:28:51 GMT 47.70115 5.80627 29,150 299 444 1216
2018-01-11 16:28:48 GMT 47.69682 5.81790 29,100 299 444 1216
2018-01-11 16:28:46 GMT 47.69589 5.82029 29,050 299 444 1216
2018-01-11 16:28:44 GMT 47.69380 5.82591 29,000 299 444 1216
2018-01-11 16:28:39 GMT 47.68881 5.83937 28,900 300 444 1216
2018-01-11 16:28:36 GMT 47.68588 5.84713 28,825 300 446 1280
2018-01-11 16:28:34 GMT 47.68402 5.85212 28,800 299 445 1280
2018-01-11 16:28:28 GMT 47.67736 5.86987 28,650 300 446 1280
2018-01-11 16:28:24 GMT 47.67266 5.88233 28,550 300 447 1280
2018-01-11 16:28:21 GMT 47.67055 5.88798 28,500 299 446 1280
2018-01-11 16:28:19 GMT 47.66908 5.89190 28,475 300 447 1280
2018-01-11 16:28:15 GMT 47.66492 5.90309 28,375 299 447 1280
2018-01-11 16:28:13 GMT 47.66286 5.90852 28,325 299 447 1280
2018-01-11 16:28:11 GMT 47.66074 5.91417 28,300 299 447 1280
2018-01-11 16:28:09 GMT 47.65860 5.91998 28,225 299 447 1280
2018-01-11 16:28:04 GMT 47.65357 5.93367 28,125 299 448 1280
2018-01-11 16:28:04 GMT 47.65357 5.93367 28,125 299 448 1280
2018-01-11 16:28:02 GMT 47.65245 5.93663 28,100 299 448 1280
2018-01-11 16:28:00 GMT 47.65031 5.94690 28,050 299 448 1280
2018-01-11 16:27:58 GMT 47.64822 5.94818 28,000 299 448 1280
2018-01-11 16:27:56 GMT 47.64578 5.95473 27,950 299 448 1280
2018-01-11 16:27:52 GMT 47.64230 5.96427 27,875 299 448 1216
2018-01-11 16:27:48 GMT 47.63777 5.97649 27,775 299 449 1280
2018-01-11 16:27:46 GMT 47.63576 5.98199 27,750 299 449 1280
2018-01-11 16:27:43 GMT 47.63242 5.99105 27,675 299 449 1280
2018-01-11 16:27:41 GMT 47.63085 5.99530 27,625 299 450 1280
2018-01-11 16:27:39 GMT 47.62932 5.99945 27,600 299 450 1344
2018-01-11 16:27:37 GMT 47.62732 6.00487 27,550 299 450 1344
2018-01-11 16:27:33 GMT 47.62326 6.01584 27,450 299 451 1344
2018-01-11 16:27:31 GMT 47.62145 6.02079 27,425 299 451 1344
2018-01-11 16:27:28 GMT 47.61637 6.03438 27,325 299 451 1408
2018-01-11 16:27:24 GMT 47.61442 6.03973 27,250 299 452 1408
2018-01-11 16:27:22 GMT 47.61182 6.04674 27,200 299 452 1408
2018-01-11 16:27:19 GMT 47.60814 6.05664 27,100 299 452 1408
2018-01-11 16:27:16 GMT 47.60591 6.06267 27,050 299 452 1408
2018-01-11 16:27:14 GMT 47.60422 6.06720 27,000 299 452 1408
2018-01-11 16:27:10 GMT 47.60064 6.07692 26,925 299 453 1344
2018-01-11 16:27:07 GMT 47.59710 6.08650 26,825 299 453 1344
2018-01-11 16:27:04 GMT 47.59387 6.09515 26,775 299 454 1088
2018-01-11 16:27:01 GMT 47.58965 6.10650 26,700 299 454 896
2018-01-11 16:26:58 GMT 47.58816 6.11051 26,675 299 453 832
2018-01-11 16:26:56 GMT 47.58602 6.11622 26,650 299 453 832
2018-01-11 16:26:54 GMT 47.58388 6.12192 26,625 299 452 768
2018-01-11 16:26:50 GMT 47.57979 6.13291 26,550 299 452 768
2018-01-11 16:26:46 GMT 47.57611 6.14266 26,500 300 451 768
2018-01-11 16:26:43 GMT 47.57248 6.15234 26,450 300 451 768
2018-01-11 16:26:40 GMT 47.56805 6.16411 26,425 300 450 768
2018-01-11 16:26:36 GMT 47.56559 6.17065 26,375 300 449 704
2018-01-11 16:26:34 GMT 47.56284 6.17784 26,350 300 449 768
2018-01-11 16:26:30 GMT 47.55986 6.18572 26,300 300 449 768
2018-01-11 16:26:28 GMT 47.55800 6.19058 26,275 300 448 704
2018-01-11 16:26:25 GMT 47.55497 6.19854 26,250 300 447 704
2018-01-11 16:26:23 GMT 47.55217 6.20583 26,200 300 447 704
2018-01-11 16:26:20 GMT 47.54910 6.21366 26,175 300 447 704
2018-01-11 16:26:18 GMT 47.54771 6.21735 26,150 300 447 768
2018-01-11 16:26:15 GMT 47.54380 6.22742 26,100 300 446 768
2018-01-11 16:26:12 GMT 47.54118 6.23412 26,075 300 446 768
2018-01-11 16:26:10 GMT 47.53912 6.23955 26,050 300 445 768
2018-01-11 16:26:08 GMT 47.53711 6.24477 26,025 300 445 768
2018-01-11 16:26:05 GMT 47.53340 6.25452 25,975 299 444 896
2018-01-11 16:26:03 GMT 47.53235 6.25728 25,950 299 444 896
2018-01-11 16:26:00 GMT 47.52867 6.26721 25,900 296 445 960
2018-01-11 16:25:58 GMT 47.52672 6.27277 25,875 295 445 960
2018-01-11 16:25:55 GMT 47.52411 6.28115 25,825 293 446 960
2018-01-11 16:25:50 GMT 47.51990 6.29791 25,725 286 447 1024
2018-01-11 16:25:48 GMT 47.51904 6.30207 25,700 284 447 1024
2018-01-11 16:25:45 GMT 47.51779 6.30952 25,650 281 448 1024
2018-01-11 16:25:45 GMT 47.51779 6.30952 25,650 281 448 1024
2018-01-11 16:25:43 GMT 47.51694 6.31531 25,625 280 449 960
2018-01-11 16:25:40 GMT 47.51568 6.32777 25,550 276 450 1024
2018-01-11 16:25:37 GMT 47.51514 6.33506 25,500 275 450 1024
2018-01-11 16:25:34 GMT 47.51477 6.34275 25,450 274 449 1024
2018-01-11 16:25:28 GMT 47.51399 6.35992 25,375 274 448 960
2018-01-11 16:25:26 GMT 47.51363 6.36754 25,325 274 448 960
2018-01-11 16:25:24 GMT 47.51331 6.37502 25,275 274 448 960
2018-01-11 16:25:21 GMT 47.51298 6.38270 25,250 274 447 960
2018-01-11 16:25:19 GMT 47.51266 6.38876 25,200 274 448 1024
2018-01-11 16:25:16 GMT 47.51214 6.40095 25,150 274 446 1024
2018-01-11 16:25:14 GMT 47.51201 6.40411 25,125 274 446 1024
2018-01-11 16:25:10 GMT 47.51147 6.41560 25,050 274 446 1024
2018-01-11 16:25:08 GMT 47.51115 6.42213 25,025 274 446 1024
2018-01-11 16:25:06 GMT 47.51093 6.42734 25,000 274 446 1024
2018-01-11 16:25:04 GMT 47.51052 6.43658 24,925 274 445 1088
2018-01-11 16:25:03 GMT 47.51052 6.43658 24,925 274 445 1024
2018-01-11 16:24:59 GMT 47.50982 6.45193 24,850 274 445 1088
2018-01-11 16:24:57 GMT 47.50969 6.45502 24,825 274 445 1152
2018-01-11 16:24:55 GMT 47.50940 6.46116 24,800 274 445 1152
2018-01-11 16:24:53 GMT 47.50907 6.46855 24,750 274 444 1152
2018-01-11 16:24:49 GMT 47.50859 6.47871 24,675 274 444 1216
2018-01-11 16:24:45 GMT 47.50791 6.49412 24,575 274 445 1216
2018-01-11 16:24:43 GMT 47.50772 6.49745 24,550 274 445 1216
2018-01-11 16:24:39 GMT 47.50716 6.50989 24,475 274 445 1216
2018-01-11 16:24:34 GMT 47.50644 6.52512 24,350 274 444 1152
2018-01-11 16:24:32 GMT 47.50619 6.53088 24,325 274 444 1152
2018-01-11 16:24:29 GMT 47.50581 6.53827 24,275 274 444 1152
2018-01-11 16:24:27 GMT 47.50549 6.54616 24,225 274 443 1088
2018-01-11 16:24:23 GMT 47.50488 6.55856 24,150 274 443 1152
2018-01-11 16:24:18 GMT 47.50400 6.57729 24,025 274 442 1088
2018-01-11 16:24:14 GMT 47.50372 6.58405 24,000 274 442 1088
2018-01-11 16:24:12 GMT 47.50330 6.59299 23,925 274 442 1088
2018-01-11 16:24:09 GMT 47.50293 6.60130 23,875 274 441 1024
2018-01-11 16:24:05 GMT 47.50236 6.61301 23,825 274 441 1024
2018-01-11 16:24:03 GMT 47.50200 6.62060 23,775 274 440 1088
2018-01-11 16:23:58 GMT 47.50127 6.63609 23,675 275 439 1088
2018-01-11 16:23:56 GMT 47.50111 6.63926 23,650 275 439 1088
2018-01-11 16:23:53 GMT 47.50051 6.65201 23,575 275 439 1152
2018-01-11 16:23:46 GMT 47.49962 6.67042 23,450 274 437 1216
2018-01-11 16:23:43 GMT 47.49916 6.67983 23,400 274 437 1216
2018-01-11 16:23:41 GMT 47.49893 6.68449 23,350 274 437 1216
2018-01-11 16:23:38 GMT 47.49847 6.69363 23,300 274 437 1152
2018-01-11 16:23:35 GMT 47.49795 6.70497 23,225 274 436 1152
2018-01-11 16:23:33 GMT 47.49788 6.70667 23,200 274 436 1152
2018-01-11 16:23:31 GMT 47.49742 6.71587 23,150 274 436 1152
2018-01-11 16:23:27 GMT 47.49696 6.72569 23,075 274 435 1152
2018-01-11 16:23:24 GMT 47.49660 6.73356 23,025 274 435 1152
2018-01-11 16:23:22 GMT 47.49623 6.74107 22,975 275 434 1152
2018-01-11 16:23:22 GMT 47.49623 6.74107 22,975 275 434 1152
2018-01-11 16:23:19 GMT 47.49585 6.74863 22,925 274 434 1152
2018-01-11 16:23:17 GMT 47.49548 6.75596 22,875 275 434 1216
2018-01-11 16:23:15 GMT 47.49506 6.76462 22,825 275 433 1216
2018-01-11 16:23:13 GMT 47.49478 6.77032 22,775 274 433 1280
2018-01-11 16:23:11 GMT 47.49450 6.77603 22,750 274 433 1280
2018-01-11 16:23:06 GMT 47.49399 6.78660 22,675 274 432 1280
2018-01-11 16:23:04 GMT 47.49362 6.79422 22,600 275 432 1344
2018-01-11 16:23:02 GMT 47.49326 6.80191 22,550 275 432 1280
2018-01-11 16:22:59 GMT 47.49296 6.80842 22,500 275 432 1280
2018-01-11 16:22:57 GMT 47.49262 6.81468 22,450 275 431 1280
2018-01-11 16:22:55 GMT 47.49234 6.82093 22,400 275 431 1280
2018-01-11 16:22:52 GMT 47.49189 6.82990 22,325 275 431 1280
2018-01-11 16:22:50 GMT 47.49170 6.83411 22,300 275 430 1344
2018-01-11 16:22:48 GMT 47.49138 6.84029 22,250 275 430 1344
2018-01-11 16:22:46 GMT 47.49101 6.84744 22,200 275 430 1344
2018-01-11 16:22:44 GMT 47.49074 6.85313 22,150 275 430 1344
2018-01-11 16:22:42 GMT 47.49050 6.85843 22,125 275 430 1344
2018-01-11 16:22:40 GMT 47.49027 6.86336 22,075 275 429 1344
2018-01-11 16:22:37 GMT 47.48969 6.87511 21,975 275 429 1408
2018-01-11 16:22:33 GMT 47.48918 6.88527 21,900 275 428 1408
2018-01-11 16:22:31 GMT 47.48886 6.89172 21,850 275 428 1408
2018-01-11 16:22:29 GMT 47.48850 6.89921 21,800 275 428 1408
2018-01-11 16:22:25 GMT 47.48808 6.90765 21,725 275 428 1280
2018-01-11 16:22:23 GMT 47.48766 6.91639 21,675 275 428 1280
2018-01-11 16:22:21 GMT 47.48721 6.92496 21,600 275 427 1280
2018-01-11 16:22:18 GMT 47.48698 6.92997 21,550 275 427 1280
2018-01-11 16:22:16 GMT 47.48668 6.93561 21,525 275 426 1152
2018-01-11 16:22:13 GMT 47.48626 6.94385 21,475 275 426 960
2018-01-11 16:22:11 GMT 47.48594 6.95090 21,425 275 425 768
2018-01-11 16:22:09 GMT 47.48579 6.95387 21,400 275 424 640
2018-01-11 16:22:06 GMT 47.48515 6.96574 21,350 275 423 640
2018-01-11 16:22:04 GMT 47.48502 6.96856 21,350 275 422 704
2018-01-11 16:22:02 GMT 47.48474 6.97433 21,325 275 422 768
2018-01-11 16:22:00 GMT 47.48442 6.98112 21,300 275 420 1152
2018-01-11 16:21:58 GMT 47.48405 6.98772 21,250 275 420 1216
2018-01-11 16:21:54 GMT 47.48355 6.99795 21,175 275 419 1344
2018-01-11 16:21:52 GMT 47.48333 7.00209 21,150 275 419 1408
2018-01-11 16:21:50 GMT 47.48296 7.00984 21,075 275 419 1472
2018-01-11 16:21:48 GMT 47.48258 7.01702 21,025 275 418 1536
2018-01-11 16:21:45 GMT 47.48217 7.02491 20,950 275 418 1664
2018-01-11 16:21:43 GMT 47.48195 7.02926 20,900 275 418 1664
2018-01-11 16:21:41 GMT 47.48161 7.03674 20,825 275 418 1728
2018-01-11 16:21:39 GMT 47.48140 7.04079 20,800 275 418 1728
2018-01-11 16:21:37 GMT 47.48108 7.04691 20,725 275 418 1792
2018-01-11 16:21:34 GMT 47.48067 7.05473 20,650 275 418 1792
2018-01-11 16:21:32 GMT 47.48040 7.06041 20,575 275 418 1792
2018-01-11 16:21:30 GMT 47.48003 7.06757 20,500 275 418 1792
2018-01-11 16:21:29 GMT 47.47988 7.07048 20,475 275 418 1792
2018-01-11 16:21:27 GMT 47.47960 7.07569 20,425 275 418 1792
2018-01-11 16:21:24 GMT 47.47923 7.08301 20,350 275 418 1792
2018-01-11 16:21:22 GMT 47.47888 7.09003 20,275 275 418 1792
2018-01-11 16:21:20 GMT 47.47844 7.09851 20,200 275 418 1792
2018-01-11 16:21:17 GMT 47.47821 7.10280 20,125 275 418 1792
2018-01-11 16:21:14 GMT 47.47770 7.11308 20,025 275 418 1792
2018-01-11 16:21:12 GMT 47.47746 7.11735 19,975 275 418 1728
2018-01-11 16:21:10 GMT 47.47714 7.12421 19,900 275 418 1664
2018-01-11 16:21:08 GMT 47.47682 7.13020 19,850 275 418 1600
2018-01-11 16:21:06 GMT 47.47653 7.13569 19,800 275 418 1536
2018-01-11 16:21:04 GMT 47.47609 7.14414 19,750 275 418 1472
2018-01-11 16:21:02 GMT 47.47595 7.14674 19,700 275 417 1408
2018-01-11 16:21:00 GMT 47.47560 7.15393 19,650 275 417 1408
2018-01-11 16:20:58 GMT 47.47545 7.15698 19,600 275 417 1408
2018-01-11 16:20:56 GMT 47.47499 7.16556 19,550 275 416 1344
2018-01-11 16:20:54 GMT 47.47472 7.17055 19,500 275 416 1344
2018-01-11 16:20:52 GMT 47.47448 7.17527 19,450 275 415 1344
2018-01-11 16:20:50 GMT 47.47426 7.17908 19,425 275 415 1344
2018-01-11 16:20:48 GMT 47.47397 7.18534 19,375 275 415 1344
2018-01-11 16:20:44 GMT 47.47343 7.19556 19,300 275 413 1472
2018-01-11 16:20:42 GMT 47.47290 7.20562 19,200 275 413 1472
2018-01-11 16:20:38 GMT 47.47243 7.21417 19,125 275 412 1536
2018-01-11 16:20:33 GMT 47.47165 7.22907 19,000 275 412 1600
2018-01-11 16:20:31 GMT 47.47142 7.23333 18,950 275 412 1600
2018-01-11 16:20:31 GMT 47.47142 7.23333 18,950 275 412 1600
2018-01-11 16:20:29 GMT 47.47101 7.24081 18,875 275 411 1664
2018-01-11 16:20:27 GMT 47.47087 7.24336 18,850 275 411 1664
2018-01-11 16:20:27 GMT 47.47082 7.24480 18,850 275 411 1664
2018-01-11 16:20:25 GMT 47.47037 7.25324 18,750 275 411 1664
2018-01-11 16:20:21 GMT 47.46988 7.26232 18,675 275 410 1664
2018-01-11 16:20:17 GMT 47.46936 7.27189 18,575 275 410 1664
2018-01-11 16:20:13 GMT 47.46857 7.28549 18,425 275 409 1792
2018-01-11 16:20:11 GMT 47.46834 7.28971 18,400 275 409 1856
2018-01-11 16:20:09 GMT 47.46811 7.29450 18,350 275 409 1984
2018-01-11 16:20:07 GMT 47.46776 7.29987 18,275 275 409 2048
2018-01-11 16:20:03 GMT 47.46707 7.31195 18,125 275 409 2112
2018-01-11 16:20:01 GMT 47.46661 7.32005 18,025 275 409 2112
2018-01-11 16:19:58 GMT 47.46610 7.32894 17,900 275 409 2112
2018-01-11 16:19:56 GMT 47.46601 7.33035 17,900 275 409 2112
2018-01-11 16:19:53 GMT 47.46545 7.33985 17,775 275 410 1984
2018-01-11 16:19:50 GMT 47.46506 7.34738 17,675 275 410 1856
2018-01-11 16:19:47 GMT 47.46455 7.35741 17,575 274 409 1728
2018-01-11 16:19:42 GMT 47.46406 7.36873 17,450 273 409 1600
2018-01-11 16:19:40 GMT 47.46382 7.37612 17,375 273 409 1600
2018-01-11 16:19:37 GMT 47.46359 7.38494 17,300 272 408 1600
2018-01-11 16:19:35 GMT 47.46350 7.38940 17,250 272 408 1600
2018-01-11 16:19:32 GMT 47.46317 7.40211 17,125 272 407 1536
2018-01-11 16:19:30 GMT 47.46317 7.40352 17,125 272 407 1536
2018-01-11 16:19:28 GMT 47.46291 7.41378 17,050 272 406 1472
2018-01-11 16:19:26 GMT 47.46280 7.41852 16,975 272 406 1472
2018-01-11 16:19:24 GMT 47.46268 7.42277 16,950 272 405 1408
2018-01-11 16:19:22 GMT 47.46257 7.42676 16,900 272 405 1344
2018-01-11 16:19:20 GMT 47.46240 7.43349 16,850 272 404 1216
2018-01-11 16:19:17 GMT 47.46224 7.44028 16,800 272 403 1216
2018-01-11 16:19:16 GMT 47.46219 7.44317 16,775 272 403 1216
2018-01-11 16:19:15 GMT 47.46215 7.44472 16,775 272 402 1216
2018-01-11 16:19:13 GMT 47.46195 7.45148 16,725 272 402 1280
2018-01-11 16:19:11 GMT 47.46182 7.45683 16,675 272 401 1280
2018-01-11 16:19:09 GMT 47.46173 7.46098 16,650 273 400 1088
2018-01-11 16:19:08 GMT 47.46162 7.46514 16,600 273 394 640
2018-01-11 16:19:06 GMT 47.46150 7.47070 16,575 273 400 1088
2018-01-11 16:19:04 GMT 47.46140 7.47352 16,550 273 399 960
2018-01-11 16:19:01 GMT 47.46112 7.48581 16,475 273 397 704
2018-01-11 16:18:59 GMT 47.46103 7.48965 16,450 273 395 640
2018-01-11 16:18:57 GMT 47.46089 7.49493 16,425 273 394 640
2018-01-11 16:18:55 GMT 47.46071 7.50146 16,400 273 393 640
2018-01-11 16:18:53 GMT 47.46057 7.50662 16,400 273 392 704
2018-01-11 16:18:50 GMT 47.46038 7.51373 16,350 273 390 704
2018-01-11 16:18:48 GMT 47.46030 7.51788 16,350 273 388 704
2018-01-11 16:18:46 GMT 47.46010 7.52493 16,300 273 387 704
2018-01-11 16:18:44 GMT 47.45996 7.53092 16,275 273 386 704
2018-01-11 16:18:42 GMT 47.45984 7.53449 16,275 273 383 704
2018-01-11 16:18:40 GMT 47.45963 7.54296 16,250 273 384 704
2018-01-11 16:18:40 GMT 47.45963 7.54296 16,250 273 383 704
2018-01-11 16:18:38 GMT 47.45959 7.54465 16,225 273 382 704
2018-01-11 16:18:36 GMT 47.45940 7.55120 16,200 273 380 640
2018-01-11 16:18:35 GMT 47.45926 7.55634 16,175 273 379 640
2018-01-11 16:18:34 GMT 47.45931 7.55514 16,175 273 380 640
2018-01-11 16:18:32 GMT 47.45920 7.55907 16,175 273 378 640
2018-01-11 16:18:30 GMT 47.45898 7.56690 16,125 273 376 576
2018-01-11 16:18:28 GMT 47.45888 7.57054 16,125 273 375 576
2018-01-11 16:18:26 GMT 47.45866 7.57909 16,075 273 373 576
2018-01-11 16:18:24 GMT 47.45851 7.58455 16,075 273 372 576
2018-01-11 16:18:22 GMT 47.45842 7.58716 16,050 273 370 576
2018-01-11 16:18:20 GMT 47.45828 7.59345 16,025 273 370 576
2018-01-11 16:18:18 GMT 47.45819 7.59622 16,025 273 367 576
2018-01-11 16:18:15 GMT 47.45796 7.60515 15,975 273 365 576
2018-01-11 16:18:13 GMT 47.45782 7.61050 15,975 273 364 640
2018-01-11 16:18:11 GMT 47.45773 7.61414 15,950 273 363 640
2018-01-11 16:18:09 GMT 47.45760 7.61902 15,925 273 362 576
2018-01-11 16:18:07 GMT 47.45749 7.62374 15,900 273 360 512
2018-01-11 16:18:05 GMT 47.45732 7.62973 15,900 273 359 512
2018-01-11 16:18:03 GMT 47.45723 7.63220 15,875 273 357 448
2018-01-11 16:18:01 GMT 47.45707 7.63888 15,850 273 355 448
2018-01-11 16:17:59 GMT 47.45691 7.64490 15,850 273 353 640
2018-01-11 16:17:57 GMT 47.45682 7.64834 15,825 273 352 704
2018-01-11 16:17:55 GMT 47.45668 7.65404 15,800 273 350 1280
2018-01-11 16:17:52 GMT 47.45641 7.66338 15,750 273 349 1792
2018-01-11 16:17:50 GMT 47.45638 7.66501 15,700 273 349 2048
2018-01-11 16:17:47 GMT 47.45618 7.67216 15,600 273 349 2304
2018-01-11 16:17:45 GMT 47.45605 7.67670 15,525 273 349 2496
2018-01-11 16:17:43 GMT 47.45591 7.68247 15,425 273 350 2688
2018-01-11 16:17:41 GMT 47.45582 7.68578 15,350 273 350 2880
2018-01-11 16:17:39 GMT 47.45558 7.69297 15,200 273 352 3008
2018-01-11 16:17:37 GMT 47.45554 7.69536 15,150 273 352 3008
2018-01-11 16:17:35 GMT 47.45526 7.70402 14,975 273 354 2880
2018-01-11 16:17:32 GMT 47.45517 7.70775 14,900 273 356 2816
2018-01-11 16:17:30 GMT 47.45498 7.71395 14,775 273 356 2816
2018-01-11 16:17:27 GMT 47.45479 7.72064 14,650 273 357 2880
2018-01-11 16:17:24 GMT 47.45465 7.72684 14,525 273 359 2688
2018-01-11 16:17:22 GMT 47.45447 7.73304 14,400 273 360 2688
2018-01-11 16:17:20 GMT 47.45439 7.73575 14,350 273 360 2688
2018-01-11 16:17:18 GMT 47.45416 7.74234 14,225 273 361 2688
2018-01-11 16:17:16 GMT 47.45407 7.74625 14,150 273 362 2880
2018-01-11 16:17:13 GMT 47.45381 7.75487 13,975 273 363 3008
2018-01-11 16:17:11 GMT 47.45370 7.75971 13,875 273 363 2944
2018-01-11 16:17:08 GMT 47.45352 7.76576 13,750 273 364 2816
2018-01-11 16:17:06 GMT 47.45338 7.77111 13,650 273 365 2688
2018-01-11 16:17:04 GMT 47.45311 7.77976 13,550 273 366 2752
2018-01-11 16:17:02 GMT 47.45302 7.78320 13,425 273 367 3008
2018-01-11 16:17:00 GMT 47.45293 7.78567 13,375 273 367 3008
2018-01-11 16:16:58 GMT 47.45279 7.79089 13,275 273 368 3008
2018-01-11 16:16:56 GMT 47.45260 7.79719 13,150 273 369 2944
2018-01-11 16:16:56 GMT 47.45265 7.79607 13,175 273 369 2944
2018-01-11 16:16:54 GMT 47.45246 7.80219 13,050 273 370 2496
2018-01-11 16:16:51 GMT 47.45228 7.80987 12,925 273 371 2048
2018-01-11 16:16:49 GMT 47.45209 7.81593 12,825 273 371 1536
2018-01-11 16:16:47 GMT 47.45200 7.81966 12,800 273 370 1344
2018-01-11 16:16:45 GMT 47.45192 7.82350 12,750 273 370 1152
2018-01-11 16:16:42 GMT 47.45169 7.83229 12,700 273 365 640
2018-01-11 16:16:40 GMT 47.45155 7.83744 12,675 273 366 640
2018-01-11 16:16:37 GMT 47.45132 7.84561 12,650 273 362 512
2018-01-11 16:16:35 GMT 47.45121 7.84868 12,625 273 362 512
2018-01-11 16:16:33 GMT 47.45107 7.85417 12,600 273 361 576
2018-01-11 16:16:30 GMT 47.45084 7.86262 12,575 273 358 576
2018-01-11 16:16:27 GMT 47.45060 7.87008 12,550 273 355 704
2018-01-11 16:16:25 GMT 47.45046 7.87494 12,525 273 355 640
2018-01-11 16:16:23 GMT 47.45032 7.87871 12,500 273 352 768
2018-01-11 16:16:20 GMT 47.45009 7.88688 12,450 273 351 768
2018-01-11 16:16:18 GMT 47.44995 7.89128 12,450 273 349 704
2018-01-11 16:16:16 GMT 47.44977 7.89615 12,425 273 347 704
2018-01-11 16:16:14 GMT 47.44967 7.89980 12,400 273 346 704
2018-01-11 16:16:12 GMT 47.44954 7.90480 12,375 273 345 704
2018-01-11 16:16:10 GMT 47.44930 7.91220 12,325 273 343 704
2018-01-11 16:16:08 GMT 47.44921 7.91523 12,325 273 341 704
2018-01-11 16:16:04 GMT 47.44888 7.92635 12,275 273 336 640
2018-01-11 16:16:01 GMT 47.44876 7.93103 12,250 273 336 640
2018-01-11 16:15:59 GMT 47.44860 7.93635 12,225 273 333 640
2018-01-11 16:15:56 GMT 47.44837 7.94424 12,175 273 331 896
2018-01-11 16:15:53 GMT 47.44821 7.94916 12,150 273 329 1152
2018-01-11 16:15:51 GMT 47.44809 7.95389 12,100 273 328 1472
2018-01-11 16:15:49 GMT 47.44798 7.95705 12,075 273 328 1600
2018-01-11 16:15:47 GMT 47.44780 7.96323 12,000 273 327 1664
2018-01-11 16:15:45 GMT 47.44766 7.96777 11,950 273 326 1472
2018-01-11 16:15:43 GMT 47.44748 7.97319 11,900 273 326 1408
2018-01-11 16:15:41 GMT 47.44739 7.97593 11,850 273 324 1408
2018-01-11 16:15:39 GMT 47.44720 7.98248 11,775 273 324 1472
2018-01-11 16:15:37 GMT 47.44711 7.98459 11,750 273 323 1536
2018-01-11 16:15:35 GMT 47.44688 7.99305 11,675 273 322 1536
2018-01-11 16:15:32 GMT 47.44679 7.99489 11,625 273 322 1472
2018-01-11 16:15:30 GMT 47.44660 8.00178 11,550 273 320 1344
2018-01-11 16:15:28 GMT 47.44646 8.00488 11,525 273 319 1408
2018-01-11 16:15:26 GMT 47.44637 8.00826 11,500 273 319 1408
2018-01-11 16:15:24 GMT 47.44624 8.01281 11,450 273 318 1472
2018-01-11 16:15:22 GMT 47.44609 8.01854 11,375 273 317 1600
2018-01-11 16:15:20 GMT 47.44601 8.02084 11,350 273 317 1664
2018-01-11 16:15:20 GMT 47.44595 8.02206 11,325 273 317 1664
2018-01-11 16:15:18 GMT 47.44583 8.02661 11,275 273 316 1856
2018-01-11 16:15:16 GMT 47.44574 8.03004 11,225 273 316 1920
2018-01-11 16:15:14 GMT 47.44556 8.03533 11,150 273 316 2112
2018-01-11 16:15:11 GMT 47.44534 8.04354 11,000 273 316 2304
2018-01-11 16:15:08 GMT 47.44519 8.04714 10,950 273 316 2368
2018-01-11 16:15:06 GMT 47.44505 8.05243 10,850 273 317 2432
2018-01-11 16:15:04 GMT 47.44492 8.05655 10,750 273 317 2368
2018-01-11 16:15:02 GMT 47.44478 8.06094 10,675 273 317 2048
2018-01-11 16:15:00 GMT 47.44464 8.06636 10,600 273 317 1472
2018-01-11 16:14:58 GMT 47.44450 8.07073 10,525 273 316 1152
2018-01-11 16:14:56 GMT 47.44441 8.07396 10,500 273 316 960
2018-01-11 16:14:54 GMT 47.44423 8.08023 10,450 273 314 768
2018-01-11 16:14:52 GMT 47.44409 8.08467 10,425 273 312 704
2018-01-11 16:14:50 GMT 47.44395 8.08784 10,400 273 309 640
2018-01-11 16:14:47 GMT 47.44377 8.09328 10,375 273 309 704
2018-01-11 16:14:46 GMT 47.44368 8.09638 10,375 273 307 704
2018-01-11 16:14:45 GMT 47.44368 8.09638 10,375 273 307 704
2018-01-11 16:14:43 GMT 47.44348 8.10277 10,325 273 305 768
2018-01-11 16:14:41 GMT 47.44331 8.10777 10,300 273 303 1152
2018-01-11 16:14:39 GMT 47.44325 8.10988 10,275 273 302 1280
2018-01-11 16:14:37 GMT 47.44311 8.11481 10,225 273 301 1664
2018-01-11 16:14:34 GMT 47.44290 8.12109 10,150 273 300 1792
2018-01-11 16:14:31 GMT 47.44272 8.12645 10,050 273 300 1856
2018-01-11 16:14:29 GMT 47.44264 8.12960 10,000 273 299 1792
2018-01-11 16:14:27 GMT 47.44244 8.13455 9,925 273 295 2240
2018-01-11 16:14:25 GMT 47.44231 8.13902 9,875 273 298 1728
2018-01-11 16:14:23 GMT 47.44217 8.14375 9,825 273 298 1728
2018-01-11 16:14:20 GMT 47.44199 8.15000 9,700 273 297 1856
2018-01-11 16:14:20 GMT 47.44199 8.15000 9,700 273 297 1856
2018-01-11 16:14:18 GMT 47.44190 8.15333 9,675 273 297 1856
2018-01-11 16:14:15 GMT 47.44162 8.16140 9,575 273 296 1920
2018-01-11 16:14:13 GMT 47.44157 8.16242 9,525 273 296 1984
2018-01-11 16:14:11 GMT 47.44143 8.16735 9,450 273 295 2112
2018-01-11 16:14:08 GMT 47.44125 8.17300 9,350 273 295 2304
2018-01-11 16:14:06 GMT 47.44112 8.17719 9,250 273 295 2304
2018-01-11 16:14:05 GMT 47.44107 8.17822 9,250 273 296 2304
2018-01-11 16:14:03 GMT 47.44084 8.18543 9,100 273 296 2240
2018-01-11 16:14:00 GMT 47.44073 8.18862 9,025 273 296 2112
2018-01-11 16:13:58 GMT 47.44057 8.19463 8,975 273 296 1920
2018-01-11 16:13:56 GMT 47.44050 8.19693 8,900 273 295 1792
2018-01-11 16:13:54 GMT 47.44029 8.20212 8,825 273 295 1728
2018-01-11 16:13:52 GMT 47.44018 8.20587 8,775 273 294 1728
2018-01-11 16:13:52 GMT 47.44018 8.20587 8,775 273 294 1728
2018-01-11 16:13:50 GMT 47.44006 8.20885 8,725 273 294 1792
2018-01-11 16:13:48 GMT 47.43994 8.21376 8,650 273 293 1920
2018-01-11 16:13:48 GMT 47.43994 8.21376 8,650 273 292 2048
2018-01-11 16:13:46 GMT 47.43974 8.22011 8,550 273 292 2048
2018-01-11 16:13:44 GMT 47.43966 8.22207 8,500 273 292 2112
2018-01-11 16:13:42 GMT 47.43952 8.22615 8,425 273 292 2176
2018-01-11 16:13:40 GMT 47.43943 8.22897 8,375 273 292 2112
2018-01-11 16:13:37 GMT 47.43920 8.23665 8,250 273 292 2112
2018-01-11 16:13:34 GMT 47.43897 8.24284 8,125 273 292 2112
2018-01-11 16:13:32 GMT 47.43887 8.24586 8,075 273 292 2112
2018-01-11 16:13:30 GMT 47.43873 8.24989 8,000 273 291 2048
2018-01-11 16:13:28 GMT 47.43860 8.25451 7,925 273 291 1984
2018-01-11 16:13:26 GMT 47.43846 8.25822 7,850 273 291 1984
2018-01-11 16:13:24 GMT 47.43837 8.26110 7,800 273 291 1920
2018-01-11 16:13:22 GMT 47.43822 8.26524 7,750 273 290 1856
2018-01-11 16:13:20 GMT 47.43809 8.26817 7,700 273 290 1856
2018-01-11 16:13:18 GMT 47.43794 8.27320 7,625 273 289 1856
2018-01-11 16:13:16 GMT 47.43785 8.27644 7,575 273 289 1856
2018-01-11 16:13:14 GMT 47.43766 8.28144 7,475 273 288 1920
2018-01-11 16:13:12 GMT 47.43750 8.28568 7,400 273 287 2176
2018-01-11 16:13:10 GMT 47.43729 8.29102 7,325 273 287 2240
2018-01-11 16:13:08 GMT 47.43724 8.29299 7,275 273 287 2304
2018-01-11 16:13:06 GMT 47.43710 8.29693 7,200 273 287 2368
2018-01-11 16:13:03 GMT 47.43691 8.30203 7,100 273 287 2368
2018-01-11 16:13:01 GMT 47.43672 8.30738 6,975 273 287 2368
2018-01-11 16:12:59 GMT 47.43659 8.31130 6,900 273 287 2304
2018-01-11 16:12:56 GMT 47.43640 8.31706 6,800 273 288 2240
2018-01-11 16:12:53 GMT 47.43622 8.32369 6,650 272 287 2112
2018-01-11 16:12:51 GMT 47.43612 8.32686 6,600 272 287 2048
2018-01-11 16:12:48 GMT 47.43599 8.33390 6,475 272 287 1856
2018-01-11 16:12:46 GMT 47.43590 8.33663 6,425 272 286 1792
2018-01-11 16:12:46 GMT 47.43590 8.33663 6,425 272 286 1792
2018-01-11 16:12:44 GMT 47.43585 8.34052 6,375 272 285 1728
2018-01-11 16:12:42 GMT 47.43575 8.34355 6,325 272 285 1728
2018-01-11 16:12:39 GMT 47.43558 8.35236 6,225 273 283 1664
2018-01-11 16:12:37 GMT 47.43558 8.35332 6,175 273 282 1664
2018-01-11 16:12:35 GMT 47.43547 8.35729 6,125 273 281 1664
2018-01-11 16:12:35 GMT 47.43547 8.35729 6,125 276 272 1216
2018-01-11 16:12:33 GMT 47.43538 8.36088 6,075 273 280 1664
2018-01-11 16:12:31 GMT 47.43521 8.36568 6,000 274 279 1664
2018-01-11 16:12:29 GMT 47.43505 8.36947 5,950 274 278 1664
2018-01-11 16:12:25 GMT 47.43475 8.37714 5,825 275 276 1600
2018-01-11 16:12:23 GMT 47.43443 8.38291 5,775 275 276 1600
2018-01-11 16:12:21 GMT 47.43430 8.38504 5,725 276 274 1472
2018-01-11 16:12:19 GMT 47.43398 8.39017 5,650 276 272 1216
2018-01-11 16:12:17 GMT 47.43388 8.39177 5,625 276 272 1216
2018-01-11 16:12:14 GMT 47.43356 8.39699 5,575 276 270 1024
2018-01-11 16:12:12 GMT 47.43320 8.40255 5,500 276 267 896
2018-01-11 16:12:10 GMT 47.43306 8.40454 5,500 275 265 832
2018-01-11 16:12:10 GMT 47.43306 8.40454 5,500 275 265 832
2018-01-11 16:12:08 GMT 47.43288 8.40818 5,475 275 263 768
2018-01-11 16:12:08 GMT 47.43288 8.40818 5,475 275 263 768
2018-01-11 16:12:06 GMT 47.43259 8.41271 5,450 275 261 768
2018-01-11 16:12:04 GMT 47.43245 8.41532 5,425 275 258 768
2018-01-11 16:12:02 GMT 47.43214 8.42027 5,375 275 255 896
2018-01-11 16:12:00 GMT 47.43201 8.42287 5,350 274 253 960
2018-01-11 16:12:00 GMT 47.43201 8.42287 5,350 274 253 960
2018-01-11 16:11:58 GMT 47.43189 8.42574 5,325 274 253 1024
2018-01-11 16:11:56 GMT 47.43170 8.42926 5,300 273 251 896
2018-01-11 16:11:54 GMT 47.43155 8.43345 5,250 272 248 768
2018-01-11 16:11:52 GMT 47.43146 8.43551 5,250 271 248 704
2018-01-11 16:11:50 GMT 47.43141 8.44052 5,200 270 246 704
2018-01-11 16:11:50 GMT 47.43141 8.44052 5,200 269 243 832
2018-01-11 16:11:48 GMT 47.43141 8.44313 5,175 269 243 832
2018-01-11 16:11:45 GMT 47.43152 8.44975 5,125 266 240 768
2018-01-11 16:11:43 GMT 47.43164 8.45213 5,100 265 239 704
2018-01-11 16:11:41 GMT 47.43182 8.45535 5,075 262 237 512
2018-01-11 16:11:39 GMT 47.43219 8.45940 5,050 261 236 448
2018-01-11 16:11:36 GMT 47.43263 8.46285 5,050 258 232 256
2018-01-11 16:11:34 GMT 47.43297 8.46524 5,050 257 230 256
2018-01-11 16:11:32 GMT 47.43347 8.46814 5,025 256 226 384
2018-01-11 16:11:28 GMT 47.43448 8.47389 5,000 256 224 512
2018-01-11 16:11:26 GMT 47.43524 8.47835 4,975 256 219 640
2018-01-11 16:11:24 GMT 47.43553 8.48007 4,975 256 218 640
2018-01-11 16:11:22 GMT 47.43640 8.48504 4,925 256 215 576
2018-01-11 16:11:19 GMT 47.43722 8.48975 4,900 256 213 576
2018-01-11 16:11:18 GMT 47.43713 8.48914 4,900 256 213 576
2018-01-11 16:11:16 GMT 47.43794 8.49384 4,875 256 210 640
2018-01-11 16:11:14 GMT 47.43805 8.49456 4,875 256 209 640
2018-01-11 16:11:11 GMT 47.43901 8.50012 4,825 256 206 640
2018-01-11 16:11:09 GMT 47.43938 8.50232 4,800 257 203 640
2018-01-11 16:11:08 GMT 47.43951 8.50314 4,800 257 203 640
2018-01-11 16:11:06 GMT 47.43985 8.50518 4,800 256 202 640
2018-01-11 16:11:04 GMT 47.44046 8.50870 4,750 256 200 640
2018-01-11 16:11:01 GMT 47.44134 8.51372 4,725 256 197 512
2018-01-11 16:10:58 GMT 47.44194 8.51701 4,700 256 195 384
2018-01-11 16:10:56 GMT 47.44213 8.51821 4,700 256 194 384
2018-01-11 16:10:54 GMT 47.44276 8.52168 4,675 256 188 448
2018-01-11 16:10:52 GMT 47.44325 8.52455 4,675 256 188 448
2018-01-11 16:10:50 GMT 47.44373 8.52697 4,650 255 186 384
2018-01-11 16:10:48 GMT 47.44404 8.52877 4,650 255 184 384
2018-01-11 16:10:48 GMT 47.44404 8.52877 4,650 255 180 512
2018-01-11 16:10:46 GMT 47.44469 8.53236 4,625 255 182 384
2018-01-11 16:10:44 GMT 47.44501 8.53404 4,625 255 179 640
2018-01-11 16:10:40 GMT 47.44592 8.53885 4,575 255 177 1152
2018-01-11 16:10:37 GMT 47.44651 8.54180 4,525 255 177 1344
2018-01-11 16:10:35 GMT 47.44716 8.54537 4,450 255 177 1408
2018-01-11 16:10:33 GMT 47.44739 8.54652 4,425 255 177 1408
2018-01-11 16:10:30 GMT 47.44817 8.55066 4,350 255 178 1408
2018-01-11 16:10:30 GMT 47.44817 8.55066 4,350 256 178 1408
2018-01-11 16:10:28 GMT 47.44858 8.55293 4,300 256 178 1408
2018-01-11 16:10:28 GMT 47.44858 8.55293 4,300 256 178 1408
2018-01-11 16:10:26 GMT 47.44904 8.55540 4,250 256 178 1344
2018-01-11 16:10:23 GMT 47.44962 8.55877 4,200 257 179 1216
2018-01-11 16:10:20 GMT 47.45041 8.56336 4,125 257 178 1088
2018-01-11 16:10:17 GMT 47.45074 8.56532 4,075 258 178 1088
2018-01-11 16:10:17 GMT 47.45074 8.56532 4,075 258 178 1088
2018-01-11 16:10:15 GMT 47.45112 8.56779 4,050 258 178 1088
2018-01-11 16:10:13 GMT 47.45160 8.57085 4,000 258 177 1152
2018-01-11 16:10:09 GMT 47.45224 8.57538 3,925 261 177 1344
2018-01-11 16:10:06 GMT 47.45265 8.57849 3,875 265 176 1280
2018-01-11 16:10:03 GMT 47.45284 8.58225 3,800 271 177 1216
2018-01-11 16:09:59 GMT 47.45237 8.58898 3,700 285 175 1152
2018-01-11 16:09:57 GMT 47.45229 8.58966 3,675 288 175 1152
2018-01-11 16:09:54 GMT 47.45112 8.59441 3,600 299 174 1088
2018-01-11 16:09:48 GMT 47.44917 8.59914 3,525 312 171 896
2018-01-11 16:09:46 GMT 47.44839 8.60058 3,500 318 170 832
2018-01-11 16:09:43 GMT 47.44539 8.60420 3,425 333 166 896
2018-01-11 16:09:36 GMT 47.44176 8.60687 3,325 347 163 1216
2018-01-11 16:09:33 GMT 47.43892 8.60786 3,250 355 162 1344
2018-01-11 16:09:29 GMT 47.43631 8.60800 3,175 5 162 1344
2018-01-11 16:09:27 GMT 47.43501 8.60786 3,125 11 162 1344
2018-01-11 16:09:25 GMT 47.43282 8.60715 3,075 20 162 1344
2018-01-11 16:09:23 GMT 47.43155 8.60648 3,025 23 162 1344
2018-01-11 16:09:17 GMT 47.42793 8.60353 2,900 41 162 1216
2018-01-11 16:09:15 GMT 47.42695 8.60229 2,875 44 162 1152
2018-01-11 16:09:13 GMT 47.42542 8.60004 2,825 57 161 1088
2018-01-11 16:09:05 GMT 47.42294 8.59289 2,675 77 162 1216
2018-01-11 16:09:02 GMT 47.42249 8.58966 2,625 83 162 1344
2018-01-11 16:08:58 GMT 47.42239 8.58497 2,525 98 163 1344
2018-01-11 16:08:55 GMT 47.42276 8.58145 2,450 106 163 1280
2018-01-11 16:08:52 GMT 47.42336 8.57854 2,400 112 164 1216
2018-01-11 16:08:48 GMT 47.42477 8.57455 2,300 127 165 1152
2018-01-11 16:08:45 GMT 47.42628 8.57167 2,250 136 164 1152
2018-01-11 16:08:42 GMT 47.42807 8.56927 2,175 146 165 1472
2018-01-11 16:08:36 GMT 47.43160 8.56618 2,050 155 166 1600
2018-01-11 16:08:34 GMT 47.43305 8.56518 1,975 155 166 1600
2018-01-11 16:08:32 GMT 47.43482 8.56398 1,925 155 166 1600
2018-01-11 16:08:26 GMT 47.43901 8.56117 1,750 155 166 1536
2018-01-11 16:08:24 GMT 47.44006 8.56048 1,725 155 167 1408
2018-01-11 16:08:22 GMT 47.44185 8.55920 1,650 155 167 1344
2018-01-11 16:08:14 GMT 47.44744 8.55539 1,475 155 166 960
2018-01-11 16:08:14 GMT 47.44744 8.55539 1,475 155 166 960
2018-01-11 16:08:11 GMT 47.44911 8.55426 1,425 155 165 960
2018-01-11 16:08:04 GMT 47.45451 8.55060 1,275 154 160 320
2018-01-11 16:07:53 GMT 47.46153 8.54571 0 154 140 0
2018-01-11 16:07:43 GMT 47.46692 8.54201 0 154 115 0
2018-01-11 16:07:31 GMT 47.47169 8.53873 0 154 72 0
2018-01-11 16:07:23 GMT 47.47390 8.53719 0 154 38 0
2018-01-11 16:07:12 GMT 47.47505 8.53641 0 157 4 0
2018-01-11 16:06:44 GMT 47.47511 8.53638 0 157 0 0
2018-01-11 16:06:36 GMT 47.47512 8.53638 0 157 4 0
2018-01-11 16:06:31 GMT 47.47520 8.53629 0 163 5 0
2018-01-11 16:06:22 GMT 47.47533 8.53613 0 185 5 0
2018-01-11 16:06:11 GMT 47.47555 8.53599 0 230 6 0
2018-01-11 16:06:01 GMT 47.47571 8.53627 0 244 9 0
2018-01-11 16:05:51 GMT 47.47588 8.53680 0 244 9 0
2018-01-11 16:05:42 GMT 47.47602 8.53722 0 255 7 0
2018-01-11 16:05:40 GMT 47.47603 8.53726 0 258 7 0
2018-01-11 16:05:27 GMT 47.47612 8.53768 0 281 4 0
2018-01-11 16:05:20 GMT 47.47612 8.53782 0 286 1 0
2018-01-11 16:05:10 GMT 47.47611 8.53786 0 286 0 0
2018-01-11 16:05:00 GMT 47.47611 8.53787 0 286 0 0
2018-01-11 16:04:44 GMT 47.47611 8.53787 0 286 0 0
2018-01-11 16:04:34 GMT 47.47611 8.53787 0 286 0 0
2018-01-11 16:04:14 GMT 47.47611 8.53787 0 286 0 0
2018-01-11 16:03:58 GMT 47.47611 8.53787 0 286 0 0
2018-01-11 16:03:47 GMT 47.47610 8.53807 0 295 5 0
2018-01-11 16:03:38 GMT 47.47603 8.53835 0 309 5 0
2018-01-11 16:03:27 GMT 47.47592 8.53865 0 326 5 0
2018-01-11 16:03:17 GMT 47.47575 8.53884 0 331 5 0
2018-01-11 16:03:07 GMT 47.47553 8.53902 0 334 6 0
2018-01-11 16:02:57 GMT 47.47530 8.53918 0 334 7 0
2018-01-11 16:02:48 GMT 47.47505 8.53933 0 334 10 0
2018-01-11 16:02:46 GMT 47.47495 8.53942 0 334 11 0
2018-01-11 16:02:38 GMT 47.47458 8.53967 0 337 16 0
2018-01-11 16:02:36 GMT 47.47440 8.53978 0 337 18 0
2018-01-11 16:02:28 GMT 47.47378 8.54022 0 334 22 0
2018-01-11 16:02:25 GMT 47.47355 8.54037 0 334 22 0
2018-01-11 16:02:17 GMT 47.47282 8.54087 0 334 23 0
2018-01-11 16:02:15 GMT 47.47264 8.54100 0 334 23 0
2018-01-11 16:02:04 GMT 47.47156 8.54175 0 334 22 0
2018-01-11 16:01:55 GMT 47.47076 8.54229 0 334 23 0
2018-01-11 16:01:47 GMT 47.46997 8.54283 0 334 28 0
2018-01-11 16:01:44 GMT 47.46968 8.54303 0 334 28 0
2018-01-11 16:01:37 GMT 47.46874 8.54367 0 334 28 0
2018-01-11 16:01:34 GMT 47.46846 8.54388 0 337 28 0
2018-01-11 16:01:28 GMT 47.46773 8.54429 0 340 27 0
2018-01-11 16:01:24 GMT 47.46728 8.54455 0 334 26 0
2018-01-11 16:01:17 GMT 47.46649 8.54507 0 334 25 0
2018-01-11 16:01:13 GMT 47.46616 8.54530 0 334 25 0
2018-01-11 16:01:07 GMT 47.46553 8.54575 0 334 25 0
2018-01-11 16:01:03 GMT 47.46513 8.54601 0 334 25 0
2018-01-11 16:00:56 GMT 47.46439 8.54652 0 334 26 0
2018-01-11 16:00:52 GMT 47.46398 8.54681 0 334 26 0
2018-01-11 16:00:46 GMT 47.46330 8.54728 0 334 25 0
2018-01-11 16:00:43 GMT 47.46299 8.54750 0 334 25 0
2018-01-11 16:00:32 GMT 47.46194 8.54823 0 334 23 0
2018-01-11 16:00:26 GMT 47.46132 8.54863 0 334 20 0
2018-01-11 16:00:21 GMT 47.46096 8.54888 0 334 18 0
2018-01-11 16:00:19 GMT 47.46082 8.54898 0 334 16 0
2018-01-11 16:00:14 GMT 47.46048 8.54920 0 337 15 0
2018-01-11 16:00:12 GMT 47.46036 8.54925 0 326 15 0
2018-01-11 16:00:06 GMT 47.46007 8.54965 0 286 13 0
2018-01-11 16:00:02 GMT 47.46000 8.55002 0 275 13 0
2018-01-11 16:00:00 GMT 47.45999 8.55009 0 275 13 0
2018-01-11 15:59:54 GMT 47.45995 8.55073 0 275 15 0
2018-01-11 15:59:51 GMT 47.45993 8.55114 0 275 14 0
2018-01-11 15:59:43 GMT 47.45988 8.55169 0 275 14 0
2018-01-11 15:59:39 GMT 47.45986 8.55208 0 275 14 0
2018-01-11 15:59:34 GMT 47.45982 8.55258 0 275 12 0
2018-01-11 15:59:30 GMT 47.45980 8.55286 0 275 11 0
2018-01-11 15:59:28 GMT 47.45980 8.55298 0 275 11 0
2018-01-11 15:59:23 GMT 47.45977 8.55335 0 272 9 0
2018-01-11 15:59:18 GMT 47.45976 8.55365 0 275 8 0
2018-01-11 15:59:12 GMT 47.45974 8.55391 0 278 6 0
2018-01-11 15:59:09 GMT 47.45973 8.55404 0 278 6 0
2018-01-11 15:59:02 GMT 47.45970 8.55425 0 275 4 0
2018-01-11 15:59:00 GMT 47.45970 8.55432 0 275 3 0
2018-01-11 15:58:49 GMT 47.45969 8.55444 0 275 0 0
2018-01-11 15:58:13 GMT 47.45969 8.55444 0 275 0 0
2018-01-11 15:58:09 GMT 47.45969 8.55445 0 275.6 0 0
2018-01-11 15:57:34 GMT 47.45969 8.55444 0 275 0 0
2018-01-11 15:57:09 GMT 47.45969 8.55445 0 275.6 0 0
2018-01-11 15:56:36 GMT 47.45970 8.55435 0 278 3 0
2018-01-11 15:56:04 GMT 47.46023 8.55420 0 348 5 0
2018-01-11 15:55:33 GMT 47.46090 8.55442 0 5 0 0
2018-01-11 15:55:23 GMT 47.46090 8.55439 0 5 0 0

Making use of Plane Finder data

You are free to use the raw flight data, aircraft information and images provided in this report for your own purposes provided the data is correctly attributed to Plane Finder. We ask that you please credit Plane Finder and link to planefinder.net in close proximity to the content.

Optionally one of the following logos (no smaller then 150x24px) can be used and must link to planefinder.net

Embedding the Plane Finder map

You are welcome to embed the Plane Finder playback map on your website to offer visitors a more interactive experience. We suggest using the following HTML code:

<iframe src="//planefinder.net/data/report/WK24-HB-JMF-7700-squawk-2018-01-11/map" width="800" height="600" seamless="seamless"></iframe>

Where our data comes from

Plane Finder has a global network of data feeds and antenna radars that receive data broadcast directly from aircraft. The primary technologies used are ADS-B and MLAT. We also show feeds from the FAA and a FLARM glider feed.

Click here to find out more about the Plane Finder network.

How we collect our data